<?xml version="1.0" encoding="UTF-8" standalone="no" ?><gpx xmlns="http://www.topografix.com/GPX/1/1" xmlns:gpxx="http://www.garmin.com/xmlschemas/GpxExtensions/v3" xmlns:wptx1="http://www.garmin.com/xmlschemas/WaypointExtension/v1" xmlns:gpxtpx="http://www.garmin.com/xmlschemas/TrackPointExtension/v1" creator="GuideVTT.com" version="1.1" xmlns:xsi="http://www.w3.org/2001/XMLSchema-instance" xsi:schemaLocation="http://www.topografix.com/GPX/1/1 http://www.topografix.com/GPX/1/1/gpx.xsd http://www.garmin.com/xmlschemas/GpxExtensions/v3 http://www8.garmin.com/xmlschemas/GpxExtensionsv3.xsd http://www.garmin.com/xmlschemas/WaypointExtension/v1 http://www8.garmin.com/xmlschemas/WaypointExtensionv1.xsd http://www.garmin.com/xmlschemas/TrackPointExtension/v1 http://www.garmin.com/xmlschemas/TrackPointExtensionv1.xsd">
<metadata><link href="http://www.garmin.com"><text>Garmin International</text></link><time>2013-06-22T15:13:50Z</time></metadata>
<trk><name>00000_20110206.gpx</name><extensions><gpxx:TrackExtension><gpxx:DisplayColor>Cyan</gpxx:DisplayColor></gpxx:TrackExtension></extensions><trkseg>
<trkpt lat="43.875500" lon="5.400470"><ele></ele><time>2014-4-5T15:4:11Z</time></trkpt>
<trkpt lat="43.875450" lon="5.400573"><ele></ele><time>2014-4-5T15:4:14Z</time></trkpt>
<trkpt lat="43.875388" lon="5.400672"><ele></ele><time>2014-4-5T15:4:17Z</time></trkpt>
<trkpt lat="43.875313" lon="5.400723"><ele></ele><time>2014-4-5T15:4:20Z</time></trkpt>
<trkpt lat="43.875252" lon="5.400857"><ele></ele><time>2014-4-5T15:4:23Z</time></trkpt>
<trkpt lat="43.875222" lon="5.401075"><ele></ele><time>2014-4-5T15:4:26Z</time></trkpt>
<trkpt lat="43.875145" lon="5.401288"><ele></ele><time>2014-4-5T15:4:29Z</time></trkpt>
<trkpt lat="43.875030" lon="5.401462"><ele></ele><time>2014-4-5T15:4:32Z</time></trkpt>
<trkpt lat="43.874970" lon="5.401685"><ele></ele><time>2014-4-5T15:4:35Z</time></trkpt>
<trkpt lat="43.874638" lon="5.401605"><ele></ele><time>2014-4-5T15:4:38Z</time></trkpt>
<trkpt lat="43.874648" lon="5.401828"><ele></ele><time>2014-4-5T15:4:41Z</time></trkpt>
<trkpt lat="43.874675" lon="5.402047"><ele></ele><time>2014-4-5T15:4:44Z</time></trkpt>
<trkpt lat="43.874767" lon="5.402250"><ele></ele><time>2014-4-5T15:4:47Z</time></trkpt>
<trkpt lat="43.874832" lon="5.402415"><ele></ele><time>2014-4-5T15:4:50Z</time></trkpt>
<trkpt lat="43.874928" lon="5.402587"><ele></ele><time>2014-4-5T15:4:53Z</time></trkpt>
<trkpt lat="43.875008" lon="5.402772"><ele></ele><time>2014-4-5T15:4:56Z</time></trkpt>
<trkpt lat="43.875103" lon="5.402937"><ele></ele><time>2014-4-5T15:4:59Z</time></trkpt>
<trkpt lat="43.875202" lon="5.403107"><ele></ele><time>2014-4-5T15:5:2Z</time></trkpt>
<trkpt lat="43.875298" lon="5.403293"><ele></ele><time>2014-4-5T15:5:5Z</time></trkpt>
<trkpt lat="43.875405" lon="5.403495"><ele></ele><time>2014-4-5T15:5:8Z</time></trkpt>
<trkpt lat="43.875518" lon="5.403703"><ele></ele><time>2014-4-5T15:5:11Z</time></trkpt>
<trkpt lat="43.875583" lon="5.403892"><ele></ele><time>2014-4-5T15:5:14Z</time></trkpt>
<trkpt lat="43.875698" lon="5.404077"><ele></ele><time>2014-4-5T15:5:17Z</time></trkpt>
<trkpt lat="43.875808" lon="5.404293"><ele></ele><time>2014-4-5T15:5:20Z</time></trkpt>
<trkpt lat="43.875938" lon="5.404503"><ele></ele><time>2014-4-5T15:5:23Z</time></trkpt>
<trkpt lat="43.876042" lon="5.404700"><ele></ele><time>2014-4-5T15:5:26Z</time></trkpt>
<trkpt lat="43.876157" lon="5.404918"><ele></ele><time>2014-4-5T15:5:29Z</time></trkpt>
<trkpt lat="43.876263" lon="5.405127"><ele></ele><time>2014-4-5T15:5:32Z</time></trkpt>
<trkpt lat="43.876358" lon="5.405315"><ele></ele><time>2014-4-5T15:5:35Z</time></trkpt>
<trkpt lat="43.876450" lon="5.405497"><ele></ele><time>2014-4-5T15:5:38Z</time></trkpt>
<trkpt lat="43.876527" lon="5.405663"><ele></ele><time>2014-4-5T15:5:41Z</time></trkpt>
<trkpt lat="43.876580" lon="5.405795"><ele></ele><time>2014-4-5T15:5:44Z</time></trkpt>
<trkpt lat="43.876655" lon="5.405943"><ele></ele><time>2014-4-5T15:5:47Z</time></trkpt>
<trkpt lat="43.876717" lon="5.406077"><ele></ele><time>2014-4-5T15:5:50Z</time></trkpt>
<trkpt lat="43.876782" lon="5.406242"><ele></ele><time>2014-4-5T15:5:53Z</time></trkpt>
<trkpt lat="43.876835" lon="5.406437"><ele></ele><time>2014-4-5T15:5:56Z</time></trkpt>
<trkpt lat="43.876873" lon="5.406642"><ele></ele><time>2014-4-5T15:5:59Z</time></trkpt>
<trkpt lat="43.876903" lon="5.406850"><ele></ele><time>2014-4-5T15:6:2Z</time></trkpt>
<trkpt lat="43.876930" lon="5.407060"><ele></ele><time>2014-4-5T15:6:5Z</time></trkpt>
<trkpt lat="43.876957" lon="5.407265"><ele></ele><time>2014-4-5T15:6:8Z</time></trkpt>
<trkpt lat="43.877003" lon="5.407485"><ele></ele><time>2014-4-5T15:6:11Z</time></trkpt>
<trkpt lat="43.877033" lon="5.407695"><ele></ele><time>2014-4-5T15:6:14Z</time></trkpt>
<trkpt lat="43.877063" lon="5.407917"><ele></ele><time>2014-4-5T15:6:17Z</time></trkpt>
<trkpt lat="43.877095" lon="5.408147"><ele></ele><time>2014-4-5T15:6:20Z</time></trkpt>
<trkpt lat="43.877137" lon="5.408382"><ele></ele><time>2014-4-5T15:6:23Z</time></trkpt>
<trkpt lat="43.877175" lon="5.408608"><ele></ele><time>2014-4-5T15:6:26Z</time></trkpt>
<trkpt lat="43.877208" lon="5.408858"><ele></ele><time>2014-4-5T15:6:29Z</time></trkpt>
<trkpt lat="43.877240" lon="5.409107"><ele></ele><time>2014-4-5T15:6:32Z</time></trkpt>
<trkpt lat="43.877273" lon="5.409363"><ele></ele><time>2014-4-5T15:6:35Z</time></trkpt>
<trkpt lat="43.877297" lon="5.409567"><ele></ele><time>2014-4-5T15:6:38Z</time></trkpt>
<trkpt lat="43.877228" lon="5.409657"><ele></ele><time>2014-4-5T15:6:41Z</time></trkpt>
<trkpt lat="43.877117" lon="5.409673"><ele></ele><time>2014-4-5T15:6:44Z</time></trkpt>
<trkpt lat="43.877010" lon="5.409723"><ele></ele><time>2014-4-5T15:6:47Z</time></trkpt>
<trkpt lat="43.876918" lon="5.409813"><ele></ele><time>2014-4-5T15:6:50Z</time></trkpt>
<trkpt lat="43.876915" lon="5.409975"><ele></ele><time>2014-4-5T15:6:53Z</time></trkpt>
<trkpt lat="43.876903" lon="5.410132"><ele></ele><time>2014-4-5T15:6:56Z</time></trkpt>
<trkpt lat="43.876897" lon="5.410285"><ele></ele><time>2014-4-5T15:6:59Z</time></trkpt>
<trkpt lat="43.876885" lon="5.410443"><ele></ele><time>2014-4-5T15:7:2Z</time></trkpt>
<trkpt lat="43.876870" lon="5.410597"><ele></ele><time>2014-4-5T15:7:5Z</time></trkpt>
<trkpt lat="43.876850" lon="5.410747"><ele></ele><time>2014-4-5T15:7:8Z</time></trkpt>
<trkpt lat="43.876838" lon="5.410905"><ele></ele><time>2014-4-5T15:7:11Z</time></trkpt>
<trkpt lat="43.876827" lon="5.411065"><ele></ele><time>2014-4-5T15:7:14Z</time></trkpt>
<trkpt lat="43.876812" lon="5.411233"><ele></ele><time>2014-4-5T15:7:17Z</time></trkpt>
<trkpt lat="43.876788" lon="5.411393"><ele></ele><time>2014-4-5T15:7:20Z</time></trkpt>
<trkpt lat="43.876762" lon="5.411567"><ele></ele><time>2014-4-5T15:7:23Z</time></trkpt>
<trkpt lat="43.876725" lon="5.411723"><ele></ele><time>2014-4-5T15:7:26Z</time></trkpt>
<trkpt lat="43.876682" lon="5.411875"><ele></ele><time>2014-4-5T15:7:29Z</time></trkpt>
<trkpt lat="43.876625" lon="5.412022"><ele></ele><time>2014-4-5T15:7:32Z</time></trkpt>
<trkpt lat="43.876580" lon="5.412175"><ele></ele><time>2014-4-5T15:7:35Z</time></trkpt>
<trkpt lat="43.876542" lon="5.412330"><ele></ele><time>2014-4-5T15:7:38Z</time></trkpt>
<trkpt lat="43.876500" lon="5.412478"><ele></ele><time>2014-4-5T15:7:41Z</time></trkpt>
<trkpt lat="43.876457" lon="5.412618"><ele></ele><time>2014-4-5T15:7:44Z</time></trkpt>
<trkpt lat="43.876392" lon="5.412752"><ele></ele><time>2014-4-5T15:7:47Z</time></trkpt>
<trkpt lat="43.876332" lon="5.412883"><ele></ele><time>2014-4-5T15:7:50Z</time></trkpt>
<trkpt lat="43.876300" lon="5.413032"><ele></ele><time>2014-4-5T15:7:53Z</time></trkpt>
<trkpt lat="43.876335" lon="5.413183"><ele></ele><time>2014-4-5T15:7:56Z</time></trkpt>
<trkpt lat="43.876365" lon="5.413328"><ele></ele><time>2014-4-5T15:7:59Z</time></trkpt>
<trkpt lat="43.876397" lon="5.413473"><ele></ele><time>2014-4-5T15:8:2Z</time></trkpt>
<trkpt lat="43.876403" lon="5.413625"><ele></ele><time>2014-4-5T15:8:5Z</time></trkpt>
<trkpt lat="43.876397" lon="5.413783"><ele></ele><time>2014-4-5T15:8:8Z</time></trkpt>
<trkpt lat="43.876370" lon="5.413942"><ele></ele><time>2014-4-5T15:8:11Z</time></trkpt>
<trkpt lat="43.876350" lon="5.414107"><ele></ele><time>2014-4-5T15:8:14Z</time></trkpt>
<trkpt lat="43.876332" lon="5.414282"><ele></ele><time>2014-4-5T15:8:17Z</time></trkpt>
<trkpt lat="43.876282" lon="5.414443"><ele></ele><time>2014-4-5T15:8:20Z</time></trkpt>
<trkpt lat="43.876202" lon="5.414592"><ele></ele><time>2014-4-5T15:8:23Z</time></trkpt>
<trkpt lat="43.876122" lon="5.414733"><ele></ele><time>2014-4-5T15:8:26Z</time></trkpt>
<trkpt lat="43.876042" lon="5.414885"><ele></ele><time>2014-4-5T15:8:29Z</time></trkpt>
<trkpt lat="43.875973" lon="5.415045"><ele></ele><time>2014-4-5T15:8:32Z</time></trkpt>
<trkpt lat="43.875908" lon="5.415208"><ele></ele><time>2014-4-5T15:8:35Z</time></trkpt>
<trkpt lat="43.875847" lon="5.415378"><ele></ele><time>2014-4-5T15:8:38Z</time></trkpt>
<trkpt lat="43.875802" lon="5.415547"><ele></ele><time>2014-4-5T15:8:41Z</time></trkpt>
<trkpt lat="43.875755" lon="5.415713"><ele></ele><time>2014-4-5T15:8:44Z</time></trkpt>
<trkpt lat="43.875710" lon="5.415867"><ele></ele><time>2014-4-5T15:8:47Z</time></trkpt>
<trkpt lat="43.875717" lon="5.416025"><ele></ele><time>2014-4-5T15:8:50Z</time></trkpt>
<trkpt lat="43.875743" lon="5.416178"><ele></ele><time>2014-4-5T15:8:53Z</time></trkpt>
<trkpt lat="43.875782" lon="5.416330"><ele></ele><time>2014-4-5T15:8:56Z</time></trkpt>
<trkpt lat="43.875840" lon="5.416487"><ele></ele><time>2014-4-5T15:8:59Z</time></trkpt>
<trkpt lat="43.875888" lon="5.416625"><ele></ele><time>2014-4-5T15:9:2Z</time></trkpt>
<trkpt lat="43.875957" lon="5.416768"><ele></ele><time>2014-4-5T15:9:5Z</time></trkpt>
<trkpt lat="43.875968" lon="5.416932"><ele></ele><time>2014-4-5T15:9:8Z</time></trkpt>
<trkpt lat="43.875965" lon="5.417087"><ele></ele><time>2014-4-5T15:9:11Z</time></trkpt>
<trkpt lat="43.875942" lon="5.417242"><ele></ele><time>2014-4-5T15:9:14Z</time></trkpt>
<trkpt lat="43.875897" lon="5.417385"><ele></ele><time>2014-4-5T15:9:17Z</time></trkpt>
<trkpt lat="43.875862" lon="5.417515"><ele></ele><time>2014-4-5T15:9:20Z</time></trkpt>
<trkpt lat="43.875832" lon="5.417647"><ele></ele><time>2014-4-5T15:9:23Z</time></trkpt>
<trkpt lat="43.875808" lon="5.417785"><ele></ele><time>2014-4-5T15:9:26Z</time></trkpt>
<trkpt lat="43.875790" lon="5.417923"><ele></ele><time>2014-4-5T15:9:29Z</time></trkpt>
<trkpt lat="43.875813" lon="5.418067"><ele></ele><time>2014-4-5T15:9:32Z</time></trkpt>
<trkpt lat="43.875843" lon="5.418217"><ele></ele><time>2014-4-5T15:9:35Z</time></trkpt>
<trkpt lat="43.875862" lon="5.418370"><ele></ele><time>2014-4-5T15:9:38Z</time></trkpt>
<trkpt lat="43.875873" lon="5.418515"><ele></ele><time>2014-4-5T15:9:41Z</time></trkpt>
<trkpt lat="43.875873" lon="5.418637"><ele></ele><time>2014-4-5T15:9:44Z</time></trkpt>
<trkpt lat="43.875877" lon="5.418755"><ele></ele><time>2014-4-5T15:9:47Z</time></trkpt>
<trkpt lat="43.875882" lon="5.418868"><ele></ele><time>2014-4-5T15:9:50Z</time></trkpt>
<trkpt lat="43.875888" lon="5.418992"><ele></ele><time>2014-4-5T15:9:53Z</time></trkpt>
<trkpt lat="43.875877" lon="5.419107"><ele></ele><time>2014-4-5T15:9:56Z</time></trkpt>
<trkpt lat="43.875862" lon="5.419230"><ele></ele><time>2014-4-5T15:9:59Z</time></trkpt>
<trkpt lat="43.875840" lon="5.419342"><ele></ele><time>2014-4-5T15:10:2Z</time></trkpt>
<trkpt lat="43.875813" lon="5.419465"><ele></ele><time>2014-4-5T15:10:5Z</time></trkpt>
<trkpt lat="43.875775" lon="5.419565"><ele></ele><time>2014-4-5T15:10:8Z</time></trkpt>
<trkpt lat="43.875732" lon="5.419733"><ele></ele><time>2014-4-5T15:10:11Z</time></trkpt>
<trkpt lat="43.875687" lon="5.419935"><ele></ele><time>2014-4-5T15:10:14Z</time></trkpt>
<trkpt lat="43.875613" lon="5.420112"><ele></ele><time>2014-4-5T15:10:17Z</time></trkpt>
<trkpt lat="43.875572" lon="5.420310"><ele></ele><time>2014-4-5T15:10:20Z</time></trkpt>
<trkpt lat="43.875545" lon="5.420500"><ele></ele><time>2014-4-5T15:10:23Z</time></trkpt>
<trkpt lat="43.875507" lon="5.420698"><ele></ele><time>2014-4-5T15:10:26Z</time></trkpt>
<trkpt lat="43.875420" lon="5.420850"><ele></ele><time>2014-4-5T15:10:29Z</time></trkpt>
<trkpt lat="43.875347" lon="5.420982"><ele></ele><time>2014-4-5T15:10:32Z</time></trkpt>
<trkpt lat="43.875320" lon="5.421118"><ele></ele><time>2014-4-5T15:10:35Z</time></trkpt>
<trkpt lat="43.875335" lon="5.421263"><ele></ele><time>2014-4-5T15:10:38Z</time></trkpt>
<trkpt lat="43.875328" lon="5.421408"><ele></ele><time>2014-4-5T15:10:41Z</time></trkpt>
<trkpt lat="43.875290" lon="5.421527"><ele></ele><time>2014-4-5T15:10:44Z</time></trkpt>
<trkpt lat="43.875263" lon="5.421637"><ele></ele><time>2014-4-5T15:10:47Z</time></trkpt>
<trkpt lat="43.875248" lon="5.421753"><ele></ele><time>2014-4-5T15:10:50Z</time></trkpt>
<trkpt lat="43.875255" lon="5.421873"><ele></ele><time>2014-4-5T15:10:53Z</time></trkpt>
<trkpt lat="43.875287" lon="5.421982"><ele></ele><time>2014-4-5T15:10:56Z</time></trkpt>
<trkpt lat="43.875325" lon="5.422083"><ele></ele><time>2014-4-5T15:10:59Z</time></trkpt>
<trkpt lat="43.875347" lon="5.422190"><ele></ele><time>2014-4-5T15:11:2Z</time></trkpt>
<trkpt lat="43.875347" lon="5.422298"><ele></ele><time>2014-4-5T15:11:5Z</time></trkpt>
<trkpt lat="43.875335" lon="5.422402"><ele></ele><time>2014-4-5T15:11:8Z</time></trkpt>
<trkpt lat="43.875320" lon="5.422500"><ele></ele><time>2014-4-5T15:11:11Z</time></trkpt>
<trkpt lat="43.875308" lon="5.422602"><ele></ele><time>2014-4-5T15:11:14Z</time></trkpt>
<trkpt lat="43.875298" lon="5.422703"><ele></ele><time>2014-4-5T15:11:17Z</time></trkpt>
<trkpt lat="43.875290" lon="5.422803"><ele></ele><time>2014-4-5T15:11:20Z</time></trkpt>
<trkpt lat="43.875267" lon="5.422898"><ele></ele><time>2014-4-5T15:11:23Z</time></trkpt>
<trkpt lat="43.875240" lon="5.422997"><ele></ele><time>2014-4-5T15:11:26Z</time></trkpt>
<trkpt lat="43.875207" lon="5.423092"><ele></ele><time>2014-4-5T15:11:29Z</time></trkpt>
<trkpt lat="43.875175" lon="5.423193"><ele></ele><time>2014-4-5T15:11:32Z</time></trkpt>
<trkpt lat="43.875148" lon="5.423292"><ele></ele><time>2014-4-5T15:11:35Z</time></trkpt>
<trkpt lat="43.875122" lon="5.423393"><ele></ele><time>2014-4-5T15:11:38Z</time></trkpt>
<trkpt lat="43.875103" lon="5.423497"><ele></ele><time>2014-4-5T15:11:41Z</time></trkpt>
<trkpt lat="43.875092" lon="5.423602"><ele></ele><time>2014-4-5T15:11:44Z</time></trkpt>
<trkpt lat="43.875088" lon="5.423710"><ele></ele><time>2014-4-5T15:11:47Z</time></trkpt>
<trkpt lat="43.875080" lon="5.423818"><ele></ele><time>2014-4-5T15:11:50Z</time></trkpt>
<trkpt lat="43.875077" lon="5.423920"><ele></ele><time>2014-4-5T15:11:53Z</time></trkpt>
<trkpt lat="43.875077" lon="5.424027"><ele></ele><time>2014-4-5T15:11:56Z</time></trkpt>
<trkpt lat="43.875062" lon="5.424133"><ele></ele><time>2014-4-5T15:11:59Z</time></trkpt>
<trkpt lat="43.875038" lon="5.424238"><ele></ele><time>2014-4-5T15:12:2Z</time></trkpt>
<trkpt lat="43.875023" lon="5.424343"><ele></ele><time>2014-4-5T15:12:5Z</time></trkpt>
<trkpt lat="43.875003" lon="5.424448"><ele></ele><time>2014-4-5T15:12:8Z</time></trkpt>
<trkpt lat="43.874985" lon="5.424560"><ele></ele><time>2014-4-5T15:12:11Z</time></trkpt>
<trkpt lat="43.874965" lon="5.424672"><ele></ele><time>2014-4-5T15:12:14Z</time></trkpt>
<trkpt lat="43.874955" lon="5.424782"><ele></ele><time>2014-4-5T15:12:17Z</time></trkpt>
<trkpt lat="43.874938" lon="5.424888"><ele></ele><time>2014-4-5T15:12:20Z</time></trkpt>
<trkpt lat="43.874935" lon="5.425000"><ele></ele><time>2014-4-5T15:12:23Z</time></trkpt>
<trkpt lat="43.874955" lon="5.425105"><ele></ele><time>2014-4-5T15:12:26Z</time></trkpt>
<trkpt lat="43.874897" lon="5.425173"><ele></ele><time>2014-4-5T15:12:29Z</time></trkpt>
<trkpt lat="43.874813" lon="5.425210"><ele></ele><time>2014-4-5T15:12:32Z</time></trkpt>
<trkpt lat="43.874733" lon="5.425257"><ele></ele><time>2014-4-5T15:12:35Z</time></trkpt>
<trkpt lat="43.874648" lon="5.425315"><ele></ele><time>2014-4-5T15:12:38Z</time></trkpt>
<trkpt lat="43.874565" lon="5.425367"><ele></ele><time>2014-4-5T15:12:41Z</time></trkpt>
<trkpt lat="43.874477" lon="5.425423"><ele></ele><time>2014-4-5T15:12:44Z</time></trkpt>
<trkpt lat="43.874382" lon="5.425480"><ele></ele><time>2014-4-5T15:12:47Z</time></trkpt>
<trkpt lat="43.874290" lon="5.425533"><ele></ele><time>2014-4-5T15:12:50Z</time></trkpt>
<trkpt lat="43.874198" lon="5.425603"><ele></ele><time>2014-4-5T15:12:53Z</time></trkpt>
<trkpt lat="43.874103" lon="5.425662"><ele></ele><time>2014-4-5T15:12:56Z</time></trkpt>
<trkpt lat="43.874005" lon="5.425707"><ele></ele><time>2014-4-5T15:12:59Z</time></trkpt>
<trkpt lat="43.873905" lon="5.425748"><ele></ele><time>2014-4-5T15:13:2Z</time></trkpt>
<trkpt lat="43.873802" lon="5.425777"><ele></ele><time>2014-4-5T15:13:5Z</time></trkpt>
<trkpt lat="43.873703" lon="5.425803"><ele></ele><time>2014-4-5T15:13:8Z</time></trkpt>
<trkpt lat="43.873603" lon="5.425818"><ele></ele><time>2014-4-5T15:13:11Z</time></trkpt>
<trkpt lat="43.873505" lon="5.425793"><ele></ele><time>2014-4-5T15:13:14Z</time></trkpt>
<trkpt lat="43.873405" lon="5.425760"><ele></ele><time>2014-4-5T15:13:17Z</time></trkpt>
<trkpt lat="43.873307" lon="5.425717"><ele></ele><time>2014-4-5T15:13:20Z</time></trkpt>
<trkpt lat="43.873203" lon="5.425710"><ele></ele><time>2014-4-5T15:13:23Z</time></trkpt>
<trkpt lat="43.873153" lon="5.425825"><ele></ele><time>2014-4-5T15:13:26Z</time></trkpt>
<trkpt lat="43.873150" lon="5.425970"><ele></ele><time>2014-4-5T15:13:29Z</time></trkpt>
<trkpt lat="43.873150" lon="5.426113"><ele></ele><time>2014-4-5T15:13:32Z</time></trkpt>
<trkpt lat="43.873150" lon="5.426257"><ele></ele><time>2014-4-5T15:13:35Z</time></trkpt>
<trkpt lat="43.873150" lon="5.426403"><ele></ele><time>2014-4-5T15:13:38Z</time></trkpt>
<trkpt lat="43.873147" lon="5.426550"><ele></ele><time>2014-4-5T15:13:41Z</time></trkpt>
<trkpt lat="43.873147" lon="5.426698"><ele></ele><time>2014-4-5T15:13:44Z</time></trkpt>
<trkpt lat="43.873138" lon="5.426848"><ele></ele><time>2014-4-5T15:13:47Z</time></trkpt>
<trkpt lat="43.873070" lon="5.426938"><ele></ele><time>2014-4-5T15:13:50Z</time></trkpt>
<trkpt lat="43.872967" lon="5.426905"><ele></ele><time>2014-4-5T15:13:53Z</time></trkpt>
<trkpt lat="43.872875" lon="5.426825"><ele></ele><time>2014-4-5T15:13:56Z</time></trkpt>
<trkpt lat="43.872780" lon="5.426745"><ele></ele><time>2014-4-5T15:13:59Z</time></trkpt>
<trkpt lat="43.872688" lon="5.426672"><ele></ele><time>2014-4-5T15:14:2Z</time></trkpt>
<trkpt lat="43.872600" lon="5.426597"><ele></ele><time>2014-4-5T15:14:5Z</time></trkpt>
<trkpt lat="43.872508" lon="5.426523"><ele></ele><time>2014-4-5T15:14:8Z</time></trkpt>
<trkpt lat="43.872422" lon="5.426443"><ele></ele><time>2014-4-5T15:14:11Z</time></trkpt>
<trkpt lat="43.872333" lon="5.426353"><ele></ele><time>2014-4-5T15:14:14Z</time></trkpt>
<trkpt lat="43.872265" lon="5.426232"><ele></ele><time>2014-4-5T15:14:17Z</time></trkpt>
<trkpt lat="43.872218" lon="5.426087"><ele></ele><time>2014-4-5T15:14:20Z</time></trkpt>
<trkpt lat="43.872188" lon="5.425915"><ele></ele><time>2014-4-5T15:14:23Z</time></trkpt>
<trkpt lat="43.872147" lon="5.425748"><ele></ele><time>2014-4-5T15:14:26Z</time></trkpt>
<trkpt lat="43.872108" lon="5.425590"><ele></ele><time>2014-4-5T15:14:29Z</time></trkpt>
<trkpt lat="43.872052" lon="5.425437"><ele></ele><time>2014-4-5T15:14:32Z</time></trkpt>
<trkpt lat="43.871963" lon="5.425330"><ele></ele><time>2014-4-5T15:14:35Z</time></trkpt>
<trkpt lat="43.871880" lon="5.425235"><ele></ele><time>2014-4-5T15:14:38Z</time></trkpt>
<trkpt lat="43.871792" lon="5.425150"><ele></ele><time>2014-4-5T15:14:41Z</time></trkpt>
<trkpt lat="43.871703" lon="5.425077"><ele></ele><time>2014-4-5T15:14:44Z</time></trkpt>
<trkpt lat="43.871620" lon="5.425027"><ele></ele><time>2014-4-5T15:14:47Z</time></trkpt>
<trkpt lat="43.871540" lon="5.424978"><ele></ele><time>2014-4-5T15:14:50Z</time></trkpt>
<trkpt lat="43.871460" lon="5.424932"><ele></ele><time>2014-4-5T15:14:53Z</time></trkpt>
<trkpt lat="43.871377" lon="5.424883"><ele></ele><time>2014-4-5T15:14:56Z</time></trkpt>
<trkpt lat="43.871288" lon="5.424853"><ele></ele><time>2014-4-5T15:14:59Z</time></trkpt>
<trkpt lat="43.871208" lon="5.424813"><ele></ele><time>2014-4-5T15:15:2Z</time></trkpt>
<trkpt lat="43.871120" lon="5.424772"><ele></ele><time>2014-4-5T15:15:5Z</time></trkpt>
<trkpt lat="43.871025" lon="5.424718"><ele></ele><time>2014-4-5T15:15:8Z</time></trkpt>
<trkpt lat="43.870915" lon="5.424632"><ele></ele><time>2014-4-5T15:15:11Z</time></trkpt>
<trkpt lat="43.870800" lon="5.424482"><ele></ele><time>2014-4-5T15:15:14Z</time></trkpt>
<trkpt lat="43.870663" lon="5.424303"><ele></ele><time>2014-4-5T15:15:17Z</time></trkpt>
<trkpt lat="43.870525" lon="5.424120"><ele></ele><time>2014-4-5T15:15:20Z</time></trkpt>
<trkpt lat="43.870392" lon="5.423947"><ele></ele><time>2014-4-5T15:15:23Z</time></trkpt>
<trkpt lat="43.870270" lon="5.423770"><ele></ele><time>2014-4-5T15:15:26Z</time></trkpt>
<trkpt lat="43.870187" lon="5.423578"><ele></ele><time>2014-4-5T15:15:29Z</time></trkpt>
<trkpt lat="43.870140" lon="5.423378"><ele></ele><time>2014-4-5T15:15:32Z</time></trkpt>
<trkpt lat="43.870140" lon="5.423168"><ele></ele><time>2014-4-5T15:15:35Z</time></trkpt>
<trkpt lat="43.870140" lon="5.422958"><ele></ele><time>2014-4-5T15:15:38Z</time></trkpt>
<trkpt lat="43.870137" lon="5.422742"><ele></ele><time>2014-4-5T15:15:41Z</time></trkpt>
<trkpt lat="43.870110" lon="5.422523"><ele></ele><time>2014-4-5T15:15:44Z</time></trkpt>
<trkpt lat="43.870140" lon="5.422310"><ele></ele><time>2014-4-5T15:15:47Z</time></trkpt>
<trkpt lat="43.870197" lon="5.422107"><ele></ele><time>2014-4-5T15:15:50Z</time></trkpt>
<trkpt lat="43.870128" lon="5.421967"><ele></ele><time>2014-4-5T15:15:53Z</time></trkpt>
<trkpt lat="43.870037" lon="5.422095"><ele></ele><time>2014-4-5T15:15:56Z</time></trkpt>
<trkpt lat="43.869960" lon="5.422252"><ele></ele><time>2014-4-5T15:15:59Z</time></trkpt>
<trkpt lat="43.869888" lon="5.422395"><ele></ele><time>2014-4-5T15:16:2Z</time></trkpt>
<trkpt lat="43.869800" lon="5.422495"><ele></ele><time>2014-4-5T15:16:5Z</time></trkpt>
<trkpt lat="43.869702" lon="5.422558"><ele></ele><time>2014-4-5T15:16:8Z</time></trkpt>
<trkpt lat="43.869602" lon="5.422623"><ele></ele><time>2014-4-5T15:16:11Z</time></trkpt>
<trkpt lat="43.869495" lon="5.422632"><ele></ele><time>2014-4-5T15:16:14Z</time></trkpt>
<trkpt lat="43.869403" lon="5.422557"><ele></ele><time>2014-4-5T15:16:17Z</time></trkpt>
<trkpt lat="43.869332" lon="5.422435"><ele></ele><time>2014-4-5T15:16:20Z</time></trkpt>
<trkpt lat="43.869263" lon="5.422310"><ele></ele><time>2014-4-5T15:16:23Z</time></trkpt>
<trkpt lat="43.869190" lon="5.422192"><ele></ele><time>2014-4-5T15:16:26Z</time></trkpt>
<trkpt lat="43.869083" lon="5.422095"><ele></ele><time>2014-4-5T15:16:29Z</time></trkpt>
<trkpt lat="43.868912" lon="5.422032"><ele></ele><time>2014-4-5T15:16:32Z</time></trkpt>
<trkpt lat="43.868672" lon="5.421902"><ele></ele><time>2014-4-5T15:16:35Z</time></trkpt>
<trkpt lat="43.868408" lon="5.421735"><ele></ele><time>2014-4-5T15:16:38Z</time></trkpt>
<trkpt lat="43.868210" lon="5.421633"><ele></ele><time>2014-4-5T15:16:41Z</time></trkpt>
<trkpt lat="43.868080" lon="5.421637"><ele></ele><time>2014-4-5T15:16:44Z</time></trkpt>
<trkpt lat="43.867970" lon="5.421742"><ele></ele><time>2014-4-5T15:16:47Z</time></trkpt>
<trkpt lat="43.867855" lon="5.421837"><ele></ele><time>2014-4-5T15:16:50Z</time></trkpt>
<trkpt lat="43.867733" lon="5.421830"><ele></ele><time>2014-4-5T15:16:53Z</time></trkpt>
<trkpt lat="43.867607" lon="5.421783"><ele></ele><time>2014-4-5T15:16:56Z</time></trkpt>
<trkpt lat="43.867482" lon="5.421733"><ele></ele><time>2014-4-5T15:16:59Z</time></trkpt>
<trkpt lat="43.867348" lon="5.421688"><ele></ele><time>2014-4-5T15:17:2Z</time></trkpt>
<trkpt lat="43.867207" lon="5.421640"><ele></ele><time>2014-4-5T15:17:5Z</time></trkpt>
<trkpt lat="43.867070" lon="5.421598"><ele></ele><time>2014-4-5T15:17:8Z</time></trkpt>
<trkpt lat="43.866925" lon="5.421572"><ele></ele><time>2014-4-5T15:17:11Z</time></trkpt>
<trkpt lat="43.866825" lon="5.421603"><ele></ele><time>2014-4-5T15:17:14Z</time></trkpt>
<trkpt lat="43.866810" lon="5.421700"><ele></ele><time>2014-4-5T15:17:17Z</time></trkpt>
<trkpt lat="43.866867" lon="5.421785"><ele></ele><time>2014-4-5T15:17:20Z</time></trkpt>
<trkpt lat="43.866940" lon="5.421857"><ele></ele><time>2014-4-5T15:17:23Z</time></trkpt>
<trkpt lat="43.866985" lon="5.421952"><ele></ele><time>2014-4-5T15:17:26Z</time></trkpt>
<trkpt lat="43.866940" lon="5.422045"><ele></ele><time>2014-4-5T15:17:29Z</time></trkpt>
<trkpt lat="43.866848" lon="5.422065"><ele></ele><time>2014-4-5T15:17:32Z</time></trkpt>
<trkpt lat="43.866763" lon="5.422080"><ele></ele><time>2014-4-5T15:17:35Z</time></trkpt>
<trkpt lat="43.866680" lon="5.422115"><ele></ele><time>2014-4-5T15:17:38Z</time></trkpt>
<trkpt lat="43.866597" lon="5.422172"><ele></ele><time>2014-4-5T15:17:41Z</time></trkpt>
<trkpt lat="43.866520" lon="5.422255"><ele></ele><time>2014-4-5T15:17:44Z</time></trkpt>
<trkpt lat="43.866440" lon="5.422348"><ele></ele><time>2014-4-5T15:17:47Z</time></trkpt>
<trkpt lat="43.866363" lon="5.422450"><ele></ele><time>2014-4-5T15:17:50Z</time></trkpt>
<trkpt lat="43.866310" lon="5.422573"><ele></ele><time>2014-4-5T15:17:53Z</time></trkpt>
<trkpt lat="43.866292" lon="5.422713"><ele></ele><time>2014-4-5T15:17:56Z</time></trkpt>
<trkpt lat="43.866287" lon="5.422852"><ele></ele><time>2014-4-5T15:17:59Z</time></trkpt>
<trkpt lat="43.866275" lon="5.422993"><ele></ele><time>2014-4-5T15:18:2Z</time></trkpt>
<trkpt lat="43.866265" lon="5.423137"><ele></ele><time>2014-4-5T15:18:5Z</time></trkpt>
<trkpt lat="43.866238" lon="5.423277"><ele></ele><time>2014-4-5T15:18:8Z</time></trkpt>
<trkpt lat="43.866142" lon="5.423362"><ele></ele><time>2014-4-5T15:18:11Z</time></trkpt>
<trkpt lat="43.866032" lon="5.423362"><ele></ele><time>2014-4-5T15:18:14Z</time></trkpt>
<trkpt lat="43.865917" lon="5.423328"><ele></ele><time>2014-4-5T15:18:17Z</time></trkpt>
<trkpt lat="43.865795" lon="5.423310"><ele></ele><time>2014-4-5T15:18:20Z</time></trkpt>
<trkpt lat="43.865665" lon="5.423303"><ele></ele><time>2014-4-5T15:18:23Z</time></trkpt>
<trkpt lat="43.865513" lon="5.423300"><ele></ele><time>2014-4-5T15:18:26Z</time></trkpt>
<trkpt lat="43.865327" lon="5.423295"><ele></ele><time>2014-4-5T15:18:29Z</time></trkpt>
<trkpt lat="43.865128" lon="5.423280"><ele></ele><time>2014-4-5T15:18:32Z</time></trkpt>
<trkpt lat="43.864933" lon="5.423275"><ele></ele><time>2014-4-5T15:18:35Z</time></trkpt>
<trkpt lat="43.864738" lon="5.423260"><ele></ele><time>2014-4-5T15:18:38Z</time></trkpt>
<trkpt lat="43.864555" lon="5.423235"><ele></ele><time>2014-4-5T15:18:41Z</time></trkpt>
<trkpt lat="43.864398" lon="5.423162"><ele></ele><time>2014-4-5T15:18:44Z</time></trkpt>
<trkpt lat="43.864253" lon="5.423073"><ele></ele><time>2014-4-5T15:18:47Z</time></trkpt>
<trkpt lat="43.864098" lon="5.423072"><ele></ele><time>2014-4-5T15:18:50Z</time></trkpt>
<trkpt lat="43.863933" lon="5.423112"><ele></ele><time>2014-4-5T15:18:53Z</time></trkpt>
<trkpt lat="43.863785" lon="5.423187"><ele></ele><time>2014-4-5T15:18:56Z</time></trkpt>
<trkpt lat="43.863628" lon="5.423233"><ele></ele><time>2014-4-5T15:18:59Z</time></trkpt>
<trkpt lat="43.863480" lon="5.423273"><ele></ele><time>2014-4-5T15:19:2Z</time></trkpt>
<trkpt lat="43.863347" lon="5.423310"><ele></ele><time>2014-4-5T15:19:5Z</time></trkpt>
<trkpt lat="43.863217" lon="5.423352"><ele></ele><time>2014-4-5T15:19:8Z</time></trkpt>
<trkpt lat="43.863098" lon="5.423407"><ele></ele><time>2014-4-5T15:19:11Z</time></trkpt>
<trkpt lat="43.862983" lon="5.423498"><ele></ele><time>2014-4-5T15:19:14Z</time></trkpt>
<trkpt lat="43.862853" lon="5.423618"><ele></ele><time>2014-4-5T15:19:17Z</time></trkpt>
<trkpt lat="43.862735" lon="5.423745"><ele></ele><time>2014-4-5T15:19:20Z</time></trkpt>
<trkpt lat="43.862598" lon="5.423822"><ele></ele><time>2014-4-5T15:19:23Z</time></trkpt>
<trkpt lat="43.862457" lon="5.423770"><ele></ele><time>2014-4-5T15:19:26Z</time></trkpt>
<trkpt lat="43.862347" lon="5.423630"><ele></ele><time>2014-4-5T15:19:29Z</time></trkpt>
<trkpt lat="43.862247" lon="5.423492"><ele></ele><time>2014-4-5T15:19:32Z</time></trkpt>
<trkpt lat="43.862152" lon="5.423362"><ele></ele><time>2014-4-5T15:19:35Z</time></trkpt>
<trkpt lat="43.862053" lon="5.423262"><ele></ele><time>2014-4-5T15:19:38Z</time></trkpt>
<trkpt lat="43.861942" lon="5.423185"><ele></ele><time>2014-4-5T15:19:41Z</time></trkpt>
<trkpt lat="43.861823" lon="5.423162"><ele></ele><time>2014-4-5T15:19:44Z</time></trkpt>
<trkpt lat="43.861722" lon="5.423177"><ele></ele><time>2014-4-5T15:19:47Z</time></trkpt>
<trkpt lat="43.861625" lon="5.423162"><ele></ele><time>2014-4-5T15:19:50Z</time></trkpt>
<trkpt lat="43.861538" lon="5.423117"><ele></ele><time>2014-4-5T15:19:53Z</time></trkpt>
<trkpt lat="43.861462" lon="5.423055"><ele></ele><time>2014-4-5T15:19:56Z</time></trkpt>
<trkpt lat="43.861378" lon="5.423000"><ele></ele><time>2014-4-5T15:19:59Z</time></trkpt>
<trkpt lat="43.861305" lon="5.422948"><ele></ele><time>2014-4-5T15:20:2Z</time></trkpt>
<trkpt lat="43.861233" lon="5.422903"><ele></ele><time>2014-4-5T15:20:5Z</time></trkpt>
<trkpt lat="43.861168" lon="5.422860"><ele></ele><time>2014-4-5T15:20:8Z</time></trkpt>
<trkpt lat="43.861095" lon="5.422825"><ele></ele><time>2014-4-5T15:20:11Z</time></trkpt>
<trkpt lat="43.861018" lon="5.422788"><ele></ele><time>2014-4-5T15:20:14Z</time></trkpt>
<trkpt lat="43.860947" lon="5.422760"><ele></ele><time>2014-4-5T15:20:17Z</time></trkpt>
<trkpt lat="43.860878" lon="5.422813"><ele></ele><time>2014-4-5T15:20:20Z</time></trkpt>
<trkpt lat="43.860893" lon="5.422918"><ele></ele><time>2014-4-5T15:20:23Z</time></trkpt>
<trkpt lat="43.860912" lon="5.423023"><ele></ele><time>2014-4-5T15:20:26Z</time></trkpt>
<trkpt lat="43.860935" lon="5.423142"><ele></ele><time>2014-4-5T15:20:29Z</time></trkpt>
<trkpt lat="43.860947" lon="5.423270"><ele></ele><time>2014-4-5T15:20:32Z</time></trkpt>
<trkpt lat="43.860970" lon="5.423400"><ele></ele><time>2014-4-5T15:20:35Z</time></trkpt>
<trkpt lat="43.860985" lon="5.423528"><ele></ele><time>2014-4-5T15:20:38Z</time></trkpt>
<trkpt lat="43.861003" lon="5.423653"><ele></ele><time>2014-4-5T15:20:41Z</time></trkpt>
<trkpt lat="43.861018" lon="5.423780"><ele></ele><time>2014-4-5T15:20:44Z</time></trkpt>
<trkpt lat="43.861042" lon="5.423903"><ele></ele><time>2014-4-5T15:20:47Z</time></trkpt>
<trkpt lat="43.861050" lon="5.424033"><ele></ele><time>2014-4-5T15:20:50Z</time></trkpt>
<trkpt lat="43.861065" lon="5.424155"><ele></ele><time>2014-4-5T15:20:53Z</time></trkpt>
<trkpt lat="43.861077" lon="5.424278"><ele></ele><time>2014-4-5T15:20:56Z</time></trkpt>
<trkpt lat="43.861095" lon="5.424402"><ele></ele><time>2014-4-5T15:20:59Z</time></trkpt>
<trkpt lat="43.861107" lon="5.424528"><ele></ele><time>2014-4-5T15:21:2Z</time></trkpt>
<trkpt lat="43.861133" lon="5.424655"><ele></ele><time>2014-4-5T15:21:5Z</time></trkpt>
<trkpt lat="43.861153" lon="5.424782"><ele></ele><time>2014-4-5T15:21:8Z</time></trkpt>
<trkpt lat="43.861172" lon="5.424907"><ele></ele><time>2014-4-5T15:21:11Z</time></trkpt>
<trkpt lat="43.861213" lon="5.425028"><ele></ele><time>2014-4-5T15:21:14Z</time></trkpt>
<trkpt lat="43.861267" lon="5.425138"><ele></ele><time>2014-4-5T15:21:17Z</time></trkpt>
<trkpt lat="43.861328" lon="5.425237"><ele></ele><time>2014-4-5T15:21:20Z</time></trkpt>
<trkpt lat="43.861400" lon="5.425323"><ele></ele><time>2014-4-5T15:21:23Z</time></trkpt>
<trkpt lat="43.861477" lon="5.425407"><ele></ele><time>2014-4-5T15:21:26Z</time></trkpt>
<trkpt lat="43.861553" lon="5.425482"><ele></ele><time>2014-4-5T15:21:29Z</time></trkpt>
<trkpt lat="43.861630" lon="5.425562"><ele></ele><time>2014-4-5T15:21:32Z</time></trkpt>
<trkpt lat="43.861713" lon="5.425648"><ele></ele><time>2014-4-5T15:21:35Z</time></trkpt>
<trkpt lat="43.861797" lon="5.425738"><ele></ele><time>2014-4-5T15:21:38Z</time></trkpt>
<trkpt lat="43.861885" lon="5.425825"><ele></ele><time>2014-4-5T15:21:41Z</time></trkpt>
<trkpt lat="43.861965" lon="5.425912"><ele></ele><time>2014-4-5T15:21:44Z</time></trkpt>
<trkpt lat="43.862048" lon="5.425997"><ele></ele><time>2014-4-5T15:21:47Z</time></trkpt>
<trkpt lat="43.862122" lon="5.426078"><ele></ele><time>2014-4-5T15:21:50Z</time></trkpt>
<trkpt lat="43.862205" lon="5.426160"><ele></ele><time>2014-4-5T15:21:53Z</time></trkpt>
<trkpt lat="43.862285" lon="5.426243"><ele></ele><time>2014-4-5T15:21:56Z</time></trkpt>
<trkpt lat="43.862370" lon="5.426325"><ele></ele><time>2014-4-5T15:21:59Z</time></trkpt>
<trkpt lat="43.862450" lon="5.426407"><ele></ele><time>2014-4-5T15:22:2Z</time></trkpt>
<trkpt lat="43.862533" lon="5.426490"><ele></ele><time>2014-4-5T15:22:5Z</time></trkpt>
<trkpt lat="43.862613" lon="5.426575"><ele></ele><time>2014-4-5T15:22:8Z</time></trkpt>
<trkpt lat="43.862693" lon="5.426668"><ele></ele><time>2014-4-5T15:22:11Z</time></trkpt>
<trkpt lat="43.862743" lon="5.426797"><ele></ele><time>2014-4-5T15:22:14Z</time></trkpt>
<trkpt lat="43.862805" lon="5.426908"><ele></ele><time>2014-4-5T15:22:17Z</time></trkpt>
<trkpt lat="43.862907" lon="5.426930"><ele></ele><time>2014-4-5T15:22:20Z</time></trkpt>
<trkpt lat="43.862998" lon="5.426985"><ele></ele><time>2014-4-5T15:22:23Z</time></trkpt>
<trkpt lat="43.863090" lon="5.427030"><ele></ele><time>2014-4-5T15:22:26Z</time></trkpt>
<trkpt lat="43.863187" lon="5.427037"><ele></ele><time>2014-4-5T15:22:29Z</time></trkpt>
<trkpt lat="43.863285" lon="5.427025"><ele></ele><time>2014-4-5T15:22:32Z</time></trkpt>
<trkpt lat="43.863373" lon="5.427012"><ele></ele><time>2014-4-5T15:22:35Z</time></trkpt>
<trkpt lat="43.863465" lon="5.427000"><ele></ele><time>2014-4-5T15:22:38Z</time></trkpt>
<trkpt lat="43.863552" lon="5.426987"><ele></ele><time>2014-4-5T15:22:41Z</time></trkpt>
<trkpt lat="43.863647" lon="5.426975"><ele></ele><time>2014-4-5T15:22:44Z</time></trkpt>
<trkpt lat="43.863735" lon="5.426960"><ele></ele><time>2014-4-5T15:22:47Z</time></trkpt>
<trkpt lat="43.863827" lon="5.426952"><ele></ele><time>2014-4-5T15:22:50Z</time></trkpt>
<trkpt lat="43.863910" lon="5.426932"><ele></ele><time>2014-4-5T15:22:53Z</time></trkpt>
<trkpt lat="43.864002" lon="5.426920"><ele></ele><time>2014-4-5T15:22:56Z</time></trkpt>
<trkpt lat="43.864090" lon="5.426898"><ele></ele><time>2014-4-5T15:22:59Z</time></trkpt>
<trkpt lat="43.864178" lon="5.426915"><ele></ele><time>2014-4-5T15:23:2Z</time></trkpt>
<trkpt lat="43.864140" lon="5.427003"><ele></ele><time>2014-4-5T15:23:5Z</time></trkpt>
<trkpt lat="43.864075" lon="5.427075"><ele></ele><time>2014-4-5T15:23:8Z</time></trkpt>
<trkpt lat="43.864017" lon="5.427172"><ele></ele><time>2014-4-5T15:23:11Z</time></trkpt>
<trkpt lat="43.863953" lon="5.427250"><ele></ele><time>2014-4-5T15:23:14Z</time></trkpt>
<trkpt lat="43.863883" lon="5.427327"><ele></ele><time>2014-4-5T15:23:17Z</time></trkpt>
<trkpt lat="43.863815" lon="5.427407"><ele></ele><time>2014-4-5T15:23:20Z</time></trkpt>
<trkpt lat="43.863747" lon="5.427487"><ele></ele><time>2014-4-5T15:23:23Z</time></trkpt>
<trkpt lat="43.863682" lon="5.427575"><ele></ele><time>2014-4-5T15:23:26Z</time></trkpt>
<trkpt lat="43.863610" lon="5.427658"><ele></ele><time>2014-4-5T15:23:29Z</time></trkpt>
<trkpt lat="43.863548" lon="5.427755"><ele></ele><time>2014-4-5T15:23:32Z</time></trkpt>
<trkpt lat="43.863503" lon="5.427865"><ele></ele><time>2014-4-5T15:23:35Z</time></trkpt>
<trkpt lat="43.863468" lon="5.427988"><ele></ele><time>2014-4-5T15:23:38Z</time></trkpt>
<trkpt lat="43.863427" lon="5.428108"><ele></ele><time>2014-4-5T15:23:41Z</time></trkpt>
<trkpt lat="43.863365" lon="5.428212"><ele></ele><time>2014-4-5T15:23:44Z</time></trkpt>
<trkpt lat="43.863308" lon="5.428312"><ele></ele><time>2014-4-5T15:23:47Z</time></trkpt>
<trkpt lat="43.863267" lon="5.428422"><ele></ele><time>2014-4-5T15:23:50Z</time></trkpt>
<trkpt lat="43.863202" lon="5.428510"><ele></ele><time>2014-4-5T15:23:53Z</time></trkpt>
<trkpt lat="43.863128" lon="5.428588"><ele></ele><time>2014-4-5T15:23:56Z</time></trkpt>
<trkpt lat="43.863052" lon="5.428668"><ele></ele><time>2014-4-5T15:23:59Z</time></trkpt>
<trkpt lat="43.862995" lon="5.428748"><ele></ele><time>2014-4-5T15:24:2Z</time></trkpt>
<trkpt lat="43.862950" lon="5.428843"><ele></ele><time>2014-4-5T15:24:5Z</time></trkpt>
<trkpt lat="43.862880" lon="5.428933"><ele></ele><time>2014-4-5T15:24:8Z</time></trkpt>
<trkpt lat="43.862900" lon="5.429035"><ele></ele><time>2014-4-5T15:24:11Z</time></trkpt>
<trkpt lat="43.862793" lon="5.429092"><ele></ele><time>2014-4-5T15:24:14Z</time></trkpt>
<trkpt lat="43.862758" lon="5.429218"><ele></ele><time>2014-4-5T15:24:17Z</time></trkpt>
<trkpt lat="43.862708" lon="5.429332"><ele></ele><time>2014-4-5T15:24:20Z</time></trkpt>
<trkpt lat="43.862607" lon="5.429408"><ele></ele><time>2014-4-5T15:24:23Z</time></trkpt>
<trkpt lat="43.862483" lon="5.429483"><ele></ele><time>2014-4-5T15:24:26Z</time></trkpt>
<trkpt lat="43.862382" lon="5.429573"><ele></ele><time>2014-4-5T15:24:29Z</time></trkpt>
<trkpt lat="43.862247" lon="5.429685"><ele></ele><time>2014-4-5T15:24:32Z</time></trkpt>
<trkpt lat="43.862133" lon="5.429787"><ele></ele><time>2014-4-5T15:24:35Z</time></trkpt>
<trkpt lat="43.862007" lon="5.429843"><ele></ele><time>2014-4-5T15:24:38Z</time></trkpt>
<trkpt lat="43.861888" lon="5.429897"><ele></ele><time>2014-4-5T15:24:41Z</time></trkpt>
<trkpt lat="43.861787" lon="5.429915"><ele></ele><time>2014-4-5T15:24:44Z</time></trkpt>
<trkpt lat="43.861695" lon="5.429935"><ele></ele><time>2014-4-5T15:24:47Z</time></trkpt>
<trkpt lat="43.861610" lon="5.429973"><ele></ele><time>2014-4-5T15:24:50Z</time></trkpt>
<trkpt lat="43.861530" lon="5.429998"><ele></ele><time>2014-4-5T15:24:53Z</time></trkpt>
<trkpt lat="43.861447" lon="5.430073"><ele></ele><time>2014-4-5T15:24:56Z</time></trkpt>
<trkpt lat="43.861367" lon="5.430137"><ele></ele><time>2014-4-5T15:24:59Z</time></trkpt>
<trkpt lat="43.861275" lon="5.430157"><ele></ele><time>2014-4-5T15:25:2Z</time></trkpt>
<trkpt lat="43.861195" lon="5.430178"><ele></ele><time>2014-4-5T15:25:5Z</time></trkpt>
<trkpt lat="43.861107" lon="5.430208"><ele></ele><time>2014-4-5T15:25:8Z</time></trkpt>
<trkpt lat="43.861030" lon="5.430232"><ele></ele><time>2014-4-5T15:25:11Z</time></trkpt>
<trkpt lat="43.860955" lon="5.430252"><ele></ele><time>2014-4-5T15:25:14Z</time></trkpt>
<trkpt lat="43.860882" lon="5.430272"><ele></ele><time>2014-4-5T15:25:17Z</time></trkpt>
<trkpt lat="43.860813" lon="5.430310"><ele></ele><time>2014-4-5T15:25:20Z</time></trkpt>
<trkpt lat="43.860745" lon="5.430340"><ele></ele><time>2014-4-5T15:25:23Z</time></trkpt>
<trkpt lat="43.860668" lon="5.430355"><ele></ele><time>2014-4-5T15:25:26Z</time></trkpt>
<trkpt lat="43.860603" lon="5.430367"><ele></ele><time>2014-4-5T15:25:29Z</time></trkpt>
<trkpt lat="43.860538" lon="5.430390"><ele></ele><time>2014-4-5T15:25:32Z</time></trkpt>
<trkpt lat="43.860485" lon="5.430438"><ele></ele><time>2014-4-5T15:25:35Z</time></trkpt>
<trkpt lat="43.860450" lon="5.430515"><ele></ele><time>2014-4-5T15:25:38Z</time></trkpt>
<trkpt lat="43.860423" lon="5.430605"><ele></ele><time>2014-4-5T15:25:41Z</time></trkpt>
<trkpt lat="43.860397" lon="5.430695"><ele></ele><time>2014-4-5T15:25:44Z</time></trkpt>
<trkpt lat="43.860375" lon="5.430775"><ele></ele><time>2014-4-5T15:25:47Z</time></trkpt>
<trkpt lat="43.860355" lon="5.430862"><ele></ele><time>2014-4-5T15:25:50Z</time></trkpt>
<trkpt lat="43.860328" lon="5.430953"><ele></ele><time>2014-4-5T15:25:53Z</time></trkpt>
<trkpt lat="43.860313" lon="5.431040"><ele></ele><time>2014-4-5T15:25:56Z</time></trkpt>
<trkpt lat="43.860295" lon="5.431127"><ele></ele><time>2014-4-5T15:25:59Z</time></trkpt>
<trkpt lat="43.860275" lon="5.431215"><ele></ele><time>2014-4-5T15:26:2Z</time></trkpt>
<trkpt lat="43.860260" lon="5.431305"><ele></ele><time>2014-4-5T15:26:5Z</time></trkpt>
<trkpt lat="43.860252" lon="5.431393"><ele></ele><time>2014-4-5T15:26:8Z</time></trkpt>
<trkpt lat="43.860245" lon="5.431433"><ele></ele><time>2014-4-5T15:26:11Z</time></trkpt>
<trkpt lat="43.860245" lon="5.431445"><ele></ele><time>2014-4-5T15:26:14Z</time></trkpt>
<trkpt lat="43.860233" lon="5.431453"><ele></ele><time>2014-4-5T15:26:17Z</time></trkpt>
<trkpt lat="43.860203" lon="5.431538"><ele></ele><time>2014-4-5T15:26:20Z</time></trkpt>
<trkpt lat="43.860153" lon="5.431608"><ele></ele><time>2014-4-5T15:26:23Z</time></trkpt>
<trkpt lat="43.860130" lon="5.431702"><ele></ele><time>2014-4-5T15:26:26Z</time></trkpt>
<trkpt lat="43.860107" lon="5.431802"><ele></ele><time>2014-4-5T15:26:29Z</time></trkpt>
<trkpt lat="43.860088" lon="5.431902"><ele></ele><time>2014-4-5T15:26:32Z</time></trkpt>
<trkpt lat="43.860065" lon="5.432003"><ele></ele><time>2014-4-5T15:26:35Z</time></trkpt>
<trkpt lat="43.860050" lon="5.432107"><ele></ele><time>2014-4-5T15:26:38Z</time></trkpt>
<trkpt lat="43.860032" lon="5.432210"><ele></ele><time>2014-4-5T15:26:41Z</time></trkpt>
<trkpt lat="43.860012" lon="5.432312"><ele></ele><time>2014-4-5T15:26:44Z</time></trkpt>
<trkpt lat="43.859993" lon="5.432413"><ele></ele><time>2014-4-5T15:26:47Z</time></trkpt>
<trkpt lat="43.859967" lon="5.432510"><ele></ele><time>2014-4-5T15:26:50Z</time></trkpt>
<trkpt lat="43.859908" lon="5.432565"><ele></ele><time>2014-4-5T15:26:53Z</time></trkpt>
<trkpt lat="43.859848" lon="5.432612"><ele></ele><time>2014-4-5T15:26:56Z</time></trkpt>
<trkpt lat="43.859790" lon="5.432675"><ele></ele><time>2014-4-5T15:26:59Z</time></trkpt>
<trkpt lat="43.859742" lon="5.432743"><ele></ele><time>2014-4-5T15:27:2Z</time></trkpt>
<trkpt lat="43.859695" lon="5.432817"><ele></ele><time>2014-4-5T15:27:5Z</time></trkpt>
<trkpt lat="43.859642" lon="5.432882"><ele></ele><time>2014-4-5T15:27:8Z</time></trkpt>
<trkpt lat="43.859582" lon="5.432952"><ele></ele><time>2014-4-5T15:27:11Z</time></trkpt>
<trkpt lat="43.859528" lon="5.433018"><ele></ele><time>2014-4-5T15:27:14Z</time></trkpt>
<trkpt lat="43.859475" lon="5.433085"><ele></ele><time>2014-4-5T15:27:17Z</time></trkpt>
<trkpt lat="43.859417" lon="5.433132"><ele></ele><time>2014-4-5T15:27:20Z</time></trkpt>
<trkpt lat="43.859357" lon="5.433197"><ele></ele><time>2014-4-5T15:27:23Z</time></trkpt>
<trkpt lat="43.859303" lon="5.433262"><ele></ele><time>2014-4-5T15:27:26Z</time></trkpt>
<trkpt lat="43.859245" lon="5.433330"><ele></ele><time>2014-4-5T15:27:29Z</time></trkpt>
<trkpt lat="43.859185" lon="5.433407"><ele></ele><time>2014-4-5T15:27:32Z</time></trkpt>
<trkpt lat="43.859120" lon="5.433465"><ele></ele><time>2014-4-5T15:27:35Z</time></trkpt>
<trkpt lat="43.859055" lon="5.433528"><ele></ele><time>2014-4-5T15:27:38Z</time></trkpt>
<trkpt lat="43.858990" lon="5.433570"><ele></ele><time>2014-4-5T15:27:41Z</time></trkpt>
<trkpt lat="43.858925" lon="5.433620"><ele></ele><time>2014-4-5T15:27:44Z</time></trkpt>
<trkpt lat="43.858860" lon="5.433660"><ele></ele><time>2014-4-5T15:27:47Z</time></trkpt>
<trkpt lat="43.858795" lon="5.433698"><ele></ele><time>2014-4-5T15:27:50Z</time></trkpt>
<trkpt lat="43.858727" lon="5.433733"><ele></ele><time>2014-4-5T15:27:53Z</time></trkpt>
<trkpt lat="43.858658" lon="5.433743"><ele></ele><time>2014-4-5T15:27:56Z</time></trkpt>
<trkpt lat="43.858578" lon="5.433770"><ele></ele><time>2014-4-5T15:27:59Z</time></trkpt>
<trkpt lat="43.858502" lon="5.433813"><ele></ele><time>2014-4-5T15:28:2Z</time></trkpt>
<trkpt lat="43.858418" lon="5.433882"><ele></ele><time>2014-4-5T15:28:5Z</time></trkpt>
<trkpt lat="43.858327" lon="5.433945"><ele></ele><time>2014-4-5T15:28:8Z</time></trkpt>
<trkpt lat="43.858238" lon="5.434012"><ele></ele><time>2014-4-5T15:28:11Z</time></trkpt>
<trkpt lat="43.858150" lon="5.434082"><ele></ele><time>2014-4-5T15:28:14Z</time></trkpt>
<trkpt lat="43.858047" lon="5.434153"><ele></ele><time>2014-4-5T15:28:17Z</time></trkpt>
<trkpt lat="43.857945" lon="5.434225"><ele></ele><time>2014-4-5T15:28:20Z</time></trkpt>
<trkpt lat="43.857838" lon="5.434290"><ele></ele><time>2014-4-5T15:28:23Z</time></trkpt>
<trkpt lat="43.857723" lon="5.434345"><ele></ele><time>2014-4-5T15:28:26Z</time></trkpt>
<trkpt lat="43.857608" lon="5.434387"><ele></ele><time>2014-4-5T15:28:29Z</time></trkpt>
<trkpt lat="43.857495" lon="5.434423"><ele></ele><time>2014-4-5T15:28:32Z</time></trkpt>
<trkpt lat="43.857380" lon="5.434453"><ele></ele><time>2014-4-5T15:28:35Z</time></trkpt>
<trkpt lat="43.857262" lon="5.434490"><ele></ele><time>2014-4-5T15:28:38Z</time></trkpt>
<trkpt lat="43.857132" lon="5.434523"><ele></ele><time>2014-4-5T15:28:41Z</time></trkpt>
<trkpt lat="43.857013" lon="5.434507"><ele></ele><time>2014-4-5T15:28:44Z</time></trkpt>
<trkpt lat="43.856895" lon="5.434477"><ele></ele><time>2014-4-5T15:28:47Z</time></trkpt>
<trkpt lat="43.856770" lon="5.434475"><ele></ele><time>2014-4-5T15:28:50Z</time></trkpt>
<trkpt lat="43.856628" lon="5.434453"><ele></ele><time>2014-4-5T15:28:53Z</time></trkpt>
<trkpt lat="43.856513" lon="5.434435"><ele></ele><time>2014-4-5T15:28:56Z</time></trkpt>
<trkpt lat="43.856407" lon="5.434412"><ele></ele><time>2014-4-5T15:28:59Z</time></trkpt>
<trkpt lat="43.856293" lon="5.434398"><ele></ele><time>2014-4-5T15:29:2Z</time></trkpt>
<trkpt lat="43.856182" lon="5.434380"><ele></ele><time>2014-4-5T15:29:5Z</time></trkpt>
<trkpt lat="43.856068" lon="5.434363"><ele></ele><time>2014-4-5T15:29:8Z</time></trkpt>
<trkpt lat="43.855957" lon="5.434347"><ele></ele><time>2014-4-5T15:29:11Z</time></trkpt>
<trkpt lat="43.855850" lon="5.434315"><ele></ele><time>2014-4-5T15:29:14Z</time></trkpt>
<trkpt lat="43.855755" lon="5.434310"><ele></ele><time>2014-4-5T15:29:17Z</time></trkpt>
<trkpt lat="43.855667" lon="5.434288"><ele></ele><time>2014-4-5T15:29:20Z</time></trkpt>
<trkpt lat="43.855587" lon="5.434258"><ele></ele><time>2014-4-5T15:29:23Z</time></trkpt>
<trkpt lat="43.855510" lon="5.434228"><ele></ele><time>2014-4-5T15:29:26Z</time></trkpt>
<trkpt lat="43.855435" lon="5.434210"><ele></ele><time>2014-4-5T15:29:29Z</time></trkpt>
<trkpt lat="43.855358" lon="5.434217"><ele></ele><time>2014-4-5T15:29:32Z</time></trkpt>
<trkpt lat="43.855282" lon="5.434238"><ele></ele><time>2014-4-5T15:29:35Z</time></trkpt>
<trkpt lat="43.855213" lon="5.434273"><ele></ele><time>2014-4-5T15:29:38Z</time></trkpt>
<trkpt lat="43.855140" lon="5.434313"><ele></ele><time>2014-4-5T15:29:41Z</time></trkpt>
<trkpt lat="43.855068" lon="5.434347"><ele></ele><time>2014-4-5T15:29:44Z</time></trkpt>
<trkpt lat="43.855000" lon="5.434373"><ele></ele><time>2014-4-5T15:29:47Z</time></trkpt>
<trkpt lat="43.854932" lon="5.434395"><ele></ele><time>2014-4-5T15:29:50Z</time></trkpt>
<trkpt lat="43.854855" lon="5.434402"><ele></ele><time>2014-4-5T15:29:53Z</time></trkpt>
<trkpt lat="43.854787" lon="5.434428"><ele></ele><time>2014-4-5T15:29:56Z</time></trkpt>
<trkpt lat="43.854717" lon="5.434448"><ele></ele><time>2014-4-5T15:29:59Z</time></trkpt>
<trkpt lat="43.854645" lon="5.434465"><ele></ele><time>2014-4-5T15:30:2Z</time></trkpt>
<trkpt lat="43.854568" lon="5.434485"><ele></ele><time>2014-4-5T15:30:5Z</time></trkpt>
<trkpt lat="43.854497" lon="5.434513"><ele></ele><time>2014-4-5T15:30:8Z</time></trkpt>
<trkpt lat="43.854417" lon="5.434502"><ele></ele><time>2014-4-5T15:30:11Z</time></trkpt>
<trkpt lat="43.854340" lon="5.434508"><ele></ele><time>2014-4-5T15:30:14Z</time></trkpt>
<trkpt lat="43.854267" lon="5.434505"><ele></ele><time>2014-4-5T15:30:17Z</time></trkpt>
<trkpt lat="43.854195" lon="5.434500"><ele></ele><time>2014-4-5T15:30:20Z</time></trkpt>
<trkpt lat="43.854118" lon="5.434507"><ele></ele><time>2014-4-5T15:30:23Z</time></trkpt>
<trkpt lat="43.854038" lon="5.434515"><ele></ele><time>2014-4-5T15:30:26Z</time></trkpt>
<trkpt lat="43.853962" lon="5.434493"><ele></ele><time>2014-4-5T15:30:29Z</time></trkpt>
<trkpt lat="43.853882" lon="5.434493"><ele></ele><time>2014-4-5T15:30:32Z</time></trkpt>
<trkpt lat="43.853805" lon="5.434503"><ele></ele><time>2014-4-5T15:30:35Z</time></trkpt>
<trkpt lat="43.853725" lon="5.434520"><ele></ele><time>2014-4-5T15:30:38Z</time></trkpt>
<trkpt lat="43.853642" lon="5.434543"><ele></ele><time>2014-4-5T15:30:41Z</time></trkpt>
<trkpt lat="43.853553" lon="5.434520"><ele></ele><time>2014-4-5T15:30:44Z</time></trkpt>
<trkpt lat="43.853458" lon="5.434547"><ele></ele><time>2014-4-5T15:30:47Z</time></trkpt>
<trkpt lat="43.853355" lon="5.434582"><ele></ele><time>2014-4-5T15:30:50Z</time></trkpt>
<trkpt lat="43.853252" lon="5.434622"><ele></ele><time>2014-4-5T15:30:53Z</time></trkpt>
<trkpt lat="43.853138" lon="5.434667"><ele></ele><time>2014-4-5T15:30:56Z</time></trkpt>
<trkpt lat="43.853023" lon="5.434715"><ele></ele><time>2014-4-5T15:30:59Z</time></trkpt>
<trkpt lat="43.852898" lon="5.434770"><ele></ele><time>2014-4-5T15:31:2Z</time></trkpt>
<trkpt lat="43.852780" lon="5.434827"><ele></ele><time>2014-4-5T15:31:5Z</time></trkpt>
<trkpt lat="43.852642" lon="5.434893"><ele></ele><time>2014-4-5T15:31:8Z</time></trkpt>
<trkpt lat="43.852508" lon="5.434968"><ele></ele><time>2014-4-5T15:31:11Z</time></trkpt>
<trkpt lat="43.852372" lon="5.435042"><ele></ele><time>2014-4-5T15:31:14Z</time></trkpt>
<trkpt lat="43.852242" lon="5.435112"><ele></ele><time>2014-4-5T15:31:17Z</time></trkpt>
<trkpt lat="43.852112" lon="5.435192"><ele></ele><time>2014-4-5T15:31:20Z</time></trkpt>
<trkpt lat="43.851987" lon="5.435278"><ele></ele><time>2014-4-5T15:31:23Z</time></trkpt>
<trkpt lat="43.851860" lon="5.435380"><ele></ele><time>2014-4-5T15:31:26Z</time></trkpt>
<trkpt lat="43.851733" lon="5.435483"><ele></ele><time>2014-4-5T15:31:29Z</time></trkpt>
<trkpt lat="43.851605" lon="5.435595"><ele></ele><time>2014-4-5T15:31:32Z</time></trkpt>
<trkpt lat="43.851463" lon="5.435717"><ele></ele><time>2014-4-5T15:31:35Z</time></trkpt>
<trkpt lat="43.851318" lon="5.435848"><ele></ele><time>2014-4-5T15:31:38Z</time></trkpt>
<trkpt lat="43.851165" lon="5.435980"><ele></ele><time>2014-4-5T15:31:41Z</time></trkpt>
<trkpt lat="43.851005" lon="5.436115"><ele></ele><time>2014-4-5T15:31:44Z</time></trkpt>
<trkpt lat="43.850848" lon="5.436248"><ele></ele><time>2014-4-5T15:31:47Z</time></trkpt>
<trkpt lat="43.850697" lon="5.436383"><ele></ele><time>2014-4-5T15:31:50Z</time></trkpt>
<trkpt lat="43.850543" lon="5.436518"><ele></ele><time>2014-4-5T15:31:53Z</time></trkpt>
<trkpt lat="43.850383" lon="5.436655"><ele></ele><time>2014-4-5T15:31:56Z</time></trkpt>
<trkpt lat="43.850235" lon="5.436783"><ele></ele><time>2014-4-5T15:31:59Z</time></trkpt>
<trkpt lat="43.850090" lon="5.436913"><ele></ele><time>2014-4-5T15:32:2Z</time></trkpt>
<trkpt lat="43.849945" lon="5.437033"><ele></ele><time>2014-4-5T15:32:5Z</time></trkpt>
<trkpt lat="43.849812" lon="5.437152"><ele></ele><time>2014-4-5T15:32:8Z</time></trkpt>
<trkpt lat="43.849678" lon="5.437265"><ele></ele><time>2014-4-5T15:32:11Z</time></trkpt>
<trkpt lat="43.849552" lon="5.437372"><ele></ele><time>2014-4-5T15:32:14Z</time></trkpt>
<trkpt lat="43.849438" lon="5.437473"><ele></ele><time>2014-4-5T15:32:17Z</time></trkpt>
<trkpt lat="43.849320" lon="5.437572"><ele></ele><time>2014-4-5T15:32:20Z</time></trkpt>
<trkpt lat="43.849208" lon="5.437672"><ele></ele><time>2014-4-5T15:32:23Z</time></trkpt>
<trkpt lat="43.849090" lon="5.437772"><ele></ele><time>2014-4-5T15:32:26Z</time></trkpt>
<trkpt lat="43.848972" lon="5.437872"><ele></ele><time>2014-4-5T15:32:29Z</time></trkpt>
<trkpt lat="43.848853" lon="5.437973"><ele></ele><time>2014-4-5T15:32:32Z</time></trkpt>
<trkpt lat="43.848743" lon="5.438073"><ele></ele><time>2014-4-5T15:32:35Z</time></trkpt>
<trkpt lat="43.848622" lon="5.438172"><ele></ele><time>2014-4-5T15:32:38Z</time></trkpt>
<trkpt lat="43.848500" lon="5.438272"><ele></ele><time>2014-4-5T15:32:41Z</time></trkpt>
<trkpt lat="43.848385" lon="5.438372"><ele></ele><time>2014-4-5T15:32:44Z</time></trkpt>
<trkpt lat="43.848263" lon="5.438472"><ele></ele><time>2014-4-5T15:32:47Z</time></trkpt>
<trkpt lat="43.848145" lon="5.438572"><ele></ele><time>2014-4-5T15:32:50Z</time></trkpt>
<trkpt lat="43.848030" lon="5.438660"><ele></ele><time>2014-4-5T15:32:53Z</time></trkpt>
<trkpt lat="43.847908" lon="5.438748"><ele></ele><time>2014-4-5T15:32:56Z</time></trkpt>
<trkpt lat="43.847787" lon="5.438827"><ele></ele><time>2014-4-5T15:32:59Z</time></trkpt>
<trkpt lat="43.847648" lon="5.438870"><ele></ele><time>2014-4-5T15:33:2Z</time></trkpt>
<trkpt lat="43.847515" lon="5.438862"><ele></ele><time>2014-4-5T15:33:5Z</time></trkpt>
<trkpt lat="43.847390" lon="5.438807"><ele></ele><time>2014-4-5T15:33:8Z</time></trkpt>
<trkpt lat="43.847278" lon="5.438728"><ele></ele><time>2014-4-5T15:33:11Z</time></trkpt>
<trkpt lat="43.847168" lon="5.438650"><ele></ele><time>2014-4-5T15:33:14Z</time></trkpt>
<trkpt lat="43.847053" lon="5.438572"><ele></ele><time>2014-4-5T15:33:17Z</time></trkpt>
<trkpt lat="43.846932" lon="5.438520"><ele></ele><time>2014-4-5T15:33:20Z</time></trkpt>
<trkpt lat="43.846802" lon="5.438532"><ele></ele><time>2014-4-5T15:33:23Z</time></trkpt>
<trkpt lat="43.846677" lon="5.438583"><ele></ele><time>2014-4-5T15:33:26Z</time></trkpt>
<trkpt lat="43.846562" lon="5.438647"><ele></ele><time>2014-4-5T15:33:29Z</time></trkpt>
<trkpt lat="43.846440" lon="5.438713"><ele></ele><time>2014-4-5T15:33:32Z</time></trkpt>
<trkpt lat="43.846325" lon="5.438780"><ele></ele><time>2014-4-5T15:33:35Z</time></trkpt>
<trkpt lat="43.846207" lon="5.438847"><ele></ele><time>2014-4-5T15:33:38Z</time></trkpt>
<trkpt lat="43.846097" lon="5.438912"><ele></ele><time>2014-4-5T15:33:41Z</time></trkpt>
<trkpt lat="43.845982" lon="5.438975"><ele></ele><time>2014-4-5T15:33:44Z</time></trkpt>
<trkpt lat="43.845863" lon="5.439040"><ele></ele><time>2014-4-5T15:33:47Z</time></trkpt>
<trkpt lat="43.845753" lon="5.439088"><ele></ele><time>2014-4-5T15:33:50Z</time></trkpt>
<trkpt lat="43.845638" lon="5.439125"><ele></ele><time>2014-4-5T15:33:53Z</time></trkpt>
<trkpt lat="43.845520" lon="5.439165"><ele></ele><time>2014-4-5T15:33:56Z</time></trkpt>
<trkpt lat="43.845410" lon="5.439222"><ele></ele><time>2014-4-5T15:33:59Z</time></trkpt>
<trkpt lat="43.845310" lon="5.439323"><ele></ele><time>2014-4-5T15:34:2Z</time></trkpt>
<trkpt lat="43.845233" lon="5.439485"><ele></ele><time>2014-4-5T15:34:5Z</time></trkpt>
<trkpt lat="43.845153" lon="5.439667"><ele></ele><time>2014-4-5T15:34:8Z</time></trkpt>
<trkpt lat="43.845032" lon="5.439813"><ele></ele><time>2014-4-5T15:34:11Z</time></trkpt>
<trkpt lat="43.844890" lon="5.439902"><ele></ele><time>2014-4-5T15:34:14Z</time></trkpt>
<trkpt lat="43.844738" lon="5.439988"><ele></ele><time>2014-4-5T15:34:17Z</time></trkpt>
<trkpt lat="43.844573" lon="5.440102"><ele></ele><time>2014-4-5T15:34:20Z</time></trkpt>
<trkpt lat="43.844402" lon="5.440240"><ele></ele><time>2014-4-5T15:34:23Z</time></trkpt>
<trkpt lat="43.844230" lon="5.440378"><ele></ele><time>2014-4-5T15:34:26Z</time></trkpt>
<trkpt lat="43.844063" lon="5.440520"><ele></ele><time>2014-4-5T15:34:29Z</time></trkpt>
<trkpt lat="43.843907" lon="5.440670"><ele></ele><time>2014-4-5T15:34:32Z</time></trkpt>
<trkpt lat="43.843780" lon="5.440870"><ele></ele><time>2014-4-5T15:34:35Z</time></trkpt>
<trkpt lat="43.843697" lon="5.441115"><ele></ele><time>2014-4-5T15:34:38Z</time></trkpt>
<trkpt lat="43.843628" lon="5.441367"><ele></ele><time>2014-4-5T15:34:41Z</time></trkpt>
<trkpt lat="43.843555" lon="5.441602"><ele></ele><time>2014-4-5T15:34:44Z</time></trkpt>
<trkpt lat="43.843487" lon="5.441837"><ele></ele><time>2014-4-5T15:34:47Z</time></trkpt>
<trkpt lat="43.843415" lon="5.442077"><ele></ele><time>2014-4-5T15:34:50Z</time></trkpt>
<trkpt lat="43.843342" lon="5.442308"><ele></ele><time>2014-4-5T15:34:53Z</time></trkpt>
<trkpt lat="43.843270" lon="5.442553"><ele></ele><time>2014-4-5T15:34:56Z</time></trkpt>
<trkpt lat="43.843212" lon="5.442758"><ele></ele><time>2014-4-5T15:34:59Z</time></trkpt>
<trkpt lat="43.843147" lon="5.442985"><ele></ele><time>2014-4-5T15:35:2Z</time></trkpt>
<trkpt lat="43.843108" lon="5.443248"><ele></ele><time>2014-4-5T15:35:5Z</time></trkpt>
<trkpt lat="43.843090" lon="5.443533"><ele></ele><time>2014-4-5T15:35:8Z</time></trkpt>
<trkpt lat="43.843090" lon="5.443848"><ele></ele><time>2014-4-5T15:35:11Z</time></trkpt>
<trkpt lat="43.843063" lon="5.444183"><ele></ele><time>2014-4-5T15:35:14Z</time></trkpt>
<trkpt lat="43.843007" lon="5.444513"><ele></ele><time>2014-4-5T15:35:17Z</time></trkpt>
<trkpt lat="43.842942" lon="5.444823"><ele></ele><time>2014-4-5T15:35:20Z</time></trkpt>
<trkpt lat="43.842883" lon="5.445135"><ele></ele><time>2014-4-5T15:35:23Z</time></trkpt>
<trkpt lat="43.842857" lon="5.445458"><ele></ele><time>2014-4-5T15:35:26Z</time></trkpt>
<trkpt lat="43.842857" lon="5.445780"><ele></ele><time>2014-4-5T15:35:29Z</time></trkpt>
<trkpt lat="43.842883" lon="5.446103"><ele></ele><time>2014-4-5T15:35:32Z</time></trkpt>
<trkpt lat="43.842948" lon="5.446438"><ele></ele><time>2014-4-5T15:35:35Z</time></trkpt>
<trkpt lat="43.843028" lon="5.446778"><ele></ele><time>2014-4-5T15:35:38Z</time></trkpt>
<trkpt lat="43.843090" lon="5.447123"><ele></ele><time>2014-4-5T15:35:41Z</time></trkpt>
<trkpt lat="43.843102" lon="5.447490"><ele></ele><time>2014-4-5T15:35:44Z</time></trkpt>
<trkpt lat="43.843055" lon="5.447860"><ele></ele><time>2014-4-5T15:35:47Z</time></trkpt>
<trkpt lat="43.843010" lon="5.448212"><ele></ele><time>2014-4-5T15:35:50Z</time></trkpt>
<trkpt lat="43.842960" lon="5.448543"><ele></ele><time>2014-4-5T15:35:53Z</time></trkpt>
<trkpt lat="43.842915" lon="5.448875"><ele></ele><time>2014-4-5T15:35:56Z</time></trkpt>
<trkpt lat="43.842873" lon="5.449198"><ele></ele><time>2014-4-5T15:35:59Z</time></trkpt>
<trkpt lat="43.842823" lon="5.449520"><ele></ele><time>2014-4-5T15:36:2Z</time></trkpt>
<trkpt lat="43.842773" lon="5.449842"><ele></ele><time>2014-4-5T15:36:5Z</time></trkpt>
<trkpt lat="43.842743" lon="5.450180"><ele></ele><time>2014-4-5T15:36:8Z</time></trkpt>
<trkpt lat="43.842758" lon="5.450518"><ele></ele><time>2014-4-5T15:36:11Z</time></trkpt>
<trkpt lat="43.842820" lon="5.450853"><ele></ele><time>2014-4-5T15:36:14Z</time></trkpt>
<trkpt lat="43.842883" lon="5.451183"><ele></ele><time>2014-4-5T15:36:17Z</time></trkpt>
<trkpt lat="43.842948" lon="5.451508"><ele></ele><time>2014-4-5T15:36:20Z</time></trkpt>
<trkpt lat="43.843013" lon="5.451840"><ele></ele><time>2014-4-5T15:36:23Z</time></trkpt>
<trkpt lat="43.843078" lon="5.452165"><ele></ele><time>2014-4-5T15:36:26Z</time></trkpt>
<trkpt lat="43.843143" lon="5.452497"><ele></ele><time>2014-4-5T15:36:29Z</time></trkpt>
<trkpt lat="43.843137" lon="5.452850"><ele></ele><time>2014-4-5T15:36:32Z</time></trkpt>
<trkpt lat="43.843075" lon="5.453187"><ele></ele><time>2014-4-5T15:36:35Z</time></trkpt>
<trkpt lat="43.842998" lon="5.453517"><ele></ele><time>2014-4-5T15:36:38Z</time></trkpt>
<trkpt lat="43.842918" lon="5.453860"><ele></ele><time>2014-4-5T15:36:41Z</time></trkpt>
<trkpt lat="43.842838" lon="5.454220"><ele></ele><time>2014-4-5T15:36:44Z</time></trkpt>
<trkpt lat="43.842750" lon="5.454613"><ele></ele><time>2014-4-5T15:36:47Z</time></trkpt>
<trkpt lat="43.842655" lon="5.455020"><ele></ele><time>2014-4-5T15:36:50Z</time></trkpt>
<trkpt lat="43.842560" lon="5.455425"><ele></ele><time>2014-4-5T15:36:53Z</time></trkpt>
<trkpt lat="43.842407" lon="5.455813"><ele></ele><time>2014-4-5T15:36:56Z</time></trkpt>
<trkpt lat="43.842170" lon="5.456147"><ele></ele><time>2014-4-5T15:36:59Z</time></trkpt>
<trkpt lat="43.841918" lon="5.456467"><ele></ele><time>2014-4-5T15:37:2Z</time></trkpt>
<trkpt lat="43.841660" lon="5.456755"><ele></ele><time>2014-4-5T15:37:5Z</time></trkpt>
<trkpt lat="43.841335" lon="5.456795"><ele></ele><time>2014-4-5T15:37:8Z</time></trkpt>
<trkpt lat="43.841053" lon="5.456607"><ele></ele><time>2014-4-5T15:37:11Z</time></trkpt>
<trkpt lat="43.840888" lon="5.456368"><ele></ele><time>2014-4-5T15:37:14Z</time></trkpt>
<trkpt lat="43.840867" lon="5.456147"><ele></ele><time>2014-4-5T15:37:17Z</time></trkpt>
<trkpt lat="43.840858" lon="5.456008"><ele></ele><time>2014-4-5T15:37:20Z</time></trkpt>
<trkpt lat="43.840832" lon="5.455878"><ele></ele><time>2014-4-5T15:37:23Z</time></trkpt>
<trkpt lat="43.840847" lon="5.455753"><ele></ele><time>2014-4-5T15:37:26Z</time></trkpt>
<trkpt lat="43.840873" lon="5.455635"><ele></ele><time>2014-4-5T15:37:29Z</time></trkpt>
<trkpt lat="43.840870" lon="5.455523"><ele></ele><time>2014-4-5T15:37:32Z</time></trkpt>
<trkpt lat="43.840840" lon="5.455422"><ele></ele><time>2014-4-5T15:37:35Z</time></trkpt>
<trkpt lat="43.840770" lon="5.455345"><ele></ele><time>2014-4-5T15:37:38Z</time></trkpt>
<trkpt lat="43.840687" lon="5.455297"><ele></ele><time>2014-4-5T15:37:41Z</time></trkpt>
<trkpt lat="43.840603" lon="5.455273"><ele></ele><time>2014-4-5T15:37:44Z</time></trkpt>
<trkpt lat="43.840527" lon="5.455255"><ele></ele><time>2014-4-5T15:37:47Z</time></trkpt>
<trkpt lat="43.840443" lon="5.455233"><ele></ele><time>2014-4-5T15:37:50Z</time></trkpt>
<trkpt lat="43.840363" lon="5.455207"><ele></ele><time>2014-4-5T15:37:53Z</time></trkpt>
<trkpt lat="43.840282" lon="5.455178"><ele></ele><time>2014-4-5T15:37:56Z</time></trkpt>
<trkpt lat="43.840207" lon="5.455150"><ele></ele><time>2014-4-5T15:37:59Z</time></trkpt>
<trkpt lat="43.840130" lon="5.455160"><ele></ele><time>2014-4-5T15:38:2Z</time></trkpt>
<trkpt lat="43.840057" lon="5.455137"><ele></ele><time>2014-4-5T15:38:5Z</time></trkpt>
<trkpt lat="43.839982" lon="5.455122"><ele></ele><time>2014-4-5T15:38:8Z</time></trkpt>
<trkpt lat="43.839902" lon="5.455100"><ele></ele><time>2014-4-5T15:38:11Z</time></trkpt>
<trkpt lat="43.839825" lon="5.455067"><ele></ele><time>2014-4-5T15:38:14Z</time></trkpt>
<trkpt lat="43.839757" lon="5.455028"><ele></ele><time>2014-4-5T15:38:17Z</time></trkpt>
<trkpt lat="43.839687" lon="5.454992"><ele></ele><time>2014-4-5T15:38:20Z</time></trkpt>
<trkpt lat="43.839615" lon="5.454945"><ele></ele><time>2014-4-5T15:38:23Z</time></trkpt>
<trkpt lat="43.839547" lon="5.454893"><ele></ele><time>2014-4-5T15:38:26Z</time></trkpt>
<trkpt lat="43.839473" lon="5.454848"><ele></ele><time>2014-4-5T15:38:29Z</time></trkpt>
<trkpt lat="43.839402" lon="5.454795"><ele></ele><time>2014-4-5T15:38:32Z</time></trkpt>
<trkpt lat="43.839328" lon="5.454743"><ele></ele><time>2014-4-5T15:38:35Z</time></trkpt>
<trkpt lat="43.839248" lon="5.454690"><ele></ele><time>2014-4-5T15:38:38Z</time></trkpt>
<trkpt lat="43.839177" lon="5.454638"><ele></ele><time>2014-4-5T15:38:41Z</time></trkpt>
<trkpt lat="43.839103" lon="5.454593"><ele></ele><time>2014-4-5T15:38:44Z</time></trkpt>
<trkpt lat="43.839027" lon="5.454552"><ele></ele><time>2014-4-5T15:38:47Z</time></trkpt>
<trkpt lat="43.838947" lon="5.454508"><ele></ele><time>2014-4-5T15:38:50Z</time></trkpt>
<trkpt lat="43.838875" lon="5.454468"><ele></ele><time>2014-4-5T15:38:53Z</time></trkpt>
<trkpt lat="43.838798" lon="5.454423"><ele></ele><time>2014-4-5T15:38:56Z</time></trkpt>
<trkpt lat="43.838718" lon="5.454380"><ele></ele><time>2014-4-5T15:38:59Z</time></trkpt>
<trkpt lat="43.838647" lon="5.454335"><ele></ele><time>2014-4-5T15:39:2Z</time></trkpt>
<trkpt lat="43.838573" lon="5.454278"><ele></ele><time>2014-4-5T15:39:5Z</time></trkpt>
<trkpt lat="43.838502" lon="5.454235"><ele></ele><time>2014-4-5T15:39:8Z</time></trkpt>
<trkpt lat="43.838425" lon="5.454197"><ele></ele><time>2014-4-5T15:39:11Z</time></trkpt>
<trkpt lat="43.838345" lon="5.454153"><ele></ele><time>2014-4-5T15:39:14Z</time></trkpt>
<trkpt lat="43.838265" lon="5.454110"><ele></ele><time>2014-4-5T15:39:17Z</time></trkpt>
<trkpt lat="43.838185" lon="5.454082"><ele></ele><time>2014-4-5T15:39:20Z</time></trkpt>
<trkpt lat="43.838105" lon="5.454028"><ele></ele><time>2014-4-5T15:39:23Z</time></trkpt>
<trkpt lat="43.838028" lon="5.453982"><ele></ele><time>2014-4-5T15:39:26Z</time></trkpt>
<trkpt lat="43.837948" lon="5.453938"><ele></ele><time>2014-4-5T15:39:29Z</time></trkpt>
<trkpt lat="43.837863" lon="5.453907"><ele></ele><time>2014-4-5T15:39:32Z</time></trkpt>
<trkpt lat="43.837783" lon="5.453880"><ele></ele><time>2014-4-5T15:39:35Z</time></trkpt>
<trkpt lat="43.837700" lon="5.453862"><ele></ele><time>2014-4-5T15:39:38Z</time></trkpt>
<trkpt lat="43.837617" lon="5.453830"><ele></ele><time>2014-4-5T15:39:41Z</time></trkpt>
<trkpt lat="43.837537" lon="5.453787"><ele></ele><time>2014-4-5T15:39:44Z</time></trkpt>
<trkpt lat="43.837452" lon="5.453743"><ele></ele><time>2014-4-5T15:39:47Z</time></trkpt>
<trkpt lat="43.837368" lon="5.453710"><ele></ele><time>2014-4-5T15:39:50Z</time></trkpt>
<trkpt lat="43.837283" lon="5.453672"><ele></ele><time>2014-4-5T15:39:53Z</time></trkpt>
<trkpt lat="43.837197" lon="5.453653"><ele></ele><time>2014-4-5T15:39:56Z</time></trkpt>
<trkpt lat="43.837108" lon="5.453642"><ele></ele><time>2014-4-5T15:39:59Z</time></trkpt>
<trkpt lat="43.837017" lon="5.453637"><ele></ele><time>2014-4-5T15:40:2Z</time></trkpt>
<trkpt lat="43.836925" lon="5.453618"><ele></ele><time>2014-4-5T15:40:5Z</time></trkpt>
<trkpt lat="43.836838" lon="5.453590"><ele></ele><time>2014-4-5T15:40:8Z</time></trkpt>
<trkpt lat="43.836753" lon="5.453557"><ele></ele><time>2014-4-5T15:40:11Z</time></trkpt>
<trkpt lat="43.836662" lon="5.453547"><ele></ele><time>2014-4-5T15:40:14Z</time></trkpt>
<trkpt lat="43.836578" lon="5.453528"><ele></ele><time>2014-4-5T15:40:17Z</time></trkpt>
<trkpt lat="43.836495" lon="5.453493"><ele></ele><time>2014-4-5T15:40:20Z</time></trkpt>
<trkpt lat="43.836415" lon="5.453447"><ele></ele><time>2014-4-5T15:40:23Z</time></trkpt>
<trkpt lat="43.836353" lon="5.453372"><ele></ele><time>2014-4-5T15:40:26Z</time></trkpt>
<trkpt lat="43.836285" lon="5.453310"><ele></ele><time>2014-4-5T15:40:29Z</time></trkpt>
<trkpt lat="43.836212" lon="5.453247"><ele></ele><time>2014-4-5T15:40:32Z</time></trkpt>
<trkpt lat="43.836140" lon="5.453183"><ele></ele><time>2014-4-5T15:40:35Z</time></trkpt>
<trkpt lat="43.836067" lon="5.453127"><ele></ele><time>2014-4-5T15:40:38Z</time></trkpt>
<trkpt lat="43.835987" lon="5.453078"><ele></ele><time>2014-4-5T15:40:41Z</time></trkpt>
<trkpt lat="43.835903" lon="5.453042"><ele></ele><time>2014-4-5T15:40:44Z</time></trkpt>
<trkpt lat="43.835812" lon="5.453022"><ele></ele><time>2014-4-5T15:40:47Z</time></trkpt>
<trkpt lat="43.835723" lon="5.452998"><ele></ele><time>2014-4-5T15:40:50Z</time></trkpt>
<trkpt lat="43.835628" lon="5.452983"><ele></ele><time>2014-4-5T15:40:53Z</time></trkpt>
<trkpt lat="43.835537" lon="5.452978"><ele></ele><time>2014-4-5T15:40:56Z</time></trkpt>
<trkpt lat="43.835445" lon="5.452990"><ele></ele><time>2014-4-5T15:40:59Z</time></trkpt>
<trkpt lat="43.835350" lon="5.453010"><ele></ele><time>2014-4-5T15:41:2Z</time></trkpt>
<trkpt lat="43.835255" lon="5.453017"><ele></ele><time>2014-4-5T15:41:5Z</time></trkpt>
<trkpt lat="43.835167" lon="5.453005"><ele></ele><time>2014-4-5T15:41:8Z</time></trkpt>
<trkpt lat="43.835080" lon="5.452978"><ele></ele><time>2014-4-5T15:41:11Z</time></trkpt>
<trkpt lat="43.834995" lon="5.452938"><ele></ele><time>2014-4-5T15:41:14Z</time></trkpt>
<trkpt lat="43.834903" lon="5.452898"><ele></ele><time>2014-4-5T15:41:17Z</time></trkpt>
<trkpt lat="43.834823" lon="5.452848"><ele></ele><time>2014-4-5T15:41:20Z</time></trkpt>
<trkpt lat="43.834740" lon="5.452793"><ele></ele><time>2014-4-5T15:41:23Z</time></trkpt>
<trkpt lat="43.834667" lon="5.452725"><ele></ele><time>2014-4-5T15:41:26Z</time></trkpt>
<trkpt lat="43.834598" lon="5.452655"><ele></ele><time>2014-4-5T15:41:29Z</time></trkpt>
<trkpt lat="43.834522" lon="5.452592"><ele></ele><time>2014-4-5T15:41:32Z</time></trkpt>
<trkpt lat="43.834450" lon="5.452532"><ele></ele><time>2014-4-5T15:41:35Z</time></trkpt>
<trkpt lat="43.834370" lon="5.452487"><ele></ele><time>2014-4-5T15:41:38Z</time></trkpt>
<trkpt lat="43.834305" lon="5.452405"><ele></ele><time>2014-4-5T15:41:41Z</time></trkpt>
<trkpt lat="43.834252" lon="5.452305"><ele></ele><time>2014-4-5T15:41:44Z</time></trkpt>
<trkpt lat="43.834202" lon="5.452217"><ele></ele><time>2014-4-5T15:41:47Z</time></trkpt>
<trkpt lat="43.834148" lon="5.452130"><ele></ele><time>2014-4-5T15:41:50Z</time></trkpt>
<trkpt lat="43.834107" lon="5.452047"><ele></ele><time>2014-4-5T15:41:53Z</time></trkpt>
<trkpt lat="43.834065" lon="5.451957"><ele></ele><time>2014-4-5T15:41:56Z</time></trkpt>
<trkpt lat="43.834012" lon="5.451875"><ele></ele><time>2014-4-5T15:41:59Z</time></trkpt>
<trkpt lat="43.833942" lon="5.451822"><ele></ele><time>2014-4-5T15:42:2Z</time></trkpt>
<trkpt lat="43.833885" lon="5.451745"><ele></ele><time>2014-4-5T15:42:5Z</time></trkpt>
<trkpt lat="43.833832" lon="5.451672"><ele></ele><time>2014-4-5T15:42:8Z</time></trkpt>
<trkpt lat="43.833787" lon="5.451593"><ele></ele><time>2014-4-5T15:42:11Z</time></trkpt>
<trkpt lat="43.833725" lon="5.451522"><ele></ele><time>2014-4-5T15:42:14Z</time></trkpt>
<trkpt lat="43.833668" lon="5.451455"><ele></ele><time>2014-4-5T15:42:17Z</time></trkpt>
<trkpt lat="43.833603" lon="5.451393"><ele></ele><time>2014-4-5T15:42:20Z</time></trkpt>
<trkpt lat="43.833542" lon="5.451328"><ele></ele><time>2014-4-5T15:42:23Z</time></trkpt>
<trkpt lat="43.833473" lon="5.451267"><ele></ele><time>2014-4-5T15:42:26Z</time></trkpt>
<trkpt lat="43.833400" lon="5.451208"><ele></ele><time>2014-4-5T15:42:29Z</time></trkpt>
<trkpt lat="43.833332" lon="5.451147"><ele></ele><time>2014-4-5T15:42:32Z</time></trkpt>
<trkpt lat="43.833267" lon="5.451090"><ele></ele><time>2014-4-5T15:42:35Z</time></trkpt>
<trkpt lat="43.833202" lon="5.451037"><ele></ele><time>2014-4-5T15:42:38Z</time></trkpt>
<trkpt lat="43.833122" lon="5.450998"><ele></ele><time>2014-4-5T15:42:41Z</time></trkpt>
<trkpt lat="43.833050" lon="5.450935"><ele></ele><time>2014-4-5T15:42:44Z</time></trkpt>
<trkpt lat="43.832988" lon="5.450853"><ele></ele><time>2014-4-5T15:42:47Z</time></trkpt>
<trkpt lat="43.832917" lon="5.450792"><ele></ele><time>2014-4-5T15:42:50Z</time></trkpt>
<trkpt lat="43.832863" lon="5.450688"><ele></ele><time>2014-4-5T15:42:53Z</time></trkpt>
<trkpt lat="43.832802" lon="5.450592"><ele></ele><time>2014-4-5T15:42:56Z</time></trkpt>
<trkpt lat="43.832740" lon="5.450483"><ele></ele><time>2014-4-5T15:42:59Z</time></trkpt>
<trkpt lat="43.832680" lon="5.450367"><ele></ele><time>2014-4-5T15:43:2Z</time></trkpt>
<trkpt lat="43.832580" lon="5.450268"><ele></ele><time>2014-4-5T15:43:5Z</time></trkpt>
<trkpt lat="43.832458" lon="5.450230"><ele></ele><time>2014-4-5T15:43:8Z</time></trkpt>
<trkpt lat="43.832325" lon="5.450253"><ele></ele><time>2014-4-5T15:43:11Z</time></trkpt>
<trkpt lat="43.832198" lon="5.450298"><ele></ele><time>2014-4-5T15:43:14Z</time></trkpt>
<trkpt lat="43.832077" lon="5.450365"><ele></ele><time>2014-4-5T15:43:17Z</time></trkpt>
<trkpt lat="43.831970" lon="5.450472"><ele></ele><time>2014-4-5T15:43:20Z</time></trkpt>
<trkpt lat="43.831875" lon="5.450590"><ele></ele><time>2014-4-5T15:43:23Z</time></trkpt>
<trkpt lat="43.831798" lon="5.450712"><ele></ele><time>2014-4-5T15:43:26Z</time></trkpt>
<trkpt lat="43.831722" lon="5.450828"><ele></ele><time>2014-4-5T15:43:29Z</time></trkpt>
<trkpt lat="43.831668" lon="5.450942"><ele></ele><time>2014-4-5T15:43:32Z</time></trkpt>
<trkpt lat="43.831608" lon="5.451047"><ele></ele><time>2014-4-5T15:43:35Z</time></trkpt>
<trkpt lat="43.831543" lon="5.451145"><ele></ele><time>2014-4-5T15:43:38Z</time></trkpt>
<trkpt lat="43.831475" lon="5.451245"><ele></ele><time>2014-4-5T15:43:41Z</time></trkpt>
<trkpt lat="43.831410" lon="5.451342"><ele></ele><time>2014-4-5T15:43:44Z</time></trkpt>
<trkpt lat="43.831345" lon="5.451442"><ele></ele><time>2014-4-5T15:43:47Z</time></trkpt>
<trkpt lat="43.831283" lon="5.451555"><ele></ele><time>2014-4-5T15:43:50Z</time></trkpt>
<trkpt lat="43.831238" lon="5.451682"><ele></ele><time>2014-4-5T15:43:53Z</time></trkpt>
<trkpt lat="43.831180" lon="5.451808"><ele></ele><time>2014-4-5T15:43:56Z</time></trkpt>
<trkpt lat="43.831120" lon="5.451940"><ele></ele><time>2014-4-5T15:43:59Z</time></trkpt>
<trkpt lat="43.831043" lon="5.452033"><ele></ele><time>2014-4-5T15:44:2Z</time></trkpt>
<trkpt lat="43.830952" lon="5.452088"><ele></ele><time>2014-4-5T15:44:5Z</time></trkpt>
<trkpt lat="43.830863" lon="5.452125"><ele></ele><time>2014-4-5T15:44:8Z</time></trkpt>
<trkpt lat="43.830772" lon="5.452145"><ele></ele><time>2014-4-5T15:44:11Z</time></trkpt>
<trkpt lat="43.830677" lon="5.452155"><ele></ele><time>2014-4-5T15:44:14Z</time></trkpt>
<trkpt lat="43.830573" lon="5.452137"><ele></ele><time>2014-4-5T15:44:17Z</time></trkpt>
<trkpt lat="43.830478" lon="5.452083"><ele></ele><time>2014-4-5T15:44:20Z</time></trkpt>
<trkpt lat="43.830395" lon="5.452007"><ele></ele><time>2014-4-5T15:44:23Z</time></trkpt>
<trkpt lat="43.830318" lon="5.451905"><ele></ele><time>2014-4-5T15:44:26Z</time></trkpt>
<trkpt lat="43.830262" lon="5.451783"><ele></ele><time>2014-4-5T15:44:29Z</time></trkpt>
<trkpt lat="43.830215" lon="5.451652"><ele></ele><time>2014-4-5T15:44:32Z</time></trkpt>
<trkpt lat="43.830167" lon="5.451532"><ele></ele><time>2014-4-5T15:44:35Z</time></trkpt>
<trkpt lat="43.830105" lon="5.451415"><ele></ele><time>2014-4-5T15:44:38Z</time></trkpt>
<trkpt lat="43.830048" lon="5.451297"><ele></ele><time>2014-4-5T15:44:41Z</time></trkpt>
<trkpt lat="43.830002" lon="5.451173"><ele></ele><time>2014-4-5T15:44:44Z</time></trkpt>
<trkpt lat="43.829960" lon="5.451042"><ele></ele><time>2014-4-5T15:44:47Z</time></trkpt>
<trkpt lat="43.829940" lon="5.450898"><ele></ele><time>2014-4-5T15:44:50Z</time></trkpt>
<trkpt lat="43.829937" lon="5.450755"><ele></ele><time>2014-4-5T15:44:53Z</time></trkpt>
<trkpt lat="43.829918" lon="5.450637"><ele></ele><time>2014-4-5T15:44:56Z</time></trkpt>
<trkpt lat="43.829907" lon="5.450523"><ele></ele><time>2014-4-5T15:44:59Z</time></trkpt>
<trkpt lat="43.829907" lon="5.450407"><ele></ele><time>2014-4-5T15:45:2Z</time></trkpt>
<trkpt lat="43.829940" lon="5.450297"><ele></ele><time>2014-4-5T15:45:5Z</time></trkpt>
<trkpt lat="43.829957" lon="5.450180"><ele></ele><time>2014-4-5T15:45:8Z</time></trkpt>
<trkpt lat="43.829940" lon="5.450075"><ele></ele><time>2014-4-5T15:45:11Z</time></trkpt>
<trkpt lat="43.829880" lon="5.449997"><ele></ele><time>2014-4-5T15:45:14Z</time></trkpt>
<trkpt lat="43.829803" lon="5.449968"><ele></ele><time>2014-4-5T15:45:17Z</time></trkpt>
<trkpt lat="43.829720" lon="5.450042"><ele></ele><time>2014-4-5T15:45:20Z</time></trkpt>
<trkpt lat="43.829667" lon="5.450163"><ele></ele><time>2014-4-5T15:45:23Z</time></trkpt>
<trkpt lat="43.829632" lon="5.450290"><ele></ele><time>2014-4-5T15:45:26Z</time></trkpt>
<trkpt lat="43.829620" lon="5.450428"><ele></ele><time>2014-4-5T15:45:29Z</time></trkpt>
<trkpt lat="43.829613" lon="5.450568"><ele></ele><time>2014-4-5T15:45:32Z</time></trkpt>
<trkpt lat="43.829608" lon="5.450708"><ele></ele><time>2014-4-5T15:45:35Z</time></trkpt>
<trkpt lat="43.829602" lon="5.450843"><ele></ele><time>2014-4-5T15:45:38Z</time></trkpt>
<trkpt lat="43.829602" lon="5.450977"><ele></ele><time>2014-4-5T15:45:41Z</time></trkpt>
<trkpt lat="43.829597" lon="5.451103"><ele></ele><time>2014-4-5T15:45:44Z</time></trkpt>
<trkpt lat="43.829563" lon="5.451220"><ele></ele><time>2014-4-5T15:45:47Z</time></trkpt>
<trkpt lat="43.829517" lon="5.451323"><ele></ele><time>2014-4-5T15:45:50Z</time></trkpt>
<trkpt lat="43.829457" lon="5.451415"><ele></ele><time>2014-4-5T15:45:53Z</time></trkpt>
<trkpt lat="43.829395" lon="5.451507"><ele></ele><time>2014-4-5T15:45:56Z</time></trkpt>
<trkpt lat="43.829330" lon="5.451593"><ele></ele><time>2014-4-5T15:45:59Z</time></trkpt>
<trkpt lat="43.829282" lon="5.451688"><ele></ele><time>2014-4-5T15:46:2Z</time></trkpt>
<trkpt lat="43.829238" lon="5.451797"><ele></ele><time>2014-4-5T15:46:5Z</time></trkpt>
<trkpt lat="43.829197" lon="5.451898"><ele></ele><time>2014-4-5T15:46:8Z</time></trkpt>
<trkpt lat="43.829158" lon="5.452000"><ele></ele><time>2014-4-5T15:46:11Z</time></trkpt>
<trkpt lat="43.829120" lon="5.452100"><ele></ele><time>2014-4-5T15:46:14Z</time></trkpt>
<trkpt lat="43.829078" lon="5.452200"><ele></ele><time>2014-4-5T15:46:17Z</time></trkpt>
<trkpt lat="43.829033" lon="5.452298"><ele></ele><time>2014-4-5T15:46:20Z</time></trkpt>
<trkpt lat="43.828995" lon="5.452405"><ele></ele><time>2014-4-5T15:46:23Z</time></trkpt>
<trkpt lat="43.828960" lon="5.452513"><ele></ele><time>2014-4-5T15:46:26Z</time></trkpt>
<trkpt lat="43.828930" lon="5.452625"><ele></ele><time>2014-4-5T15:46:29Z</time></trkpt>
<trkpt lat="43.828895" lon="5.452733"><ele></ele><time>2014-4-5T15:46:32Z</time></trkpt>
<trkpt lat="43.828868" lon="5.452842"><ele></ele><time>2014-4-5T15:46:35Z</time></trkpt>
<trkpt lat="43.828847" lon="5.452955"><ele></ele><time>2014-4-5T15:46:38Z</time></trkpt>
<trkpt lat="43.828823" lon="5.453073"><ele></ele><time>2014-4-5T15:46:41Z</time></trkpt>
<trkpt lat="43.828808" lon="5.453192"><ele></ele><time>2014-4-5T15:46:44Z</time></trkpt>
<trkpt lat="43.828823" lon="5.453312"><ele></ele><time>2014-4-5T15:46:47Z</time></trkpt>
<trkpt lat="43.828835" lon="5.453427"><ele></ele><time>2014-4-5T15:46:50Z</time></trkpt>
<trkpt lat="43.828803" lon="5.453538"><ele></ele><time>2014-4-5T15:46:53Z</time></trkpt>
<trkpt lat="43.828735" lon="5.453618"><ele></ele><time>2014-4-5T15:46:56Z</time></trkpt>
<trkpt lat="43.828655" lon="5.453618"><ele></ele><time>2014-4-5T15:46:59Z</time></trkpt>
<trkpt lat="43.828583" lon="5.453558"><ele></ele><time>2014-4-5T15:47:2Z</time></trkpt>
<trkpt lat="43.828552" lon="5.453457"><ele></ele><time>2014-4-5T15:47:5Z</time></trkpt>
<trkpt lat="43.828545" lon="5.453332"><ele></ele><time>2014-4-5T15:47:8Z</time></trkpt>
<trkpt lat="43.828563" lon="5.453205"><ele></ele><time>2014-4-5T15:47:11Z</time></trkpt>
<trkpt lat="43.828572" lon="5.453085"><ele></ele><time>2014-4-5T15:47:14Z</time></trkpt>
<trkpt lat="43.828583" lon="5.452963"><ele></ele><time>2014-4-5T15:47:17Z</time></trkpt>
<trkpt lat="43.828578" lon="5.452837"><ele></ele><time>2014-4-5T15:47:20Z</time></trkpt>
<trkpt lat="43.828537" lon="5.452728"><ele></ele><time>2014-4-5T15:47:23Z</time></trkpt>
<trkpt lat="43.828477" lon="5.452632"><ele></ele><time>2014-4-5T15:47:26Z</time></trkpt>
<trkpt lat="43.828418" lon="5.452535"><ele></ele><time>2014-4-5T15:47:29Z</time></trkpt>
<trkpt lat="43.828373" lon="5.452428"><ele></ele><time>2014-4-5T15:47:32Z</time></trkpt>
<trkpt lat="43.828327" lon="5.452318"><ele></ele><time>2014-4-5T15:47:35Z</time></trkpt>
<trkpt lat="43.828270" lon="5.452225"><ele></ele><time>2014-4-5T15:47:38Z</time></trkpt>
<trkpt lat="43.828187" lon="5.452177"><ele></ele><time>2014-4-5T15:47:41Z</time></trkpt>
<trkpt lat="43.828102" lon="5.452202"><ele></ele><time>2014-4-5T15:47:44Z</time></trkpt>
<trkpt lat="43.828057" lon="5.452313"><ele></ele><time>2014-4-5T15:47:47Z</time></trkpt>
<trkpt lat="43.828080" lon="5.452453"><ele></ele><time>2014-4-5T15:47:50Z</time></trkpt>
<trkpt lat="43.828140" lon="5.452570"><ele></ele><time>2014-4-5T15:47:53Z</time></trkpt>
<trkpt lat="43.828205" lon="5.452672"><ele></ele><time>2014-4-5T15:47:56Z</time></trkpt>
<trkpt lat="43.828270" lon="5.452772"><ele></ele><time>2014-4-5T15:47:59Z</time></trkpt>
<trkpt lat="43.828315" lon="5.452887"><ele></ele><time>2014-4-5T15:48:2Z</time></trkpt>
<trkpt lat="43.828335" lon="5.453015"><ele></ele><time>2014-4-5T15:48:5Z</time></trkpt>
<trkpt lat="43.828327" lon="5.453143"><ele></ele><time>2014-4-5T15:48:8Z</time></trkpt>
<trkpt lat="43.828308" lon="5.453267"><ele></ele><time>2014-4-5T15:48:11Z</time></trkpt>
<trkpt lat="43.828278" lon="5.453387"><ele></ele><time>2014-4-5T15:48:14Z</time></trkpt>
<trkpt lat="43.828243" lon="5.453502"><ele></ele><time>2014-4-5T15:48:17Z</time></trkpt>
<trkpt lat="43.828228" lon="5.453625"><ele></ele><time>2014-4-5T15:48:20Z</time></trkpt>
<trkpt lat="43.828217" lon="5.453748"><ele></ele><time>2014-4-5T15:48:23Z</time></trkpt>
<trkpt lat="43.828217" lon="5.453870"><ele></ele><time>2014-4-5T15:48:26Z</time></trkpt>
<trkpt lat="43.828228" lon="5.453990"><ele></ele><time>2014-4-5T15:48:29Z</time></trkpt>
<trkpt lat="43.828247" lon="5.454113"><ele></ele><time>2014-4-5T15:48:32Z</time></trkpt>
<trkpt lat="43.828270" lon="5.454233"><ele></ele><time>2014-4-5T15:48:35Z</time></trkpt>
<trkpt lat="43.828308" lon="5.454338"><ele></ele><time>2014-4-5T15:48:38Z</time></trkpt>
<trkpt lat="43.828347" lon="5.454438"><ele></ele><time>2014-4-5T15:48:41Z</time></trkpt>
<trkpt lat="43.828353" lon="5.454555"><ele></ele><time>2014-4-5T15:48:44Z</time></trkpt>
<trkpt lat="43.828305" lon="5.454648"><ele></ele><time>2014-4-5T15:48:47Z</time></trkpt>
<trkpt lat="43.828225" lon="5.454635"><ele></ele><time>2014-4-5T15:48:50Z</time></trkpt>
<trkpt lat="43.828167" lon="5.454540"><ele></ele><time>2014-4-5T15:48:53Z</time></trkpt>
<trkpt lat="43.828140" lon="5.454417"><ele></ele><time>2014-4-5T15:48:56Z</time></trkpt>
<trkpt lat="43.828117" lon="5.454295"><ele></ele><time>2014-4-5T15:48:59Z</time></trkpt>
<trkpt lat="43.828102" lon="5.454188"><ele></ele><time>2014-4-5T15:49:2Z</time></trkpt>
<trkpt lat="43.828102" lon="5.454158"><ele></ele><time>2014-4-5T15:49:5Z</time></trkpt>
<trkpt lat="43.828107" lon="5.454160"><ele></ele><time>2014-4-5T15:49:8Z</time></trkpt>
<trkpt lat="43.828102" lon="5.454153"><ele></ele><time>2014-4-5T15:49:11Z</time></trkpt>
<trkpt lat="43.828080" lon="5.454133"><ele></ele><time>2014-4-5T15:49:14Z</time></trkpt>
<trkpt lat="43.828063" lon="5.454080"><ele></ele><time>2014-4-5T15:49:17Z</time></trkpt>
<trkpt lat="43.828048" lon="5.454057"><ele></ele><time>2014-4-5T15:49:20Z</time></trkpt>
<trkpt lat="43.828048" lon="5.454065"><ele></ele><time>2014-4-5T15:49:23Z</time></trkpt>
<trkpt lat="43.828048" lon="5.454065"><ele></ele><time>2014-4-5T15:49:26Z</time></trkpt>
<trkpt lat="43.828048" lon="5.454068"><ele></ele><time>2014-4-5T15:49:29Z</time></trkpt>
<trkpt lat="43.828048" lon="5.454068"><ele></ele><time>2014-4-5T15:49:32Z</time></trkpt>
<trkpt lat="43.828048" lon="5.454068"><ele></ele><time>2014-4-5T15:49:35Z</time></trkpt>
<trkpt lat="43.828048" lon="5.454072"><ele></ele><time>2014-4-5T15:49:38Z</time></trkpt>
<trkpt lat="43.828048" lon="5.454103"><ele></ele><time>2014-4-5T15:49:41Z</time></trkpt>
<trkpt lat="43.828045" lon="5.454107"><ele></ele><time>2014-4-5T15:49:44Z</time></trkpt>
<trkpt lat="43.828045" lon="5.454107"><ele></ele><time>2014-4-5T15:49:47Z</time></trkpt>
<trkpt lat="43.828045" lon="5.454108"><ele></ele><time>2014-4-5T15:49:50Z</time></trkpt>
<trkpt lat="43.828045" lon="5.454108"><ele></ele><time>2014-4-5T15:49:53Z</time></trkpt>
<trkpt lat="43.828048" lon="5.454108"><ele></ele><time>2014-4-5T15:49:56Z</time></trkpt>
<trkpt lat="43.828048" lon="5.454108"><ele></ele><time>2014-4-5T15:49:59Z</time></trkpt>
<trkpt lat="43.828048" lon="5.454108"><ele></ele><time>2014-4-5T15:50:2Z</time></trkpt>
<trkpt lat="43.828048" lon="5.454110"><ele></ele><time>2014-4-5T15:50:5Z</time></trkpt>
<trkpt lat="43.828048" lon="5.454110"><ele></ele><time>2014-4-5T15:50:8Z</time></trkpt>
<trkpt lat="43.828048" lon="5.454110"><ele></ele><time>2014-4-5T15:50:11Z</time></trkpt>
<trkpt lat="43.828048" lon="5.454113"><ele></ele><time>2014-4-5T15:50:14Z</time></trkpt>
<trkpt lat="43.828048" lon="5.454115"><ele></ele><time>2014-4-5T15:50:17Z</time></trkpt>
<trkpt lat="43.828057" lon="5.454088"><ele></ele><time>2014-4-5T15:50:20Z</time></trkpt>
<trkpt lat="43.828048" lon="5.454072"><ele></ele><time>2014-4-5T15:50:23Z</time></trkpt>
<trkpt lat="43.828048" lon="5.454065"><ele></ele><time>2014-4-5T15:50:26Z</time></trkpt>
<trkpt lat="43.828048" lon="5.454068"><ele></ele><time>2014-4-5T15:50:29Z</time></trkpt>
<trkpt lat="43.828053" lon="5.454063"><ele></ele><time>2014-4-5T15:50:32Z</time></trkpt>
<trkpt lat="43.828053" lon="5.454065"><ele></ele><time>2014-4-5T15:50:35Z</time></trkpt>
<trkpt lat="43.828053" lon="5.454063"><ele></ele><time>2014-4-5T15:50:38Z</time></trkpt>
<trkpt lat="43.828053" lon="5.454063"><ele></ele><time>2014-4-5T15:50:41Z</time></trkpt>
<trkpt lat="43.828053" lon="5.454063"><ele></ele><time>2014-4-5T15:50:44Z</time></trkpt>
<trkpt lat="43.828053" lon="5.454063"><ele></ele><time>2014-4-5T15:50:47Z</time></trkpt>
<trkpt lat="43.828053" lon="5.454068"><ele></ele><time>2014-4-5T15:50:50Z</time></trkpt>
<trkpt lat="43.828057" lon="5.454052"><ele></ele><time>2014-4-5T15:50:53Z</time></trkpt>
<trkpt lat="43.828053" lon="5.454052"><ele></ele><time>2014-4-5T15:50:56Z</time></trkpt>
<trkpt lat="43.828053" lon="5.454037"><ele></ele><time>2014-4-5T15:50:59Z</time></trkpt>
<trkpt lat="43.828048" lon="5.454018"><ele></ele><time>2014-4-5T15:51:2Z</time></trkpt>
<trkpt lat="43.828045" lon="5.454008"><ele></ele><time>2014-4-5T15:51:5Z</time></trkpt>
<trkpt lat="43.828030" lon="5.453968"><ele></ele><time>2014-4-5T15:51:8Z</time></trkpt>
<trkpt lat="43.828030" lon="5.453955"><ele></ele><time>2014-4-5T15:51:11Z</time></trkpt>
<trkpt lat="43.828018" lon="5.453888"><ele></ele><time>2014-4-5T15:51:14Z</time></trkpt>
<trkpt lat="43.828003" lon="5.453820"><ele></ele><time>2014-4-5T15:51:17Z</time></trkpt>
<trkpt lat="43.827983" lon="5.453757"><ele></ele><time>2014-4-5T15:51:20Z</time></trkpt>
<trkpt lat="43.827957" lon="5.453685"><ele></ele><time>2014-4-5T15:51:23Z</time></trkpt>
<trkpt lat="43.827930" lon="5.453620"><ele></ele><time>2014-4-5T15:51:26Z</time></trkpt>
<trkpt lat="43.827903" lon="5.453552"><ele></ele><time>2014-4-5T15:51:29Z</time></trkpt>
<trkpt lat="43.827877" lon="5.453475"><ele></ele><time>2014-4-5T15:51:32Z</time></trkpt>
<trkpt lat="43.827850" lon="5.453383"><ele></ele><time>2014-4-5T15:51:35Z</time></trkpt>
<trkpt lat="43.827808" lon="5.453308"><ele></ele><time>2014-4-5T15:51:38Z</time></trkpt>
<trkpt lat="43.827758" lon="5.453242"><ele></ele><time>2014-4-5T15:51:41Z</time></trkpt>
<trkpt lat="43.827690" lon="5.453195"><ele></ele><time>2014-4-5T15:51:44Z</time></trkpt>
<trkpt lat="43.827618" lon="5.453177"><ele></ele><time>2014-4-5T15:51:47Z</time></trkpt>
<trkpt lat="43.827545" lon="5.453195"><ele></ele><time>2014-4-5T15:51:50Z</time></trkpt>
<trkpt lat="43.827468" lon="5.453237"><ele></ele><time>2014-4-5T15:51:53Z</time></trkpt>
<trkpt lat="43.827400" lon="5.453287"><ele></ele><time>2014-4-5T15:51:56Z</time></trkpt>
<trkpt lat="43.827332" lon="5.453347"><ele></ele><time>2014-4-5T15:51:59Z</time></trkpt>
<trkpt lat="43.827255" lon="5.453403"><ele></ele><time>2014-4-5T15:52:2Z</time></trkpt>
<trkpt lat="43.827172" lon="5.453453"><ele></ele><time>2014-4-5T15:52:5Z</time></trkpt>
<trkpt lat="43.827092" lon="5.453470"><ele></ele><time>2014-4-5T15:52:8Z</time></trkpt>
<trkpt lat="43.827007" lon="5.453448"><ele></ele><time>2014-4-5T15:52:11Z</time></trkpt>
<trkpt lat="43.826968" lon="5.453383"><ele></ele><time>2014-4-5T15:52:14Z</time></trkpt>
<trkpt lat="43.826958" lon="5.453310"><ele></ele><time>2014-4-5T15:52:17Z</time></trkpt>
<trkpt lat="43.826958" lon="5.453225"><ele></ele><time>2014-4-5T15:52:20Z</time></trkpt>
<trkpt lat="43.826973" lon="5.453132"><ele></ele><time>2014-4-5T15:52:23Z</time></trkpt>
<trkpt lat="43.827003" lon="5.453028"><ele></ele><time>2014-4-5T15:52:26Z</time></trkpt>
<trkpt lat="43.827042" lon="5.452917"><ele></ele><time>2014-4-5T15:52:29Z</time></trkpt>
<trkpt lat="43.827050" lon="5.452790"><ele></ele><time>2014-4-5T15:52:32Z</time></trkpt>
<trkpt lat="43.827023" lon="5.452663"><ele></ele><time>2014-4-5T15:52:35Z</time></trkpt>
<trkpt lat="43.826953" lon="5.452580"><ele></ele><time>2014-4-5T15:52:38Z</time></trkpt>
<trkpt lat="43.826862" lon="5.452550"><ele></ele><time>2014-4-5T15:52:41Z</time></trkpt>
<trkpt lat="43.826770" lon="5.452565"><ele></ele><time>2014-4-5T15:52:44Z</time></trkpt>
<trkpt lat="43.826680" lon="5.452605"><ele></ele><time>2014-4-5T15:52:47Z</time></trkpt>
<trkpt lat="43.826592" lon="5.452652"><ele></ele><time>2014-4-5T15:52:50Z</time></trkpt>
<trkpt lat="43.826508" lon="5.452707"><ele></ele><time>2014-4-5T15:52:53Z</time></trkpt>
<trkpt lat="43.826423" lon="5.452768"><ele></ele><time>2014-4-5T15:52:56Z</time></trkpt>
<trkpt lat="43.826340" lon="5.452810"><ele></ele><time>2014-4-5T15:52:59Z</time></trkpt>
<trkpt lat="43.826255" lon="5.452853"><ele></ele><time>2014-4-5T15:53:2Z</time></trkpt>
<trkpt lat="43.826168" lon="5.452892"><ele></ele><time>2014-4-5T15:53:5Z</time></trkpt>
<trkpt lat="43.826088" lon="5.452925"><ele></ele><time>2014-4-5T15:53:8Z</time></trkpt>
<trkpt lat="43.826003" lon="5.452965"><ele></ele><time>2014-4-5T15:53:11Z</time></trkpt>
<trkpt lat="43.825923" lon="5.453003"><ele></ele><time>2014-4-5T15:53:14Z</time></trkpt>
<trkpt lat="43.825837" lon="5.453042"><ele></ele><time>2014-4-5T15:53:17Z</time></trkpt>
<trkpt lat="43.825757" lon="5.453077"><ele></ele><time>2014-4-5T15:53:20Z</time></trkpt>
<trkpt lat="43.825672" lon="5.453110"><ele></ele><time>2014-4-5T15:53:23Z</time></trkpt>
<trkpt lat="43.825592" lon="5.453135"><ele></ele><time>2014-4-5T15:53:26Z</time></trkpt>
<trkpt lat="43.825508" lon="5.453142"><ele></ele><time>2014-4-5T15:53:29Z</time></trkpt>
<trkpt lat="43.825425" lon="5.453145"><ele></ele><time>2014-4-5T15:53:32Z</time></trkpt>
<trkpt lat="43.825340" lon="5.453130"><ele></ele><time>2014-4-5T15:53:35Z</time></trkpt>
<trkpt lat="43.825257" lon="5.453107"><ele></ele><time>2014-4-5T15:53:38Z</time></trkpt>
<trkpt lat="43.825177" lon="5.453068"><ele></ele><time>2014-4-5T15:53:41Z</time></trkpt>
<trkpt lat="43.825097" lon="5.453022"><ele></ele><time>2014-4-5T15:53:44Z</time></trkpt>
<trkpt lat="43.825020" lon="5.452972"><ele></ele><time>2014-4-5T15:53:47Z</time></trkpt>
<trkpt lat="43.824943" lon="5.452915"><ele></ele><time>2014-4-5T15:53:50Z</time></trkpt>
<trkpt lat="43.824867" lon="5.452868"><ele></ele><time>2014-4-5T15:53:53Z</time></trkpt>
<trkpt lat="43.824792" lon="5.452825"><ele></ele><time>2014-4-5T15:53:56Z</time></trkpt>
<trkpt lat="43.824707" lon="5.452792"><ele></ele><time>2014-4-5T15:53:59Z</time></trkpt>
<trkpt lat="43.824627" lon="5.452755"><ele></ele><time>2014-4-5T15:54:2Z</time></trkpt>
<trkpt lat="43.824547" lon="5.452722"><ele></ele><time>2014-4-5T15:54:5Z</time></trkpt>
<trkpt lat="43.824467" lon="5.452688"><ele></ele><time>2014-4-5T15:54:8Z</time></trkpt>
<trkpt lat="43.824387" lon="5.452648"><ele></ele><time>2014-4-5T15:54:11Z</time></trkpt>
<trkpt lat="43.824303" lon="5.452615"><ele></ele><time>2014-4-5T15:54:14Z</time></trkpt>
<trkpt lat="43.824218" lon="5.452598"><ele></ele><time>2014-4-5T15:54:17Z</time></trkpt>
<trkpt lat="43.824135" lon="5.452592"><ele></ele><time>2014-4-5T15:54:20Z</time></trkpt>
<trkpt lat="43.824055" lon="5.452550"><ele></ele><time>2014-4-5T15:54:23Z</time></trkpt>
<trkpt lat="43.824020" lon="5.452442"><ele></ele><time>2014-4-5T15:54:26Z</time></trkpt>
<trkpt lat="43.824047" lon="5.452327"><ele></ele><time>2014-4-5T15:54:29Z</time></trkpt>
<trkpt lat="43.824123" lon="5.452265"><ele></ele><time>2014-4-5T15:54:32Z</time></trkpt>
<trkpt lat="43.824212" lon="5.452240"><ele></ele><time>2014-4-5T15:54:35Z</time></trkpt>
<trkpt lat="43.824298" lon="5.452215"><ele></ele><time>2014-4-5T15:54:38Z</time></trkpt>
<trkpt lat="43.824383" lon="5.452177"><ele></ele><time>2014-4-5T15:54:41Z</time></trkpt>
<trkpt lat="43.824467" lon="5.452138"><ele></ele><time>2014-4-5T15:54:44Z</time></trkpt>
<trkpt lat="43.824547" lon="5.452097"><ele></ele><time>2014-4-5T15:54:47Z</time></trkpt>
<trkpt lat="43.824635" lon="5.452063"><ele></ele><time>2014-4-5T15:54:50Z</time></trkpt>
<trkpt lat="43.824727" lon="5.452033"><ele></ele><time>2014-4-5T15:54:53Z</time></trkpt>
<trkpt lat="43.824813" lon="5.452017"><ele></ele><time>2014-4-5T15:54:56Z</time></trkpt>
<trkpt lat="43.824902" lon="5.452012"><ele></ele><time>2014-4-5T15:54:59Z</time></trkpt>
<trkpt lat="43.824985" lon="5.452027"><ele></ele><time>2014-4-5T15:55:2Z</time></trkpt>
<trkpt lat="43.825077" lon="5.452030"><ele></ele><time>2014-4-5T15:55:5Z</time></trkpt>
<trkpt lat="43.825162" lon="5.452002"><ele></ele><time>2014-4-5T15:55:8Z</time></trkpt>
<trkpt lat="43.825242" lon="5.451882"><ele></ele><time>2014-4-5T15:55:11Z</time></trkpt>
<trkpt lat="43.825313" lon="5.451828"><ele></ele><time>2014-4-5T15:55:14Z</time></trkpt>
<trkpt lat="43.825382" lon="5.451742"><ele></ele><time>2014-4-5T15:55:17Z</time></trkpt>
<trkpt lat="43.825440" lon="5.451663"><ele></ele><time>2014-4-5T15:55:20Z</time></trkpt>
<trkpt lat="43.825505" lon="5.451590"><ele></ele><time>2014-4-5T15:55:23Z</time></trkpt>
<trkpt lat="43.825565" lon="5.451508"><ele></ele><time>2014-4-5T15:55:26Z</time></trkpt>
<trkpt lat="43.825638" lon="5.451447"><ele></ele><time>2014-4-5T15:55:29Z</time></trkpt>
<trkpt lat="43.825695" lon="5.451357"><ele></ele><time>2014-4-5T15:55:32Z</time></trkpt>
<trkpt lat="43.825730" lon="5.451257"><ele></ele><time>2014-4-5T15:55:35Z</time></trkpt>
<trkpt lat="43.825778" lon="5.451163"><ele></ele><time>2014-4-5T15:55:38Z</time></trkpt>
<trkpt lat="43.825828" lon="5.451073"><ele></ele><time>2014-4-5T15:55:41Z</time></trkpt>
<trkpt lat="43.825870" lon="5.450975"><ele></ele><time>2014-4-5T15:55:44Z</time></trkpt>
<trkpt lat="43.825920" lon="5.450873"><ele></ele><time>2014-4-5T15:55:47Z</time></trkpt>
<trkpt lat="43.825962" lon="5.450777"><ele></ele><time>2014-4-5T15:55:50Z</time></trkpt>
<trkpt lat="43.826015" lon="5.450683"><ele></ele><time>2014-4-5T15:55:53Z</time></trkpt>
<trkpt lat="43.826065" lon="5.450593"><ele></ele><time>2014-4-5T15:55:56Z</time></trkpt>
<trkpt lat="43.826122" lon="5.450503"><ele></ele><time>2014-4-5T15:55:59Z</time></trkpt>
<trkpt lat="43.826175" lon="5.450413"><ele></ele><time>2014-4-5T15:56:2Z</time></trkpt>
<trkpt lat="43.826245" lon="5.450335"><ele></ele><time>2014-4-5T15:56:5Z</time></trkpt>
<trkpt lat="43.826313" lon="5.450258"><ele></ele><time>2014-4-5T15:56:8Z</time></trkpt>
<trkpt lat="43.826382" lon="5.450185"><ele></ele><time>2014-4-5T15:56:11Z</time></trkpt>
<trkpt lat="43.826443" lon="5.450102"><ele></ele><time>2014-4-5T15:56:14Z</time></trkpt>
<trkpt lat="43.826458" lon="5.449983"><ele></ele><time>2014-4-5T15:56:17Z</time></trkpt>
<trkpt lat="43.826450" lon="5.449865"><ele></ele><time>2014-4-5T15:56:20Z</time></trkpt>
<trkpt lat="43.826417" lon="5.449760"><ele></ele><time>2014-4-5T15:56:23Z</time></trkpt>
<trkpt lat="43.826385" lon="5.449657"><ele></ele><time>2014-4-5T15:56:26Z</time></trkpt>
<trkpt lat="43.826352" lon="5.449553"><ele></ele><time>2014-4-5T15:56:29Z</time></trkpt>
<trkpt lat="43.826320" lon="5.449442"><ele></ele><time>2014-4-5T15:56:32Z</time></trkpt>
<trkpt lat="43.826302" lon="5.449332"><ele></ele><time>2014-4-5T15:56:35Z</time></trkpt>
<trkpt lat="43.826290" lon="5.449223"><ele></ele><time>2014-4-5T15:56:38Z</time></trkpt>
<trkpt lat="43.826287" lon="5.449198"><ele></ele><time>2014-4-5T15:56:41Z</time></trkpt>
<trkpt lat="43.826283" lon="5.449182"><ele></ele><time>2014-4-5T15:56:44Z</time></trkpt>
<trkpt lat="43.826275" lon="5.449172"><ele></ele><time>2014-4-5T15:56:47Z</time></trkpt>
<trkpt lat="43.826272" lon="5.449162"><ele></ele><time>2014-4-5T15:56:50Z</time></trkpt>
<trkpt lat="43.826267" lon="5.449105"><ele></ele><time>2014-4-5T15:56:53Z</time></trkpt>
<trkpt lat="43.826260" lon="5.449067"><ele></ele><time>2014-4-5T15:56:56Z</time></trkpt>
<trkpt lat="43.826255" lon="5.448975"><ele></ele><time>2014-4-5T15:56:59Z</time></trkpt>
<trkpt lat="43.826248" lon="5.448863"><ele></ele><time>2014-4-5T15:57:2Z</time></trkpt>
<trkpt lat="43.826240" lon="5.448748"><ele></ele><time>2014-4-5T15:57:5Z</time></trkpt>
<trkpt lat="43.826233" lon="5.448635"><ele></ele><time>2014-4-5T15:57:8Z</time></trkpt>
<trkpt lat="43.826228" lon="5.448542"><ele></ele><time>2014-4-5T15:57:11Z</time></trkpt>
<trkpt lat="43.826228" lon="5.448522"><ele></ele><time>2014-4-5T15:57:14Z</time></trkpt>
<trkpt lat="43.826225" lon="5.448520"><ele></ele><time>2014-4-5T15:57:17Z</time></trkpt>
<trkpt lat="43.826240" lon="5.448475"><ele></ele><time>2014-4-5T15:57:20Z</time></trkpt>
<trkpt lat="43.826245" lon="5.448445"><ele></ele><time>2014-4-5T15:57:23Z</time></trkpt>
<trkpt lat="43.826240" lon="5.448378"><ele></ele><time>2014-4-5T15:57:26Z</time></trkpt>
<trkpt lat="43.826240" lon="5.448338"><ele></ele><time>2014-4-5T15:57:29Z</time></trkpt>
<trkpt lat="43.826240" lon="5.448293"><ele></ele><time>2014-4-5T15:57:32Z</time></trkpt>
<trkpt lat="43.826233" lon="5.448197"><ele></ele><time>2014-4-5T15:57:35Z</time></trkpt>
<trkpt lat="43.826218" lon="5.448087"><ele></ele><time>2014-4-5T15:57:38Z</time></trkpt>
<trkpt lat="43.826198" lon="5.447995"><ele></ele><time>2014-4-5T15:57:41Z</time></trkpt>
<trkpt lat="43.826192" lon="5.447947"><ele></ele><time>2014-4-5T15:57:44Z</time></trkpt>
<trkpt lat="43.826192" lon="5.447942"><ele></ele><time>2014-4-5T15:57:47Z</time></trkpt>
<trkpt lat="43.826172" lon="5.447873"><ele></ele><time>2014-4-5T15:57:50Z</time></trkpt>
<trkpt lat="43.826148" lon="5.447803"><ele></ele><time>2014-4-5T15:57:53Z</time></trkpt>
<trkpt lat="43.826103" lon="5.447732"><ele></ele><time>2014-4-5T15:57:56Z</time></trkpt>
<trkpt lat="43.826062" lon="5.447645"><ele></ele><time>2014-4-5T15:57:59Z</time></trkpt>
<trkpt lat="43.826003" lon="5.447567"><ele></ele><time>2014-4-5T15:58:2Z</time></trkpt>
<trkpt lat="43.825947" lon="5.447493"><ele></ele><time>2014-4-5T15:58:5Z</time></trkpt>
<trkpt lat="43.825882" lon="5.447425"><ele></ele><time>2014-4-5T15:58:8Z</time></trkpt>
<trkpt lat="43.825822" lon="5.447355"><ele></ele><time>2014-4-5T15:58:11Z</time></trkpt>
<trkpt lat="43.825760" lon="5.447288"><ele></ele><time>2014-4-5T15:58:14Z</time></trkpt>
<trkpt lat="43.825695" lon="5.447220"><ele></ele><time>2014-4-5T15:58:17Z</time></trkpt>
<trkpt lat="43.825633" lon="5.447157"><ele></ele><time>2014-4-5T15:58:20Z</time></trkpt>
<trkpt lat="43.825573" lon="5.447088"><ele></ele><time>2014-4-5T15:58:23Z</time></trkpt>
<trkpt lat="43.825512" lon="5.447015"><ele></ele><time>2014-4-5T15:58:26Z</time></trkpt>
<trkpt lat="43.825455" lon="5.446943"><ele></ele><time>2014-4-5T15:58:29Z</time></trkpt>
<trkpt lat="43.825393" lon="5.446878"><ele></ele><time>2014-4-5T15:58:32Z</time></trkpt>
<trkpt lat="43.825333" lon="5.446817"><ele></ele><time>2014-4-5T15:58:35Z</time></trkpt>
<trkpt lat="43.825268" lon="5.446773"><ele></ele><time>2014-4-5T15:58:38Z</time></trkpt>
<trkpt lat="43.825192" lon="5.446738"><ele></ele><time>2014-4-5T15:58:41Z</time></trkpt>
<trkpt lat="43.825115" lon="5.446720"><ele></ele><time>2014-4-5T15:58:44Z</time></trkpt>
<trkpt lat="43.825038" lon="5.446732"><ele></ele><time>2014-4-5T15:58:47Z</time></trkpt>
<trkpt lat="43.824963" lon="5.446763"><ele></ele><time>2014-4-5T15:58:50Z</time></trkpt>
<trkpt lat="43.824890" lon="5.446810"><ele></ele><time>2014-4-5T15:58:53Z</time></trkpt>
<trkpt lat="43.824822" lon="5.446872"><ele></ele><time>2014-4-5T15:58:56Z</time></trkpt>
<trkpt lat="43.824757" lon="5.446945"><ele></ele><time>2014-4-5T15:58:59Z</time></trkpt>
<trkpt lat="43.824695" lon="5.447028"><ele></ele><time>2014-4-5T15:59:2Z</time></trkpt>
<trkpt lat="43.824627" lon="5.447102"><ele></ele><time>2014-4-5T15:59:5Z</time></trkpt>
<trkpt lat="43.824555" lon="5.447173"><ele></ele><time>2014-4-5T15:59:8Z</time></trkpt>
<trkpt lat="43.824485" lon="5.447245"><ele></ele><time>2014-4-5T15:59:11Z</time></trkpt>
<trkpt lat="43.824413" lon="5.447322"><ele></ele><time>2014-4-5T15:59:14Z</time></trkpt>
<trkpt lat="43.824345" lon="5.447388"><ele></ele><time>2014-4-5T15:59:17Z</time></trkpt>
<trkpt lat="43.824272" lon="5.447460"><ele></ele><time>2014-4-5T15:59:20Z</time></trkpt>
<trkpt lat="43.824197" lon="5.447517"><ele></ele><time>2014-4-5T15:59:23Z</time></trkpt>
<trkpt lat="43.824127" lon="5.447583"><ele></ele><time>2014-4-5T15:59:26Z</time></trkpt>
<trkpt lat="43.824052" lon="5.447642"><ele></ele><time>2014-4-5T15:59:29Z</time></trkpt>
<trkpt lat="43.823975" lon="5.447702"><ele></ele><time>2014-4-5T15:59:32Z</time></trkpt>
<trkpt lat="43.823902" lon="5.447762"><ele></ele><time>2014-4-5T15:59:35Z</time></trkpt>
<trkpt lat="43.823822" lon="5.447812"><ele></ele><time>2014-4-5T15:59:38Z</time></trkpt>
<trkpt lat="43.823742" lon="5.447857"><ele></ele><time>2014-4-5T15:59:41Z</time></trkpt>
<trkpt lat="43.823662" lon="5.447898"><ele></ele><time>2014-4-5T15:59:44Z</time></trkpt>
<trkpt lat="43.823582" lon="5.447933"><ele></ele><time>2014-4-5T15:59:47Z</time></trkpt>
<trkpt lat="43.823502" lon="5.447975"><ele></ele><time>2014-4-5T15:59:50Z</time></trkpt>
<trkpt lat="43.823440" lon="5.448052"><ele></ele><time>2014-4-5T15:59:53Z</time></trkpt>
<trkpt lat="43.823365" lon="5.448108"><ele></ele><time>2014-4-5T15:59:56Z</time></trkpt>
<trkpt lat="43.823292" lon="5.448160"><ele></ele><time>2014-4-5T15:59:59Z</time></trkpt>
<trkpt lat="43.823215" lon="5.448190"><ele></ele><time>2014-4-5T16:0:2Z</time></trkpt>
<trkpt lat="43.823140" lon="5.448245"><ele></ele><time>2014-4-5T16:0:5Z</time></trkpt>
<trkpt lat="43.823075" lon="5.448317"><ele></ele><time>2014-4-5T16:0:8Z</time></trkpt>
<trkpt lat="43.822998" lon="5.448368"><ele></ele><time>2014-4-5T16:0:11Z</time></trkpt>
<trkpt lat="43.822925" lon="5.448420"><ele></ele><time>2014-4-5T16:0:14Z</time></trkpt>
<trkpt lat="43.822850" lon="5.448465"><ele></ele><time>2014-4-5T16:0:17Z</time></trkpt>
<trkpt lat="43.822768" lon="5.448505"><ele></ele><time>2014-4-5T16:0:20Z</time></trkpt>
<trkpt lat="43.822693" lon="5.448548"><ele></ele><time>2014-4-5T16:0:23Z</time></trkpt>
<trkpt lat="43.822613" lon="5.448582"><ele></ele><time>2014-4-5T16:0:26Z</time></trkpt>
<trkpt lat="43.822537" lon="5.448612"><ele></ele><time>2014-4-5T16:0:29Z</time></trkpt>
<trkpt lat="43.822457" lon="5.448632"><ele></ele><time>2014-4-5T16:0:32Z</time></trkpt>
<trkpt lat="43.822372" lon="5.448647"><ele></ele><time>2014-4-5T16:0:35Z</time></trkpt>
<trkpt lat="43.822288" lon="5.448655"><ele></ele><time>2014-4-5T16:0:38Z</time></trkpt>
<trkpt lat="43.822205" lon="5.448657"><ele></ele><time>2014-4-5T16:0:41Z</time></trkpt>
<trkpt lat="43.822117" lon="5.448655"><ele></ele><time>2014-4-5T16:0:44Z</time></trkpt>
<trkpt lat="43.822033" lon="5.448657"><ele></ele><time>2014-4-5T16:0:47Z</time></trkpt>
<trkpt lat="43.821945" lon="5.448668"><ele></ele><time>2014-4-5T16:0:50Z</time></trkpt>
<trkpt lat="43.821857" lon="5.448668"><ele></ele><time>2014-4-5T16:0:53Z</time></trkpt>
<trkpt lat="43.821770" lon="5.448698"><ele></ele><time>2014-4-5T16:0:56Z</time></trkpt>
<trkpt lat="43.821697" lon="5.448750"><ele></ele><time>2014-4-5T16:0:59Z</time></trkpt>
<trkpt lat="43.821622" lon="5.448787"><ele></ele><time>2014-4-5T16:1:2Z</time></trkpt>
<trkpt lat="43.821537" lon="5.448822"><ele></ele><time>2014-4-5T16:1:5Z</time></trkpt>
<trkpt lat="43.821457" lon="5.448857"><ele></ele><time>2014-4-5T16:1:8Z</time></trkpt>
<trkpt lat="43.821377" lon="5.448895"><ele></ele><time>2014-4-5T16:1:11Z</time></trkpt>
<trkpt lat="43.821297" lon="5.448937"><ele></ele><time>2014-4-5T16:1:14Z</time></trkpt>
<trkpt lat="43.821213" lon="5.448968"><ele></ele><time>2014-4-5T16:1:17Z</time></trkpt>
<trkpt lat="43.821137" lon="5.449007"><ele></ele><time>2014-4-5T16:1:20Z</time></trkpt>
<trkpt lat="43.821053" lon="5.449038"><ele></ele><time>2014-4-5T16:1:23Z</time></trkpt>
<trkpt lat="43.820968" lon="5.449072"><ele></ele><time>2014-4-5T16:1:26Z</time></trkpt>
<trkpt lat="43.820885" lon="5.449103"><ele></ele><time>2014-4-5T16:1:29Z</time></trkpt>
<trkpt lat="43.820800" lon="5.449128"><ele></ele><time>2014-4-5T16:1:32Z</time></trkpt>
<trkpt lat="43.820717" lon="5.449155"><ele></ele><time>2014-4-5T16:1:35Z</time></trkpt>
<trkpt lat="43.820628" lon="5.449175"><ele></ele><time>2014-4-5T16:1:38Z</time></trkpt>
<trkpt lat="43.820542" lon="5.449190"><ele></ele><time>2014-4-5T16:1:41Z</time></trkpt>
<trkpt lat="43.820453" lon="5.449200"><ele></ele><time>2014-4-5T16:1:44Z</time></trkpt>
<trkpt lat="43.820367" lon="5.449208"><ele></ele><time>2014-4-5T16:1:47Z</time></trkpt>
<trkpt lat="43.820282" lon="5.449215"><ele></ele><time>2014-4-5T16:1:50Z</time></trkpt>
<trkpt lat="43.820195" lon="5.449218"><ele></ele><time>2014-4-5T16:1:53Z</time></trkpt>
<trkpt lat="43.820103" lon="5.449223"><ele></ele><time>2014-4-5T16:1:56Z</time></trkpt>
<trkpt lat="43.820012" lon="5.449235"><ele></ele><time>2014-4-5T16:1:59Z</time></trkpt>
<trkpt lat="43.819920" lon="5.449240"><ele></ele><time>2014-4-5T16:2:2Z</time></trkpt>
<trkpt lat="43.819828" lon="5.449237"><ele></ele><time>2014-4-5T16:2:5Z</time></trkpt>
<trkpt lat="43.819737" lon="5.449225"><ele></ele><time>2014-4-5T16:2:8Z</time></trkpt>
<trkpt lat="43.819645" lon="5.449197"><ele></ele><time>2014-4-5T16:2:11Z</time></trkpt>
<trkpt lat="43.819557" lon="5.449155"><ele></ele><time>2014-4-5T16:2:14Z</time></trkpt>
<trkpt lat="43.819477" lon="5.449098"><ele></ele><time>2014-4-5T16:2:17Z</time></trkpt>
<trkpt lat="43.819393" lon="5.449037"><ele></ele><time>2014-4-5T16:2:20Z</time></trkpt>
<trkpt lat="43.819313" lon="5.448975"><ele></ele><time>2014-4-5T16:2:23Z</time></trkpt>
<trkpt lat="43.819233" lon="5.448920"><ele></ele><time>2014-4-5T16:2:26Z</time></trkpt>
<trkpt lat="43.819148" lon="5.448867"><ele></ele><time>2014-4-5T16:2:29Z</time></trkpt>
<trkpt lat="43.819073" lon="5.448810"><ele></ele><time>2014-4-5T16:2:32Z</time></trkpt>
<trkpt lat="43.818988" lon="5.448755"><ele></ele><time>2014-4-5T16:2:35Z</time></trkpt>
<trkpt lat="43.818920" lon="5.448705"><ele></ele><time>2014-4-5T16:2:38Z</time></trkpt>
<trkpt lat="43.818848" lon="5.448652"><ele></ele><time>2014-4-5T16:2:41Z</time></trkpt>
<trkpt lat="43.818768" lon="5.448597"><ele></ele><time>2014-4-5T16:2:44Z</time></trkpt>
<trkpt lat="43.818683" lon="5.448543"><ele></ele><time>2014-4-5T16:2:47Z</time></trkpt>
<trkpt lat="43.818597" lon="5.448497"><ele></ele><time>2014-4-5T16:2:50Z</time></trkpt>
<trkpt lat="43.818497" lon="5.448472"><ele></ele><time>2014-4-5T16:2:53Z</time></trkpt>
<trkpt lat="43.818420" lon="5.448465"><ele></ele><time>2014-4-5T16:2:56Z</time></trkpt>
<trkpt lat="43.818425" lon="5.448467"><ele></ele><time>2014-4-5T16:2:59Z</time></trkpt>
<trkpt lat="43.818425" lon="5.448467"><ele></ele><time>2014-4-5T16:3:2Z</time></trkpt>
<trkpt lat="43.818425" lon="5.448467"><ele></ele><time>2014-4-5T16:3:5Z</time></trkpt>
<trkpt lat="43.818425" lon="5.448468"><ele></ele><time>2014-4-5T16:3:8Z</time></trkpt>
<trkpt lat="43.818425" lon="5.448468"><ele></ele><time>2014-4-5T16:3:11Z</time></trkpt>
<trkpt lat="43.818413" lon="5.448453"><ele></ele><time>2014-4-5T16:3:14Z</time></trkpt>
<trkpt lat="43.818447" lon="5.448400"><ele></ele><time>2014-4-5T16:3:17Z</time></trkpt>
<trkpt lat="43.818515" lon="5.448373"><ele></ele><time>2014-4-5T16:3:20Z</time></trkpt>
<trkpt lat="43.818592" lon="5.448358"><ele></ele><time>2014-4-5T16:3:23Z</time></trkpt>
<trkpt lat="43.818618" lon="5.448340"><ele></ele><time>2014-4-5T16:3:26Z</time></trkpt>
<trkpt lat="43.818618" lon="5.448342"><ele></ele><time>2014-4-5T16:3:29Z</time></trkpt>
<trkpt lat="43.818630" lon="5.448310"><ele></ele><time>2014-4-5T16:3:32Z</time></trkpt>
<trkpt lat="43.818618" lon="5.448340"><ele></ele><time>2014-4-5T16:3:35Z</time></trkpt>
<trkpt lat="43.818618" lon="5.448350"><ele></ele><time>2014-4-5T16:3:38Z</time></trkpt>
<trkpt lat="43.818618" lon="5.448353"><ele></ele><time>2014-4-5T16:3:41Z</time></trkpt>
<trkpt lat="43.818615" lon="5.448352"><ele></ele><time>2014-4-5T16:3:44Z</time></trkpt>
<trkpt lat="43.818618" lon="5.448350"><ele></ele><time>2014-4-5T16:3:47Z</time></trkpt>
<trkpt lat="43.818618" lon="5.448350"><ele></ele><time>2014-4-5T16:3:50Z</time></trkpt>
<trkpt lat="43.818618" lon="5.448352"><ele></ele><time>2014-4-5T16:3:53Z</time></trkpt>
<trkpt lat="43.818618" lon="5.448352"><ele></ele><time>2014-4-5T16:3:56Z</time></trkpt>
<trkpt lat="43.818618" lon="5.448352"><ele></ele><time>2014-4-5T16:3:59Z</time></trkpt>
<trkpt lat="43.818618" lon="5.448353"><ele></ele><time>2014-4-5T16:4:2Z</time></trkpt>
<trkpt lat="43.818603" lon="5.448402"><ele></ele><time>2014-4-5T16:4:5Z</time></trkpt>
<trkpt lat="43.818553" lon="5.448463"><ele></ele><time>2014-4-5T16:4:8Z</time></trkpt>
<trkpt lat="43.818505" lon="5.448543"><ele></ele><time>2014-4-5T16:4:11Z</time></trkpt>
<trkpt lat="43.818462" lon="5.448627"><ele></ele><time>2014-4-5T16:4:14Z</time></trkpt>
<trkpt lat="43.818452" lon="5.448750"><ele></ele><time>2014-4-5T16:4:17Z</time></trkpt>
<trkpt lat="43.818440" lon="5.448870"><ele></ele><time>2014-4-5T16:4:20Z</time></trkpt>
<trkpt lat="43.818413" lon="5.448983"><ele></ele><time>2014-4-5T16:4:23Z</time></trkpt>
<trkpt lat="43.818382" lon="5.449100"><ele></ele><time>2014-4-5T16:4:26Z</time></trkpt>
<trkpt lat="43.818348" lon="5.449218"><ele></ele><time>2014-4-5T16:4:29Z</time></trkpt>
<trkpt lat="43.818313" lon="5.449332"><ele></ele><time>2014-4-5T16:4:32Z</time></trkpt>
<trkpt lat="43.818280" lon="5.449447"><ele></ele><time>2014-4-5T16:4:35Z</time></trkpt>
<trkpt lat="43.818245" lon="5.449558"><ele></ele><time>2014-4-5T16:4:38Z</time></trkpt>
<trkpt lat="43.818218" lon="5.449672"><ele></ele><time>2014-4-5T16:4:41Z</time></trkpt>
<trkpt lat="43.818198" lon="5.449790"><ele></ele><time>2014-4-5T16:4:44Z</time></trkpt>
<trkpt lat="43.818188" lon="5.449903"><ele></ele><time>2014-4-5T16:4:47Z</time></trkpt>
<trkpt lat="43.818172" lon="5.450023"><ele></ele><time>2014-4-5T16:4:50Z</time></trkpt>
<trkpt lat="43.818203" lon="5.450148"><ele></ele><time>2014-4-5T16:4:53Z</time></trkpt>
<trkpt lat="43.818268" lon="5.450257"><ele></ele><time>2014-4-5T16:4:56Z</time></trkpt>
<trkpt lat="43.818337" lon="5.450330"><ele></ele><time>2014-4-5T16:4:59Z</time></trkpt>
<trkpt lat="43.818428" lon="5.450405"><ele></ele><time>2014-4-5T16:5:2Z</time></trkpt>
<trkpt lat="43.818508" lon="5.450500"><ele></ele><time>2014-4-5T16:5:5Z</time></trkpt>
<trkpt lat="43.818588" lon="5.450603"><ele></ele><time>2014-4-5T16:5:8Z</time></trkpt>
<trkpt lat="43.818660" lon="5.450710"><ele></ele><time>2014-4-5T16:5:11Z</time></trkpt>
<trkpt lat="43.818725" lon="5.450825"><ele></ele><time>2014-4-5T16:5:14Z</time></trkpt>
<trkpt lat="43.818790" lon="5.450948"><ele></ele><time>2014-4-5T16:5:17Z</time></trkpt>
<trkpt lat="43.818843" lon="5.451082"><ele></ele><time>2014-4-5T16:5:20Z</time></trkpt>
<trkpt lat="43.818893" lon="5.451217"><ele></ele><time>2014-4-5T16:5:23Z</time></trkpt>
<trkpt lat="43.818940" lon="5.451360"><ele></ele><time>2014-4-5T16:5:26Z</time></trkpt>
<trkpt lat="43.818977" lon="5.451507"><ele></ele><time>2014-4-5T16:5:29Z</time></trkpt>
<trkpt lat="43.818993" lon="5.451658"><ele></ele><time>2014-4-5T16:5:32Z</time></trkpt>
<trkpt lat="43.819050" lon="5.451797"><ele></ele><time>2014-4-5T16:5:35Z</time></trkpt>
<trkpt lat="43.819080" lon="5.451948"><ele></ele><time>2014-4-5T16:5:38Z</time></trkpt>
<trkpt lat="43.819100" lon="5.452103"><ele></ele><time>2014-4-5T16:5:41Z</time></trkpt>
<trkpt lat="43.819107" lon="5.452258"><ele></ele><time>2014-4-5T16:5:44Z</time></trkpt>
<trkpt lat="43.819107" lon="5.452415"><ele></ele><time>2014-4-5T16:5:47Z</time></trkpt>
<trkpt lat="43.819122" lon="5.452558"><ele></ele><time>2014-4-5T16:5:50Z</time></trkpt>
<trkpt lat="43.819130" lon="5.452712"><ele></ele><time>2014-4-5T16:5:53Z</time></trkpt>
<trkpt lat="43.819148" lon="5.452867"><ele></ele><time>2014-4-5T16:5:56Z</time></trkpt>
<trkpt lat="43.819172" lon="5.453023"><ele></ele><time>2014-4-5T16:5:59Z</time></trkpt>
<trkpt lat="43.819207" lon="5.453173"><ele></ele><time>2014-4-5T16:6:2Z</time></trkpt>
<trkpt lat="43.819248" lon="5.453318"><ele></ele><time>2014-4-5T16:6:5Z</time></trkpt>
<trkpt lat="43.819317" lon="5.453453"><ele></ele><time>2014-4-5T16:6:8Z</time></trkpt>
<trkpt lat="43.819352" lon="5.453612"><ele></ele><time>2014-4-5T16:6:11Z</time></trkpt>
<trkpt lat="43.819382" lon="5.453765"><ele></ele><time>2014-4-5T16:6:14Z</time></trkpt>
<trkpt lat="43.819397" lon="5.453918"><ele></ele><time>2014-4-5T16:6:17Z</time></trkpt>
<trkpt lat="43.819390" lon="5.454075"><ele></ele><time>2014-4-5T16:6:20Z</time></trkpt>
<trkpt lat="43.819417" lon="5.454230"><ele></ele><time>2014-4-5T16:6:23Z</time></trkpt>
<trkpt lat="43.819462" lon="5.454385"><ele></ele><time>2014-4-5T16:6:26Z</time></trkpt>
<trkpt lat="43.819488" lon="5.454542"><ele></ele><time>2014-4-5T16:6:29Z</time></trkpt>
<trkpt lat="43.819485" lon="5.454703"><ele></ele><time>2014-4-5T16:6:32Z</time></trkpt>
<trkpt lat="43.819482" lon="5.454858"><ele></ele><time>2014-4-5T16:6:35Z</time></trkpt>
<trkpt lat="43.819473" lon="5.455007"><ele></ele><time>2014-4-5T16:6:38Z</time></trkpt>
<trkpt lat="43.819458" lon="5.455148"><ele></ele><time>2014-4-5T16:6:41Z</time></trkpt>
<trkpt lat="43.819447" lon="5.455272"><ele></ele><time>2014-4-5T16:6:44Z</time></trkpt>
<trkpt lat="43.819423" lon="5.455392"><ele></ele><time>2014-4-5T16:6:47Z</time></trkpt>
<trkpt lat="43.819412" lon="5.455520"><ele></ele><time>2014-4-5T16:6:50Z</time></trkpt>
<trkpt lat="43.819412" lon="5.455647"><ele></ele><time>2014-4-5T16:6:53Z</time></trkpt>
<trkpt lat="43.819420" lon="5.455773"><ele></ele><time>2014-4-5T16:6:56Z</time></trkpt>
<trkpt lat="43.819435" lon="5.455902"><ele></ele><time>2014-4-5T16:6:59Z</time></trkpt>
<trkpt lat="43.819465" lon="5.456028"><ele></ele><time>2014-4-5T16:7:2Z</time></trkpt>
<trkpt lat="43.819508" lon="5.456145"><ele></ele><time>2014-4-5T16:7:5Z</time></trkpt>
<trkpt lat="43.819545" lon="5.456258"><ele></ele><time>2014-4-5T16:7:8Z</time></trkpt>
<trkpt lat="43.819568" lon="5.456387"><ele></ele><time>2014-4-5T16:7:11Z</time></trkpt>
<trkpt lat="43.819580" lon="5.456515"><ele></ele><time>2014-4-5T16:7:14Z</time></trkpt>
<trkpt lat="43.819580" lon="5.456648"><ele></ele><time>2014-4-5T16:7:17Z</time></trkpt>
<trkpt lat="43.819572" lon="5.456778"><ele></ele><time>2014-4-5T16:7:20Z</time></trkpt>
<trkpt lat="43.819542" lon="5.456903"><ele></ele><time>2014-4-5T16:7:23Z</time></trkpt>
<trkpt lat="43.819488" lon="5.457002"><ele></ele><time>2014-4-5T16:7:26Z</time></trkpt>
<trkpt lat="43.819438" lon="5.457097"><ele></ele><time>2014-4-5T16:7:29Z</time></trkpt>
<trkpt lat="43.819417" lon="5.457192"><ele></ele><time>2014-4-5T16:7:32Z</time></trkpt>
<trkpt lat="43.819378" lon="5.457287"><ele></ele><time>2014-4-5T16:7:35Z</time></trkpt>
<trkpt lat="43.819343" lon="5.457390"><ele></ele><time>2014-4-5T16:7:38Z</time></trkpt>
<trkpt lat="43.819310" lon="5.457502"><ele></ele><time>2014-4-5T16:7:41Z</time></trkpt>
<trkpt lat="43.819272" lon="5.457612"><ele></ele><time>2014-4-5T16:7:44Z</time></trkpt>
<trkpt lat="43.819233" lon="5.457717"><ele></ele><time>2014-4-5T16:7:47Z</time></trkpt>
<trkpt lat="43.819187" lon="5.457822"><ele></ele><time>2014-4-5T16:7:50Z</time></trkpt>
<trkpt lat="43.819148" lon="5.457917"><ele></ele><time>2014-4-5T16:7:53Z</time></trkpt>
<trkpt lat="43.819112" lon="5.458000"><ele></ele><time>2014-4-5T16:7:56Z</time></trkpt>
<trkpt lat="43.819065" lon="5.458082"><ele></ele><time>2014-4-5T16:7:59Z</time></trkpt>
<trkpt lat="43.819030" lon="5.458165"><ele></ele><time>2014-4-5T16:8:2Z</time></trkpt>
<trkpt lat="43.818997" lon="5.458257"><ele></ele><time>2014-4-5T16:8:5Z</time></trkpt>
<trkpt lat="43.818955" lon="5.458347"><ele></ele><time>2014-4-5T16:8:8Z</time></trkpt>
<trkpt lat="43.818940" lon="5.458463"><ele></ele><time>2014-4-5T16:8:11Z</time></trkpt>
<trkpt lat="43.818947" lon="5.458588"><ele></ele><time>2014-4-5T16:8:14Z</time></trkpt>
<trkpt lat="43.818950" lon="5.458718"><ele></ele><time>2014-4-5T16:8:17Z</time></trkpt>
<trkpt lat="43.818955" lon="5.458862"><ele></ele><time>2014-4-5T16:8:20Z</time></trkpt>
<trkpt lat="43.818962" lon="5.459013"><ele></ele><time>2014-4-5T16:8:23Z</time></trkpt>
<trkpt lat="43.818985" lon="5.459162"><ele></ele><time>2014-4-5T16:8:26Z</time></trkpt>
<trkpt lat="43.819015" lon="5.459307"><ele></ele><time>2014-4-5T16:8:29Z</time></trkpt>
<trkpt lat="43.819050" lon="5.459452"><ele></ele><time>2014-4-5T16:8:32Z</time></trkpt>
<trkpt lat="43.819092" lon="5.459613"><ele></ele><time>2014-4-5T16:8:35Z</time></trkpt>
<trkpt lat="43.819145" lon="5.459782"><ele></ele><time>2014-4-5T16:8:38Z</time></trkpt>
<trkpt lat="43.819198" lon="5.459952"><ele></ele><time>2014-4-5T16:8:41Z</time></trkpt>
<trkpt lat="43.819252" lon="5.460127"><ele></ele><time>2014-4-5T16:8:44Z</time></trkpt>
<trkpt lat="43.819320" lon="5.460303"><ele></ele><time>2014-4-5T16:8:47Z</time></trkpt>
<trkpt lat="43.819385" lon="5.460490"><ele></ele><time>2014-4-5T16:8:50Z</time></trkpt>
<trkpt lat="43.819423" lon="5.460690"><ele></ele><time>2014-4-5T16:8:53Z</time></trkpt>
<trkpt lat="43.819485" lon="5.460887"><ele></ele><time>2014-4-5T16:8:56Z</time></trkpt>
<trkpt lat="43.819508" lon="5.461082"><ele></ele><time>2014-4-5T16:8:59Z</time></trkpt>
<trkpt lat="43.819492" lon="5.461252"><ele></ele><time>2014-4-5T16:9:2Z</time></trkpt>
<trkpt lat="43.819497" lon="5.461418"><ele></ele><time>2014-4-5T16:9:5Z</time></trkpt>
<trkpt lat="43.819508" lon="5.461560"><ele></ele><time>2014-4-5T16:9:8Z</time></trkpt>
<trkpt lat="43.819527" lon="5.461677"><ele></ele><time>2014-4-5T16:9:11Z</time></trkpt>
<trkpt lat="43.819542" lon="5.461782"><ele></ele><time>2014-4-5T16:9:14Z</time></trkpt>
<trkpt lat="43.819562" lon="5.461860"><ele></ele><time>2014-4-5T16:9:17Z</time></trkpt>
<trkpt lat="43.819580" lon="5.461957"><ele></ele><time>2014-4-5T16:9:20Z</time></trkpt>
<trkpt lat="43.819580" lon="5.461965"><ele></ele><time>2014-4-5T16:9:23Z</time></trkpt>
<trkpt lat="43.819583" lon="5.461980"><ele></ele><time>2014-4-5T16:9:26Z</time></trkpt>
<trkpt lat="43.819592" lon="5.462038"><ele></ele><time>2014-4-5T16:9:29Z</time></trkpt>
<trkpt lat="43.819598" lon="5.462047"><ele></ele><time>2014-4-5T16:9:32Z</time></trkpt>
<trkpt lat="43.819603" lon="5.462060"><ele></ele><time>2014-4-5T16:9:35Z</time></trkpt>
<trkpt lat="43.819610" lon="5.462068"><ele></ele><time>2014-4-5T16:9:38Z</time></trkpt>
<trkpt lat="43.819618" lon="5.462102"><ele></ele><time>2014-4-5T16:9:41Z</time></trkpt>
<trkpt lat="43.819622" lon="5.462172"><ele></ele><time>2014-4-5T16:9:44Z</time></trkpt>
<trkpt lat="43.819648" lon="5.462222"><ele></ele><time>2014-4-5T16:9:47Z</time></trkpt>
<trkpt lat="43.819672" lon="5.462297"><ele></ele><time>2014-4-5T16:9:50Z</time></trkpt>
<trkpt lat="43.819702" lon="5.462375"><ele></ele><time>2014-4-5T16:9:53Z</time></trkpt>
<trkpt lat="43.819733" lon="5.462458"><ele></ele><time>2014-4-5T16:9:56Z</time></trkpt>
<trkpt lat="43.819767" lon="5.462547"><ele></ele><time>2014-4-5T16:9:59Z</time></trkpt>
<trkpt lat="43.819802" lon="5.462632"><ele></ele><time>2014-4-5T16:10:2Z</time></trkpt>
<trkpt lat="43.819835" lon="5.462720"><ele></ele><time>2014-4-5T16:10:5Z</time></trkpt>
<trkpt lat="43.819862" lon="5.462815"><ele></ele><time>2014-4-5T16:10:8Z</time></trkpt>
<trkpt lat="43.819882" lon="5.462903"><ele></ele><time>2014-4-5T16:10:11Z</time></trkpt>
<trkpt lat="43.819900" lon="5.462977"><ele></ele><time>2014-4-5T16:10:14Z</time></trkpt>
<trkpt lat="43.819900" lon="5.463055"><ele></ele><time>2014-4-5T16:10:17Z</time></trkpt>
<trkpt lat="43.819908" lon="5.463165"><ele></ele><time>2014-4-5T16:10:20Z</time></trkpt>
<trkpt lat="43.819920" lon="5.463280"><ele></ele><time>2014-4-5T16:10:23Z</time></trkpt>
<trkpt lat="43.819915" lon="5.463397"><ele></ele><time>2014-4-5T16:10:26Z</time></trkpt>
<trkpt lat="43.819900" lon="5.463502"><ele></ele><time>2014-4-5T16:10:29Z</time></trkpt>
<trkpt lat="43.819888" lon="5.463600"><ele></ele><time>2014-4-5T16:10:32Z</time></trkpt>
<trkpt lat="43.819878" lon="5.463672"><ele></ele><time>2014-4-5T16:10:35Z</time></trkpt>
<trkpt lat="43.819855" lon="5.463718"><ele></ele><time>2014-4-5T16:10:38Z</time></trkpt>
<trkpt lat="43.819858" lon="5.463732"><ele></ele><time>2014-4-5T16:10:41Z</time></trkpt>
<trkpt lat="43.819862" lon="5.463748"><ele></ele><time>2014-4-5T16:10:44Z</time></trkpt>
<trkpt lat="43.819858" lon="5.463798"><ele></ele><time>2014-4-5T16:10:47Z</time></trkpt>
<trkpt lat="43.819835" lon="5.463823"><ele></ele><time>2014-4-5T16:10:50Z</time></trkpt>
<trkpt lat="43.819793" lon="5.463895"><ele></ele><time>2014-4-5T16:10:53Z</time></trkpt>
<trkpt lat="43.819752" lon="5.463982"><ele></ele><time>2014-4-5T16:10:56Z</time></trkpt>
<trkpt lat="43.819725" lon="5.464072"><ele></ele><time>2014-4-5T16:10:59Z</time></trkpt>
<trkpt lat="43.819695" lon="5.464157"><ele></ele><time>2014-4-5T16:11:2Z</time></trkpt>
<trkpt lat="43.819660" lon="5.464232"><ele></ele><time>2014-4-5T16:11:5Z</time></trkpt>
<trkpt lat="43.819653" lon="5.464258"><ele></ele><time>2014-4-5T16:11:8Z</time></trkpt>
<trkpt lat="43.819637" lon="5.464290"><ele></ele><time>2014-4-5T16:11:11Z</time></trkpt>
<trkpt lat="43.819618" lon="5.464307"><ele></ele><time>2014-4-5T16:11:14Z</time></trkpt>
<trkpt lat="43.819603" lon="5.464362"><ele></ele><time>2014-4-5T16:11:17Z</time></trkpt>
<trkpt lat="43.819595" lon="5.464398"><ele></ele><time>2014-4-5T16:11:20Z</time></trkpt>
<trkpt lat="43.819583" lon="5.464425"><ele></ele><time>2014-4-5T16:11:23Z</time></trkpt>
<trkpt lat="43.819557" lon="5.464495"><ele></ele><time>2014-4-5T16:11:26Z</time></trkpt>
<trkpt lat="43.819538" lon="5.464570"><ele></ele><time>2014-4-5T16:11:29Z</time></trkpt>
<trkpt lat="43.819542" lon="5.464583"><ele></ele><time>2014-4-5T16:11:32Z</time></trkpt>
<trkpt lat="43.819530" lon="5.464620"><ele></ele><time>2014-4-5T16:11:35Z</time></trkpt>
<trkpt lat="43.819527" lon="5.464667"><ele></ele><time>2014-4-5T16:11:38Z</time></trkpt>
<trkpt lat="43.819515" lon="5.464720"><ele></ele><time>2014-4-5T16:11:41Z</time></trkpt>
<trkpt lat="43.819508" lon="5.464775"><ele></ele><time>2014-4-5T16:11:44Z</time></trkpt>
<trkpt lat="43.819497" lon="5.464840"><ele></ele><time>2014-4-5T16:11:47Z</time></trkpt>
<trkpt lat="43.819485" lon="5.464897"><ele></ele><time>2014-4-5T16:11:50Z</time></trkpt>
<trkpt lat="43.819482" lon="5.464957"><ele></ele><time>2014-4-5T16:11:53Z</time></trkpt>
<trkpt lat="43.819477" lon="5.465017"><ele></ele><time>2014-4-5T16:11:56Z</time></trkpt>
<trkpt lat="43.819477" lon="5.465083"><ele></ele><time>2014-4-5T16:11:59Z</time></trkpt>
<trkpt lat="43.819477" lon="5.465137"><ele></ele><time>2014-4-5T16:12:2Z</time></trkpt>
<trkpt lat="43.819473" lon="5.465175"><ele></ele><time>2014-4-5T16:12:5Z</time></trkpt>
<trkpt lat="43.819485" lon="5.465205"><ele></ele><time>2014-4-5T16:12:8Z</time></trkpt>
<trkpt lat="43.819473" lon="5.465243"><ele></ele><time>2014-4-5T16:12:11Z</time></trkpt>
<trkpt lat="43.819497" lon="5.465352"><ele></ele><time>2014-4-5T16:12:14Z</time></trkpt>
<trkpt lat="43.819523" lon="5.465453"><ele></ele><time>2014-4-5T16:12:17Z</time></trkpt>
<trkpt lat="43.819577" lon="5.465568"><ele></ele><time>2014-4-5T16:12:20Z</time></trkpt>
<trkpt lat="43.819603" lon="5.465653"><ele></ele><time>2014-4-5T16:12:23Z</time></trkpt>
<trkpt lat="43.819622" lon="5.465735"><ele></ele><time>2014-4-5T16:12:26Z</time></trkpt>
<trkpt lat="43.819663" lon="5.465817"><ele></ele><time>2014-4-5T16:12:29Z</time></trkpt>
<trkpt lat="43.819687" lon="5.465903"><ele></ele><time>2014-4-5T16:12:32Z</time></trkpt>
<trkpt lat="43.819707" lon="5.465990"><ele></ele><time>2014-4-5T16:12:35Z</time></trkpt>
<trkpt lat="43.819713" lon="5.466058"><ele></ele><time>2014-4-5T16:12:38Z</time></trkpt>
<trkpt lat="43.819737" lon="5.466147"><ele></ele><time>2014-4-5T16:12:41Z</time></trkpt>
<trkpt lat="43.819770" lon="5.466275"><ele></ele><time>2014-4-5T16:12:44Z</time></trkpt>
<trkpt lat="43.819787" lon="5.466378"><ele></ele><time>2014-4-5T16:12:47Z</time></trkpt>
<trkpt lat="43.819793" lon="5.466483"><ele></ele><time>2014-4-5T16:12:50Z</time></trkpt>
<trkpt lat="43.819802" lon="5.466583"><ele></ele><time>2014-4-5T16:12:53Z</time></trkpt>
<trkpt lat="43.819813" lon="5.466603"><ele></ele><time>2014-4-5T16:12:56Z</time></trkpt>
<trkpt lat="43.819813" lon="5.466640"><ele></ele><time>2014-4-5T16:12:59Z</time></trkpt>
<trkpt lat="43.819802" lon="5.466712"><ele></ele><time>2014-4-5T16:13:2Z</time></trkpt>
<trkpt lat="43.819782" lon="5.466780"><ele></ele><time>2014-4-5T16:13:5Z</time></trkpt>
<trkpt lat="43.819760" lon="5.466840"><ele></ele><time>2014-4-5T16:13:8Z</time></trkpt>
<trkpt lat="43.819733" lon="5.466903"><ele></ele><time>2014-4-5T16:13:11Z</time></trkpt>
<trkpt lat="43.819702" lon="5.466957"><ele></ele><time>2014-4-5T16:13:14Z</time></trkpt>
<trkpt lat="43.819672" lon="5.467020"><ele></ele><time>2014-4-5T16:13:17Z</time></trkpt>
<trkpt lat="43.819637" lon="5.467083"><ele></ele><time>2014-4-5T16:13:20Z</time></trkpt>
<trkpt lat="43.819598" lon="5.467140"><ele></ele><time>2014-4-5T16:13:23Z</time></trkpt>
<trkpt lat="43.819562" lon="5.467195"><ele></ele><time>2014-4-5T16:13:26Z</time></trkpt>
<trkpt lat="43.819518" lon="5.467238"><ele></ele><time>2014-4-5T16:13:29Z</time></trkpt>
<trkpt lat="43.819482" lon="5.467288"><ele></ele><time>2014-4-5T16:13:32Z</time></trkpt>
<trkpt lat="43.819443" lon="5.467335"><ele></ele><time>2014-4-5T16:13:35Z</time></trkpt>
<trkpt lat="43.819438" lon="5.467350"><ele></ele><time>2014-4-5T16:13:38Z</time></trkpt>
<trkpt lat="43.819435" lon="5.467352"><ele></ele><time>2014-4-5T16:13:41Z</time></trkpt>
<trkpt lat="43.819378" lon="5.467392"><ele></ele><time>2014-4-5T16:13:44Z</time></trkpt>
<trkpt lat="43.819328" lon="5.467432"><ele></ele><time>2014-4-5T16:13:47Z</time></trkpt>
<trkpt lat="43.819263" lon="5.467483"><ele></ele><time>2014-4-5T16:13:50Z</time></trkpt>
<trkpt lat="43.819198" lon="5.467535"><ele></ele><time>2014-4-5T16:13:53Z</time></trkpt>
<trkpt lat="43.819130" lon="5.467573"><ele></ele><time>2014-4-5T16:13:56Z</time></trkpt>
<trkpt lat="43.819057" lon="5.467615"><ele></ele><time>2014-4-5T16:13:59Z</time></trkpt>
<trkpt lat="43.818988" lon="5.467655"><ele></ele><time>2014-4-5T16:14:2Z</time></trkpt>
<trkpt lat="43.818917" lon="5.467693"><ele></ele><time>2014-4-5T16:14:5Z</time></trkpt>
<trkpt lat="43.818840" lon="5.467732"><ele></ele><time>2014-4-5T16:14:8Z</time></trkpt>
<trkpt lat="43.818768" lon="5.467772"><ele></ele><time>2014-4-5T16:14:11Z</time></trkpt>
<trkpt lat="43.818695" lon="5.467805"><ele></ele><time>2014-4-5T16:14:14Z</time></trkpt>
<trkpt lat="43.818627" lon="5.467828"><ele></ele><time>2014-4-5T16:14:17Z</time></trkpt>
<trkpt lat="43.818550" lon="5.467842"><ele></ele><time>2014-4-5T16:14:20Z</time></trkpt>
<trkpt lat="43.818478" lon="5.467857"><ele></ele><time>2014-4-5T16:14:23Z</time></trkpt>
<trkpt lat="43.818405" lon="5.467870"><ele></ele><time>2014-4-5T16:14:26Z</time></trkpt>
<trkpt lat="43.818337" lon="5.467893"><ele></ele><time>2014-4-5T16:14:29Z</time></trkpt>
<trkpt lat="43.818263" lon="5.467898"><ele></ele><time>2014-4-5T16:14:32Z</time></trkpt>
<trkpt lat="43.818183" lon="5.467913"><ele></ele><time>2014-4-5T16:14:35Z</time></trkpt>
<trkpt lat="43.818108" lon="5.467927"><ele></ele><time>2014-4-5T16:14:38Z</time></trkpt>
<trkpt lat="43.818038" lon="5.467945"><ele></ele><time>2014-4-5T16:14:41Z</time></trkpt>
<trkpt lat="43.817963" lon="5.467957"><ele></ele><time>2014-4-5T16:14:44Z</time></trkpt>
<trkpt lat="43.817887" lon="5.467973"><ele></ele><time>2014-4-5T16:14:47Z</time></trkpt>
<trkpt lat="43.817813" lon="5.467993"><ele></ele><time>2014-4-5T16:14:50Z</time></trkpt>
<trkpt lat="43.817738" lon="5.468003"><ele></ele><time>2014-4-5T16:14:53Z</time></trkpt>
<trkpt lat="43.817665" lon="5.468030"><ele></ele><time>2014-4-5T16:14:56Z</time></trkpt>
<trkpt lat="43.817588" lon="5.468053"><ele></ele><time>2014-4-5T16:14:59Z</time></trkpt>
<trkpt lat="43.817520" lon="5.468087"><ele></ele><time>2014-4-5T16:15:2Z</time></trkpt>
<trkpt lat="43.817448" lon="5.468112"><ele></ele><time>2014-4-5T16:15:5Z</time></trkpt>
<trkpt lat="43.817387" lon="5.468137"><ele></ele><time>2014-4-5T16:15:8Z</time></trkpt>
<trkpt lat="43.817325" lon="5.468167"><ele></ele><time>2014-4-5T16:15:11Z</time></trkpt>
<trkpt lat="43.817260" lon="5.468195"><ele></ele><time>2014-4-5T16:15:14Z</time></trkpt>
<trkpt lat="43.817197" lon="5.468220"><ele></ele><time>2014-4-5T16:15:17Z</time></trkpt>
<trkpt lat="43.817123" lon="5.468253"><ele></ele><time>2014-4-5T16:15:20Z</time></trkpt>
<trkpt lat="43.817055" lon="5.468283"><ele></ele><time>2014-4-5T16:15:23Z</time></trkpt>
<trkpt lat="43.816982" lon="5.468320"><ele></ele><time>2014-4-5T16:15:26Z</time></trkpt>
<trkpt lat="43.816913" lon="5.468358"><ele></ele><time>2014-4-5T16:15:29Z</time></trkpt>
<trkpt lat="43.816853" lon="5.468397"><ele></ele><time>2014-4-5T16:15:32Z</time></trkpt>
<trkpt lat="43.816795" lon="5.468433"><ele></ele><time>2014-4-5T16:15:35Z</time></trkpt>
<trkpt lat="43.816735" lon="5.468477"><ele></ele><time>2014-4-5T16:15:38Z</time></trkpt>
<trkpt lat="43.816673" lon="5.468522"><ele></ele><time>2014-4-5T16:15:41Z</time></trkpt>
<trkpt lat="43.816635" lon="5.468555"><ele></ele><time>2014-4-5T16:15:44Z</time></trkpt>
<trkpt lat="43.816628" lon="5.468563"><ele></ele><time>2014-4-5T16:15:47Z</time></trkpt>
<trkpt lat="43.816620" lon="5.468580"><ele></ele><time>2014-4-5T16:15:50Z</time></trkpt>
<trkpt lat="43.816582" lon="5.468612"><ele></ele><time>2014-4-5T16:15:53Z</time></trkpt>
<trkpt lat="43.816540" lon="5.468648"><ele></ele><time>2014-4-5T16:15:56Z</time></trkpt>
<trkpt lat="43.816493" lon="5.468683"><ele></ele><time>2014-4-5T16:15:59Z</time></trkpt>
<trkpt lat="43.816452" lon="5.468712"><ele></ele><time>2014-4-5T16:16:2Z</time></trkpt>
<trkpt lat="43.816452" lon="5.468718"><ele></ele><time>2014-4-5T16:16:5Z</time></trkpt>
<trkpt lat="43.816437" lon="5.468745"><ele></ele><time>2014-4-5T16:16:8Z</time></trkpt>
<trkpt lat="43.816437" lon="5.468745"><ele></ele><time>2014-4-5T16:16:11Z</time></trkpt>
<trkpt lat="43.816437" lon="5.468745"><ele></ele><time>2014-4-5T16:16:14Z</time></trkpt>
<trkpt lat="43.816437" lon="5.468742"><ele></ele><time>2014-4-5T16:16:17Z</time></trkpt>
<trkpt lat="43.816437" lon="5.468743"><ele></ele><time>2014-4-5T16:16:20Z</time></trkpt>
<trkpt lat="43.816440" lon="5.468742"><ele></ele><time>2014-4-5T16:16:23Z</time></trkpt>
<trkpt lat="43.816440" lon="5.468738"><ele></ele><time>2014-4-5T16:16:26Z</time></trkpt>
<trkpt lat="43.816445" lon="5.468738"><ele></ele><time>2014-4-5T16:16:29Z</time></trkpt>
<trkpt lat="43.816445" lon="5.468738"><ele></ele><time>2014-4-5T16:16:32Z</time></trkpt>
<trkpt lat="43.816445" lon="5.468742"><ele></ele><time>2014-4-5T16:16:35Z</time></trkpt>
<trkpt lat="43.816448" lon="5.468742"><ele></ele><time>2014-4-5T16:16:38Z</time></trkpt>
<trkpt lat="43.816448" lon="5.468745"><ele></ele><time>2014-4-5T16:16:41Z</time></trkpt>
<trkpt lat="43.816452" lon="5.468752"><ele></ele><time>2014-4-5T16:16:44Z</time></trkpt>
<trkpt lat="43.816452" lon="5.468763"><ele></ele><time>2014-4-5T16:16:47Z</time></trkpt>
<trkpt lat="43.816448" lon="5.468772"><ele></ele><time>2014-4-5T16:16:50Z</time></trkpt>
<trkpt lat="43.816452" lon="5.468775"><ele></ele><time>2014-4-5T16:16:53Z</time></trkpt>
<trkpt lat="43.816452" lon="5.468775"><ele></ele><time>2014-4-5T16:16:56Z</time></trkpt>
<trkpt lat="43.816452" lon="5.468780"><ele></ele><time>2014-4-5T16:16:59Z</time></trkpt>
<trkpt lat="43.816452" lon="5.468780"><ele></ele><time>2014-4-5T16:17:2Z</time></trkpt>
<trkpt lat="43.816452" lon="5.468777"><ele></ele><time>2014-4-5T16:17:5Z</time></trkpt>
<trkpt lat="43.816452" lon="5.468792"><ele></ele><time>2014-4-5T16:17:8Z</time></trkpt>
<trkpt lat="43.816452" lon="5.468803"><ele></ele><time>2014-4-5T16:17:11Z</time></trkpt>
<trkpt lat="43.816448" lon="5.468810"><ele></ele><time>2014-4-5T16:17:14Z</time></trkpt>
<trkpt lat="43.816448" lon="5.468803"><ele></ele><time>2014-4-5T16:17:17Z</time></trkpt>
<trkpt lat="43.816452" lon="5.468798"><ele></ele><time>2014-4-5T16:17:20Z</time></trkpt>
<trkpt lat="43.816452" lon="5.468798"><ele></ele><time>2014-4-5T16:17:23Z</time></trkpt>
<trkpt lat="43.816452" lon="5.468808"><ele></ele><time>2014-4-5T16:17:26Z</time></trkpt>
<trkpt lat="43.816452" lon="5.468833"><ele></ele><time>2014-4-5T16:17:29Z</time></trkpt>
<trkpt lat="43.816448" lon="5.468858"><ele></ele><time>2014-4-5T16:17:32Z</time></trkpt>
<trkpt lat="43.816445" lon="5.468870"><ele></ele><time>2014-4-5T16:17:35Z</time></trkpt>
<trkpt lat="43.816445" lon="5.468880"><ele></ele><time>2014-4-5T16:17:38Z</time></trkpt>
<trkpt lat="43.816440" lon="5.468887"><ele></ele><time>2014-4-5T16:17:41Z</time></trkpt>
<trkpt lat="43.816445" lon="5.468870"><ele></ele><time>2014-4-5T16:17:44Z</time></trkpt>
<trkpt lat="43.816448" lon="5.468847"><ele></ele><time>2014-4-5T16:17:47Z</time></trkpt>
<trkpt lat="43.816448" lon="5.468832"><ele></ele><time>2014-4-5T16:17:50Z</time></trkpt>
<trkpt lat="43.816448" lon="5.468823"><ele></ele><time>2014-4-5T16:17:53Z</time></trkpt>
<trkpt lat="43.816457" lon="5.468823"><ele></ele><time>2014-4-5T16:17:56Z</time></trkpt>
<trkpt lat="43.816452" lon="5.468817"><ele></ele><time>2014-4-5T16:17:59Z</time></trkpt>
<trkpt lat="43.816452" lon="5.468813"><ele></ele><time>2014-4-5T16:18:2Z</time></trkpt>
<trkpt lat="43.816440" lon="5.468813"><ele></ele><time>2014-4-5T16:18:5Z</time></trkpt>
<trkpt lat="43.816410" lon="5.468837"><ele></ele><time>2014-4-5T16:18:8Z</time></trkpt>
<trkpt lat="43.816383" lon="5.468867"><ele></ele><time>2014-4-5T16:18:11Z</time></trkpt>
<trkpt lat="43.816357" lon="5.468883"><ele></ele><time>2014-4-5T16:18:14Z</time></trkpt>
<trkpt lat="43.816307" lon="5.468937"><ele></ele><time>2014-4-5T16:18:17Z</time></trkpt>
<trkpt lat="43.816227" lon="5.468995"><ele></ele><time>2014-4-5T16:18:20Z</time></trkpt>
<trkpt lat="43.816150" lon="5.469048"><ele></ele><time>2014-4-5T16:18:23Z</time></trkpt>
<trkpt lat="43.816070" lon="5.469110"><ele></ele><time>2014-4-5T16:18:26Z</time></trkpt>
<trkpt lat="43.815998" lon="5.469178"><ele></ele><time>2014-4-5T16:18:29Z</time></trkpt>
<trkpt lat="43.815922" lon="5.469255"><ele></ele><time>2014-4-5T16:18:32Z</time></trkpt>
<trkpt lat="43.815827" lon="5.469315"><ele></ele><time>2014-4-5T16:18:35Z</time></trkpt>
<trkpt lat="43.815738" lon="5.469370"><ele></ele><time>2014-4-5T16:18:38Z</time></trkpt>
<trkpt lat="43.815667" lon="5.469425"><ele></ele><time>2014-4-5T16:18:41Z</time></trkpt>
<trkpt lat="43.815602" lon="5.469470"><ele></ele><time>2014-4-5T16:18:44Z</time></trkpt>
<trkpt lat="43.815578" lon="5.469483"><ele></ele><time>2014-4-5T16:18:47Z</time></trkpt>
<trkpt lat="43.815578" lon="5.469483"><ele></ele><time>2014-4-5T16:18:50Z</time></trkpt>
<trkpt lat="43.815582" lon="5.469485"><ele></ele><time>2014-4-5T16:18:53Z</time></trkpt>
<trkpt lat="43.815582" lon="5.469483"><ele></ele><time>2014-4-5T16:18:56Z</time></trkpt>
<trkpt lat="43.815570" lon="5.469498"><ele></ele><time>2014-4-5T16:18:59Z</time></trkpt>
<trkpt lat="43.815567" lon="5.469555"><ele></ele><time>2014-4-5T16:19:2Z</time></trkpt>
<trkpt lat="43.815563" lon="5.469663"><ele></ele><time>2014-4-5T16:19:5Z</time></trkpt>
<trkpt lat="43.815563" lon="5.469773"><ele></ele><time>2014-4-5T16:19:8Z</time></trkpt>
<trkpt lat="43.815540" lon="5.469877"><ele></ele><time>2014-4-5T16:19:11Z</time></trkpt>
<trkpt lat="43.815522" lon="5.469988"><ele></ele><time>2014-4-5T16:19:14Z</time></trkpt>
<trkpt lat="43.815510" lon="5.470097"><ele></ele><time>2014-4-5T16:19:17Z</time></trkpt>
<trkpt lat="43.815502" lon="5.470208"><ele></ele><time>2014-4-5T16:19:20Z</time></trkpt>
<trkpt lat="43.815483" lon="5.470310"><ele></ele><time>2014-4-5T16:19:23Z</time></trkpt>
<trkpt lat="43.815483" lon="5.470317"><ele></ele><time>2014-4-5T16:19:26Z</time></trkpt>
<trkpt lat="43.815483" lon="5.470320"><ele></ele><time>2014-4-5T16:19:29Z</time></trkpt>
<trkpt lat="43.815433" lon="5.470355"><ele></ele><time>2014-4-5T16:19:32Z</time></trkpt>
<trkpt lat="43.815418" lon="5.470378"><ele></ele><time>2014-4-5T16:19:35Z</time></trkpt>
<trkpt lat="43.815418" lon="5.470380"><ele></ele><time>2014-4-5T16:19:38Z</time></trkpt>
<trkpt lat="43.815418" lon="5.470378"><ele></ele><time>2014-4-5T16:19:41Z</time></trkpt>
<trkpt lat="43.815418" lon="5.470380"><ele></ele><time>2014-4-5T16:19:44Z</time></trkpt>
<trkpt lat="43.815418" lon="5.470380"><ele></ele><time>2014-4-5T16:19:47Z</time></trkpt>
<trkpt lat="43.815418" lon="5.470383"><ele></ele><time>2014-4-5T16:19:50Z</time></trkpt>
<trkpt lat="43.815418" lon="5.470385"><ele></ele><time>2014-4-5T16:19:53Z</time></trkpt>
<trkpt lat="43.815418" lon="5.470385"><ele></ele><time>2014-4-5T16:19:56Z</time></trkpt>
<trkpt lat="43.815415" lon="5.470393"><ele></ele><time>2014-4-5T16:19:59Z</time></trkpt>
<trkpt lat="43.815415" lon="5.470393"><ele></ele><time>2014-4-5T16:20:2Z</time></trkpt>
<trkpt lat="43.815415" lon="5.470392"><ele></ele><time>2014-4-5T16:20:5Z</time></trkpt>
<trkpt lat="43.815418" lon="5.470390"><ele></ele><time>2014-4-5T16:20:8Z</time></trkpt>
<trkpt lat="43.815415" lon="5.470392"><ele></ele><time>2014-4-5T16:20:11Z</time></trkpt>
<trkpt lat="43.815415" lon="5.470392"><ele></ele><time>2014-4-5T16:20:14Z</time></trkpt>
<trkpt lat="43.815415" lon="5.470393"><ele></ele><time>2014-4-5T16:20:17Z</time></trkpt>
<trkpt lat="43.815415" lon="5.470392"><ele></ele><time>2014-4-5T16:20:20Z</time></trkpt>
<trkpt lat="43.815410" lon="5.470392"><ele></ele><time>2014-4-5T16:20:23Z</time></trkpt>
<trkpt lat="43.815415" lon="5.470390"><ele></ele><time>2014-4-5T16:20:26Z</time></trkpt>
<trkpt lat="43.815415" lon="5.470390"><ele></ele><time>2014-4-5T16:20:29Z</time></trkpt>
<trkpt lat="43.815415" lon="5.470388"><ele></ele><time>2014-4-5T16:20:32Z</time></trkpt>
<trkpt lat="43.815415" lon="5.470388"><ele></ele><time>2014-4-5T16:20:35Z</time></trkpt>
<trkpt lat="43.815410" lon="5.470387"><ele></ele><time>2014-4-5T16:20:38Z</time></trkpt>
<trkpt lat="43.815410" lon="5.470387"><ele></ele><time>2014-4-5T16:20:41Z</time></trkpt>
<trkpt lat="43.815410" lon="5.470387"><ele></ele><time>2014-4-5T16:20:44Z</time></trkpt>
<trkpt lat="43.815407" lon="5.470387"><ele></ele><time>2014-4-5T16:20:47Z</time></trkpt>
<trkpt lat="43.815410" lon="5.470388"><ele></ele><time>2014-4-5T16:20:50Z</time></trkpt>
<trkpt lat="43.815407" lon="5.470387"><ele></ele><time>2014-4-5T16:20:53Z</time></trkpt>
<trkpt lat="43.815407" lon="5.470387"><ele></ele><time>2014-4-5T16:20:56Z</time></trkpt>
<trkpt lat="43.815407" lon="5.470387"><ele></ele><time>2014-4-5T16:20:59Z</time></trkpt>
<trkpt lat="43.815407" lon="5.470387"><ele></ele><time>2014-4-5T16:21:2Z</time></trkpt>
<trkpt lat="43.815407" lon="5.470387"><ele></ele><time>2014-4-5T16:21:5Z</time></trkpt>
<trkpt lat="43.815407" lon="5.470387"><ele></ele><time>2014-4-5T16:21:8Z</time></trkpt>
<trkpt lat="43.815407" lon="5.470387"><ele></ele><time>2014-4-5T16:21:11Z</time></trkpt>
<trkpt lat="43.815403" lon="5.470385"><ele></ele><time>2014-4-5T16:21:14Z</time></trkpt>
<trkpt lat="43.815400" lon="5.470385"><ele></ele><time>2014-4-5T16:21:17Z</time></trkpt>
<trkpt lat="43.815400" lon="5.470383"><ele></ele><time>2014-4-5T16:21:20Z</time></trkpt>
<trkpt lat="43.815400" lon="5.470382"><ele></ele><time>2014-4-5T16:21:23Z</time></trkpt>
<trkpt lat="43.815395" lon="5.470380"><ele></ele><time>2014-4-5T16:21:26Z</time></trkpt>
<trkpt lat="43.815395" lon="5.470380"><ele></ele><time>2014-4-5T16:21:29Z</time></trkpt>
<trkpt lat="43.815418" lon="5.470410"><ele></ele><time>2014-4-5T16:21:32Z</time></trkpt>
<trkpt lat="43.815475" lon="5.470377"><ele></ele><time>2014-4-5T16:21:35Z</time></trkpt>
<trkpt lat="43.815517" lon="5.470325"><ele></ele><time>2014-4-5T16:21:38Z</time></trkpt>
<trkpt lat="43.815578" lon="5.470257"><ele></ele><time>2014-4-5T16:21:41Z</time></trkpt>
<trkpt lat="43.815578" lon="5.470170"><ele></ele><time>2014-4-5T16:21:44Z</time></trkpt>
<trkpt lat="43.815567" lon="5.470062"><ele></ele><time>2014-4-5T16:21:47Z</time></trkpt>
<trkpt lat="43.815563" lon="5.469928"><ele></ele><time>2014-4-5T16:21:50Z</time></trkpt>
<trkpt lat="43.815510" lon="5.469738"><ele></ele><time>2014-4-5T16:21:53Z</time></trkpt>
<trkpt lat="43.815448" lon="5.469555"><ele></ele><time>2014-4-5T16:21:56Z</time></trkpt>
<trkpt lat="43.815377" lon="5.469448"><ele></ele><time>2014-4-5T16:21:59Z</time></trkpt>
<trkpt lat="43.815318" lon="5.469388"><ele></ele><time>2014-4-5T16:22:2Z</time></trkpt>
<trkpt lat="43.815277" lon="5.469303"><ele></ele><time>2014-4-5T16:22:5Z</time></trkpt>
<trkpt lat="43.815238" lon="5.469225"><ele></ele><time>2014-4-5T16:22:8Z</time></trkpt>
<trkpt lat="43.815190" lon="5.469152"><ele></ele><time>2014-4-5T16:22:11Z</time></trkpt>
<trkpt lat="43.815140" lon="5.469078"><ele></ele><time>2014-4-5T16:22:14Z</time></trkpt>
<trkpt lat="43.815083" lon="5.469015"><ele></ele><time>2014-4-5T16:22:17Z</time></trkpt>
<trkpt lat="43.815033" lon="5.468958"><ele></ele><time>2014-4-5T16:22:20Z</time></trkpt>
<trkpt lat="43.814980" lon="5.468910"><ele></ele><time>2014-4-5T16:22:23Z</time></trkpt>
<trkpt lat="43.814933" lon="5.468843"><ele></ele><time>2014-4-5T16:22:26Z</time></trkpt>
<trkpt lat="43.814880" lon="5.468785"><ele></ele><time>2014-4-5T16:22:29Z</time></trkpt>
<trkpt lat="43.814835" lon="5.468715"><ele></ele><time>2014-4-5T16:22:32Z</time></trkpt>
<trkpt lat="43.814785" lon="5.468645"><ele></ele><time>2014-4-5T16:22:35Z</time></trkpt>
<trkpt lat="43.814728" lon="5.468587"><ele></ele><time>2014-4-5T16:22:38Z</time></trkpt>
<trkpt lat="43.814675" lon="5.468517"><ele></ele><time>2014-4-5T16:22:41Z</time></trkpt>
<trkpt lat="43.814625" lon="5.468435"><ele></ele><time>2014-4-5T16:22:44Z</time></trkpt>
<trkpt lat="43.814578" lon="5.468358"><ele></ele><time>2014-4-5T16:22:47Z</time></trkpt>
<trkpt lat="43.814533" lon="5.468277"><ele></ele><time>2014-4-5T16:22:50Z</time></trkpt>
<trkpt lat="43.814492" lon="5.468188"><ele></ele><time>2014-4-5T16:22:53Z</time></trkpt>
<trkpt lat="43.814457" lon="5.468097"><ele></ele><time>2014-4-5T16:22:56Z</time></trkpt>
<trkpt lat="43.814433" lon="5.468003"><ele></ele><time>2014-4-5T16:22:59Z</time></trkpt>
<trkpt lat="43.814427" lon="5.467905"><ele></ele><time>2014-4-5T16:23:2Z</time></trkpt>
<trkpt lat="43.814415" lon="5.467813"><ele></ele><time>2014-4-5T16:23:5Z</time></trkpt>
<trkpt lat="43.814430" lon="5.467715"><ele></ele><time>2014-4-5T16:23:8Z</time></trkpt>
<trkpt lat="43.814450" lon="5.467613"><ele></ele><time>2014-4-5T16:23:11Z</time></trkpt>
<trkpt lat="43.814468" lon="5.467522"><ele></ele><time>2014-4-5T16:23:14Z</time></trkpt>
<trkpt lat="43.814498" lon="5.467447"><ele></ele><time>2014-4-5T16:23:17Z</time></trkpt>
<trkpt lat="43.814530" lon="5.467365"><ele></ele><time>2014-4-5T16:23:20Z</time></trkpt>
<trkpt lat="43.814578" lon="5.467287"><ele></ele><time>2014-4-5T16:23:23Z</time></trkpt>
<trkpt lat="43.814632" lon="5.467210"><ele></ele><time>2014-4-5T16:23:26Z</time></trkpt>
<trkpt lat="43.814697" lon="5.467143"><ele></ele><time>2014-4-5T16:23:29Z</time></trkpt>
<trkpt lat="43.814770" lon="5.467097"><ele></ele><time>2014-4-5T16:23:32Z</time></trkpt>
<trkpt lat="43.814842" lon="5.467055"><ele></ele><time>2014-4-5T16:23:35Z</time></trkpt>
<trkpt lat="43.814915" lon="5.467027"><ele></ele><time>2014-4-5T16:23:38Z</time></trkpt>
<trkpt lat="43.814992" lon="5.467000"><ele></ele><time>2014-4-5T16:23:41Z</time></trkpt>
<trkpt lat="43.815072" lon="5.466983"><ele></ele><time>2014-4-5T16:23:44Z</time></trkpt>
<trkpt lat="43.815140" lon="5.466978"><ele></ele><time>2014-4-5T16:23:47Z</time></trkpt>
<trkpt lat="43.815163" lon="5.467072"><ele></ele><time>2014-4-5T16:23:50Z</time></trkpt>
<trkpt lat="43.815167" lon="5.467168"><ele></ele><time>2014-4-5T16:23:53Z</time></trkpt>
<trkpt lat="43.815158" lon="5.467270"><ele></ele><time>2014-4-5T16:23:56Z</time></trkpt>
<trkpt lat="43.815155" lon="5.467365"><ele></ele><time>2014-4-5T16:23:59Z</time></trkpt>
<trkpt lat="43.815173" lon="5.467475"><ele></ele><time>2014-4-5T16:24:2Z</time></trkpt>
<trkpt lat="43.815212" lon="5.467568"><ele></ele><time>2014-4-5T16:24:5Z</time></trkpt>
<trkpt lat="43.815217" lon="5.467603"><ele></ele><time>2014-4-5T16:24:8Z</time></trkpt>
<trkpt lat="43.815217" lon="5.467615"><ele></ele><time>2014-4-5T16:24:11Z</time></trkpt>
<trkpt lat="43.815212" lon="5.467625"><ele></ele><time>2014-4-5T16:24:14Z</time></trkpt>
<trkpt lat="43.815220" lon="5.467625"><ele></ele><time>2014-4-5T16:24:17Z</time></trkpt>
<trkpt lat="43.815205" lon="5.467605"><ele></ele><time>2014-4-5T16:24:20Z</time></trkpt>
<trkpt lat="43.815205" lon="5.467608"><ele></ele><time>2014-4-5T16:24:23Z</time></trkpt>
<trkpt lat="43.815193" lon="5.467603"><ele></ele><time>2014-4-5T16:24:26Z</time></trkpt>
<trkpt lat="43.815193" lon="5.467605"><ele></ele><time>2014-4-5T16:24:29Z</time></trkpt>
<trkpt lat="43.815193" lon="5.467607"><ele></ele><time>2014-4-5T16:24:32Z</time></trkpt>
<trkpt lat="43.815197" lon="5.467613"><ele></ele><time>2014-4-5T16:24:35Z</time></trkpt>
<trkpt lat="43.815197" lon="5.467612"><ele></ele><time>2014-4-5T16:24:38Z</time></trkpt>
<trkpt lat="43.815200" lon="5.467620"><ele></ele><time>2014-4-5T16:24:41Z</time></trkpt>
<trkpt lat="43.815212" lon="5.467607"><ele></ele><time>2014-4-5T16:24:44Z</time></trkpt>
<trkpt lat="43.815212" lon="5.467607"><ele></ele><time>2014-4-5T16:24:47Z</time></trkpt>
<trkpt lat="43.815212" lon="5.467612"><ele></ele><time>2014-4-5T16:24:50Z</time></trkpt>
<trkpt lat="43.815212" lon="5.467612"><ele></ele><time>2014-4-5T16:24:53Z</time></trkpt>
<trkpt lat="43.815212" lon="5.467610"><ele></ele><time>2014-4-5T16:24:56Z</time></trkpt>
<trkpt lat="43.815212" lon="5.467610"><ele></ele><time>2014-4-5T16:24:59Z</time></trkpt>
<trkpt lat="43.815200" lon="5.467637"><ele></ele><time>2014-4-5T16:25:2Z</time></trkpt>
<trkpt lat="43.815170" lon="5.467597"><ele></ele><time>2014-4-5T16:25:5Z</time></trkpt>
<trkpt lat="43.815167" lon="5.467600"><ele></ele><time>2014-4-5T16:25:8Z</time></trkpt>
<trkpt lat="43.815167" lon="5.467602"><ele></ele><time>2014-4-5T16:25:11Z</time></trkpt>
<trkpt lat="43.815167" lon="5.467602"><ele></ele><time>2014-4-5T16:25:14Z</time></trkpt>
<trkpt lat="43.815167" lon="5.467602"><ele></ele><time>2014-4-5T16:25:17Z</time></trkpt>
<trkpt lat="43.815167" lon="5.467602"><ele></ele><time>2014-4-5T16:25:20Z</time></trkpt>
<trkpt lat="43.815167" lon="5.467600"><ele></ele><time>2014-4-5T16:25:23Z</time></trkpt>
<trkpt lat="43.815167" lon="5.467600"><ele></ele><time>2014-4-5T16:25:26Z</time></trkpt>
<trkpt lat="43.815167" lon="5.467598"><ele></ele><time>2014-4-5T16:25:29Z</time></trkpt>
<trkpt lat="43.815167" lon="5.467597"><ele></ele><time>2014-4-5T16:25:32Z</time></trkpt>
<trkpt lat="43.815167" lon="5.467595"><ele></ele><time>2014-4-5T16:25:35Z</time></trkpt>
<trkpt lat="43.815167" lon="5.467593"><ele></ele><time>2014-4-5T16:25:38Z</time></trkpt>
<trkpt lat="43.815173" lon="5.467573"><ele></ele><time>2014-4-5T16:25:41Z</time></trkpt>
<trkpt lat="43.815167" lon="5.467488"><ele></ele><time>2014-4-5T16:25:44Z</time></trkpt>
<trkpt lat="43.815155" lon="5.467405"><ele></ele><time>2014-4-5T16:25:47Z</time></trkpt>
<trkpt lat="43.815125" lon="5.467430"><ele></ele><time>2014-4-5T16:25:50Z</time></trkpt>
<trkpt lat="43.815143" lon="5.467520"><ele></ele><time>2014-4-5T16:25:53Z</time></trkpt>
<trkpt lat="43.815182" lon="5.467578"><ele></ele><time>2014-4-5T16:25:56Z</time></trkpt>
<trkpt lat="43.815200" lon="5.467602"><ele></ele><time>2014-4-5T16:25:59Z</time></trkpt>
<trkpt lat="43.815200" lon="5.467602"><ele></ele><time>2014-4-5T16:26:2Z</time></trkpt>
<trkpt lat="43.815200" lon="5.467602"><ele></ele><time>2014-4-5T16:26:5Z</time></trkpt>
<trkpt lat="43.815200" lon="5.467602"><ele></ele><time>2014-4-5T16:26:8Z</time></trkpt>
<trkpt lat="43.815200" lon="5.467602"><ele></ele><time>2014-4-5T16:26:11Z</time></trkpt>
<trkpt lat="43.815200" lon="5.467602"><ele></ele><time>2014-4-5T16:26:14Z</time></trkpt>
<trkpt lat="43.815200" lon="5.467600"><ele></ele><time>2014-4-5T16:26:17Z</time></trkpt>
<trkpt lat="43.815212" lon="5.467647"><ele></ele><time>2014-4-5T16:26:20Z</time></trkpt>
<trkpt lat="43.815247" lon="5.467755"><ele></ele><time>2014-4-5T16:26:23Z</time></trkpt>
<trkpt lat="43.815185" lon="5.467880"><ele></ele><time>2014-4-5T16:26:26Z</time></trkpt>
<trkpt lat="43.815190" lon="5.467923"><ele></ele><time>2014-4-5T16:26:29Z</time></trkpt>
<trkpt lat="43.815182" lon="5.468043"><ele></ele><time>2014-4-5T16:26:32Z</time></trkpt>
<trkpt lat="43.815182" lon="5.468183"><ele></ele><time>2014-4-5T16:26:35Z</time></trkpt>
<trkpt lat="43.815178" lon="5.468318"><ele></ele><time>2014-4-5T16:26:38Z</time></trkpt>
<trkpt lat="43.815182" lon="5.468442"><ele></ele><time>2014-4-5T16:26:41Z</time></trkpt>
<trkpt lat="43.815193" lon="5.468563"><ele></ele><time>2014-4-5T16:26:44Z</time></trkpt>
<trkpt lat="43.815193" lon="5.468698"><ele></ele><time>2014-4-5T16:26:47Z</time></trkpt>
<trkpt lat="43.815197" lon="5.468848"><ele></ele><time>2014-4-5T16:26:50Z</time></trkpt>
<trkpt lat="43.815190" lon="5.469000"><ele></ele><time>2014-4-5T16:26:53Z</time></trkpt>
<trkpt lat="43.815190" lon="5.469127"><ele></ele><time>2014-4-5T16:26:56Z</time></trkpt>
<trkpt lat="43.815262" lon="5.469247"><ele></ele><time>2014-4-5T16:26:59Z</time></trkpt>
<trkpt lat="43.815335" lon="5.469372"><ele></ele><time>2014-4-5T16:27:2Z</time></trkpt>
<trkpt lat="43.815437" lon="5.469505"><ele></ele><time>2014-4-5T16:27:5Z</time></trkpt>
<trkpt lat="43.815578" lon="5.469502"><ele></ele><time>2014-4-5T16:27:8Z</time></trkpt>
<trkpt lat="43.815693" lon="5.469423"><ele></ele><time>2014-4-5T16:27:11Z</time></trkpt>
<trkpt lat="43.815807" lon="5.469333"><ele></ele><time>2014-4-5T16:27:14Z</time></trkpt>
<trkpt lat="43.815942" lon="5.469230"><ele></ele><time>2014-4-5T16:27:17Z</time></trkpt>
<trkpt lat="43.816055" lon="5.469117"><ele></ele><time>2014-4-5T16:27:20Z</time></trkpt>
<trkpt lat="43.816167" lon="5.468990"><ele></ele><time>2014-4-5T16:27:23Z</time></trkpt>
<trkpt lat="43.816280" lon="5.468887"><ele></ele><time>2014-4-5T16:27:26Z</time></trkpt>
<trkpt lat="43.816392" lon="5.468775"><ele></ele><time>2014-4-5T16:27:29Z</time></trkpt>
<trkpt lat="43.816467" lon="5.468700"><ele></ele><time>2014-4-5T16:27:32Z</time></trkpt>
<trkpt lat="43.816510" lon="5.468653"><ele></ele><time>2014-4-5T16:27:35Z</time></trkpt>
<trkpt lat="43.816552" lon="5.468607"><ele></ele><time>2014-4-5T16:27:38Z</time></trkpt>
<trkpt lat="43.816620" lon="5.468552"><ele></ele><time>2014-4-5T16:27:41Z</time></trkpt>
<trkpt lat="43.816708" lon="5.468487"><ele></ele><time>2014-4-5T16:27:44Z</time></trkpt>
<trkpt lat="43.816807" lon="5.468402"><ele></ele><time>2014-4-5T16:27:47Z</time></trkpt>
<trkpt lat="43.816917" lon="5.468345"><ele></ele><time>2014-4-5T16:27:50Z</time></trkpt>
<trkpt lat="43.817032" lon="5.468283"><ele></ele><time>2014-4-5T16:27:53Z</time></trkpt>
<trkpt lat="43.817177" lon="5.468212"><ele></ele><time>2014-4-5T16:27:56Z</time></trkpt>
<trkpt lat="43.817322" lon="5.468152"><ele></ele><time>2014-4-5T16:27:59Z</time></trkpt>
<trkpt lat="43.817432" lon="5.468103"><ele></ele><time>2014-4-5T16:28:2Z</time></trkpt>
<trkpt lat="43.817555" lon="5.468043"><ele></ele><time>2014-4-5T16:28:5Z</time></trkpt>
<trkpt lat="43.817677" lon="5.468000"><ele></ele><time>2014-4-5T16:28:8Z</time></trkpt>
<trkpt lat="43.817802" lon="5.467965"><ele></ele><time>2014-4-5T16:28:11Z</time></trkpt>
<trkpt lat="43.817932" lon="5.467935"><ele></ele><time>2014-4-5T16:28:14Z</time></trkpt>
<trkpt lat="43.818047" lon="5.467917"><ele></ele><time>2014-4-5T16:28:17Z</time></trkpt>
<trkpt lat="43.818172" lon="5.467907"><ele></ele><time>2014-4-5T16:28:20Z</time></trkpt>
<trkpt lat="43.818310" lon="5.467897"><ele></ele><time>2014-4-5T16:28:23Z</time></trkpt>
<trkpt lat="43.818455" lon="5.467877"><ele></ele><time>2014-4-5T16:28:26Z</time></trkpt>
<trkpt lat="43.818603" lon="5.467838"><ele></ele><time>2014-4-5T16:28:29Z</time></trkpt>
<trkpt lat="43.818733" lon="5.467792"><ele></ele><time>2014-4-5T16:28:32Z</time></trkpt>
<trkpt lat="43.818875" lon="5.467727"><ele></ele><time>2014-4-5T16:28:35Z</time></trkpt>
<trkpt lat="43.819027" lon="5.467645"><ele></ele><time>2014-4-5T16:28:38Z</time></trkpt>
<trkpt lat="43.819142" lon="5.467577"><ele></ele><time>2014-4-5T16:28:41Z</time></trkpt>
<trkpt lat="43.819267" lon="5.467490"><ele></ele><time>2014-4-5T16:28:44Z</time></trkpt>
<trkpt lat="43.819363" lon="5.467412"><ele></ele><time>2014-4-5T16:28:47Z</time></trkpt>
<trkpt lat="43.819370" lon="5.467410"><ele></ele><time>2014-4-5T16:28:50Z</time></trkpt>
<trkpt lat="43.819373" lon="5.467413"><ele></ele><time>2014-4-5T16:28:53Z</time></trkpt>
<trkpt lat="43.819378" lon="5.467418"><ele></ele><time>2014-4-5T16:28:56Z</time></trkpt>
<trkpt lat="43.819382" lon="5.467423"><ele></ele><time>2014-4-5T16:28:59Z</time></trkpt>
<trkpt lat="43.819382" lon="5.467427"><ele></ele><time>2014-4-5T16:29:2Z</time></trkpt>
<trkpt lat="43.819385" lon="5.467428"><ele></ele><time>2014-4-5T16:29:5Z</time></trkpt>
<trkpt lat="43.819390" lon="5.467425"><ele></ele><time>2014-4-5T16:29:8Z</time></trkpt>
<trkpt lat="43.819390" lon="5.467422"><ele></ele><time>2014-4-5T16:29:11Z</time></trkpt>
<trkpt lat="43.819390" lon="5.467420"><ele></ele><time>2014-4-5T16:29:14Z</time></trkpt>
<trkpt lat="43.819385" lon="5.467420"><ele></ele><time>2014-4-5T16:29:17Z</time></trkpt>
<trkpt lat="43.819385" lon="5.467422"><ele></ele><time>2014-4-5T16:29:20Z</time></trkpt>
<trkpt lat="43.819385" lon="5.467422"><ele></ele><time>2014-4-5T16:29:23Z</time></trkpt>
<trkpt lat="43.819385" lon="5.467422"><ele></ele><time>2014-4-5T16:29:26Z</time></trkpt>
<trkpt lat="43.819382" lon="5.467423"><ele></ele><time>2014-4-5T16:29:29Z</time></trkpt>
<trkpt lat="43.819382" lon="5.467422"><ele></ele><time>2014-4-5T16:29:32Z</time></trkpt>
<trkpt lat="43.819382" lon="5.467422"><ele></ele><time>2014-4-5T16:29:35Z</time></trkpt>
<trkpt lat="43.819378" lon="5.467422"><ele></ele><time>2014-4-5T16:29:38Z</time></trkpt>
<trkpt lat="43.819378" lon="5.467422"><ele></ele><time>2014-4-5T16:29:41Z</time></trkpt>
<trkpt lat="43.819378" lon="5.467422"><ele></ele><time>2014-4-5T16:29:44Z</time></trkpt>
<trkpt lat="43.819378" lon="5.467422"><ele></ele><time>2014-4-5T16:29:47Z</time></trkpt>
<trkpt lat="43.819378" lon="5.467422"><ele></ele><time>2014-4-5T16:29:50Z</time></trkpt>
<trkpt lat="43.819378" lon="5.467420"><ele></ele><time>2014-4-5T16:29:53Z</time></trkpt>
<trkpt lat="43.819378" lon="5.467422"><ele></ele><time>2014-4-5T16:29:56Z</time></trkpt>
<trkpt lat="43.819378" lon="5.467413"><ele></ele><time>2014-4-5T16:29:59Z</time></trkpt>
<trkpt lat="43.819432" lon="5.467362"><ele></ele><time>2014-4-5T16:30:2Z</time></trkpt>
<trkpt lat="43.819518" lon="5.467272"><ele></ele><time>2014-4-5T16:30:5Z</time></trkpt>
<trkpt lat="43.819627" lon="5.467130"><ele></ele><time>2014-4-5T16:30:8Z</time></trkpt>
<trkpt lat="43.819710" lon="5.466992"><ele></ele><time>2014-4-5T16:30:11Z</time></trkpt>
<trkpt lat="43.819770" lon="5.466880"><ele></ele><time>2014-4-5T16:30:14Z</time></trkpt>
<trkpt lat="43.819805" lon="5.466747"><ele></ele><time>2014-4-5T16:30:17Z</time></trkpt>
<trkpt lat="43.819825" lon="5.466610"><ele></ele><time>2014-4-5T16:30:20Z</time></trkpt>
<trkpt lat="43.819805" lon="5.466438"><ele></ele><time>2014-4-5T16:30:23Z</time></trkpt>
<trkpt lat="43.819760" lon="5.466332"><ele></ele><time>2014-4-5T16:30:26Z</time></trkpt>
<trkpt lat="43.819707" lon="5.466215"><ele></ele><time>2014-4-5T16:30:29Z</time></trkpt>
<trkpt lat="43.819637" lon="5.466060"><ele></ele><time>2014-4-5T16:30:32Z</time></trkpt>
<trkpt lat="43.819577" lon="5.465878"><ele></ele><time>2014-4-5T16:30:35Z</time></trkpt>
<trkpt lat="43.819500" lon="5.465657"><ele></ele><time>2014-4-5T16:30:38Z</time></trkpt>
<trkpt lat="43.819458" lon="5.465400"><ele></ele><time>2014-4-5T16:30:41Z</time></trkpt>
<trkpt lat="43.819447" lon="5.465182"><ele></ele><time>2014-4-5T16:30:44Z</time></trkpt>
<trkpt lat="43.819458" lon="5.465037"><ele></ele><time>2014-4-5T16:30:47Z</time></trkpt>
<trkpt lat="43.819477" lon="5.464952"><ele></ele><time>2014-4-5T16:30:50Z</time></trkpt>
<trkpt lat="43.819508" lon="5.464797"><ele></ele><time>2014-4-5T16:30:53Z</time></trkpt>
<trkpt lat="43.819545" lon="5.464628"><ele></ele><time>2014-4-5T16:30:56Z</time></trkpt>
<trkpt lat="43.819603" lon="5.464472"><ele></ele><time>2014-4-5T16:30:59Z</time></trkpt>
<trkpt lat="43.819660" lon="5.464317"><ele></ele><time>2014-4-5T16:31:2Z</time></trkpt>
<trkpt lat="43.819722" lon="5.464158"><ele></ele><time>2014-4-5T16:31:5Z</time></trkpt>
<trkpt lat="43.819767" lon="5.464028"><ele></ele><time>2014-4-5T16:31:8Z</time></trkpt>
<trkpt lat="43.819808" lon="5.463908"><ele></ele><time>2014-4-5T16:31:11Z</time></trkpt>
<trkpt lat="43.819855" lon="5.463720"><ele></ele><time>2014-4-5T16:31:14Z</time></trkpt>
<trkpt lat="43.819885" lon="5.463590"><ele></ele><time>2014-4-5T16:31:17Z</time></trkpt>
<trkpt lat="43.819912" lon="5.463417"><ele></ele><time>2014-4-5T16:31:20Z</time></trkpt>
<trkpt lat="43.819920" lon="5.463210"><ele></ele><time>2014-4-5T16:31:23Z</time></trkpt>
<trkpt lat="43.819885" lon="5.463000"><ele></ele><time>2014-4-5T16:31:26Z</time></trkpt>
<trkpt lat="43.819835" lon="5.462817"><ele></ele><time>2014-4-5T16:31:29Z</time></trkpt>
<trkpt lat="43.819787" lon="5.462650"><ele></ele><time>2014-4-5T16:31:32Z</time></trkpt>
<trkpt lat="43.819717" lon="5.462472"><ele></ele><time>2014-4-5T16:31:35Z</time></trkpt>
<trkpt lat="43.819648" lon="5.462290"><ele></ele><time>2014-4-5T16:31:38Z</time></trkpt>
<trkpt lat="43.819583" lon="5.462078"><ele></ele><time>2014-4-5T16:31:41Z</time></trkpt>
<trkpt lat="43.819542" lon="5.461857"><ele></ele><time>2014-4-5T16:31:44Z</time></trkpt>
<trkpt lat="43.819500" lon="5.461605"><ele></ele><time>2014-4-5T16:31:47Z</time></trkpt>
<trkpt lat="43.819477" lon="5.461312"><ele></ele><time>2014-4-5T16:31:50Z</time></trkpt>
<trkpt lat="43.819497" lon="5.461060"><ele></ele><time>2014-4-5T16:31:53Z</time></trkpt>
<trkpt lat="43.819477" lon="5.460897"><ele></ele><time>2014-4-5T16:31:56Z</time></trkpt>
<trkpt lat="43.819443" lon="5.460732"><ele></ele><time>2014-4-5T16:31:59Z</time></trkpt>
<trkpt lat="43.819385" lon="5.460548"><ele></ele><time>2014-4-5T16:32:2Z</time></trkpt>
<trkpt lat="43.819337" lon="5.460338"><ele></ele><time>2014-4-5T16:32:5Z</time></trkpt>
<trkpt lat="43.819252" lon="5.460122"><ele></ele><time>2014-4-5T16:32:8Z</time></trkpt>
<trkpt lat="43.819168" lon="5.459877"><ele></ele><time>2014-4-5T16:32:11Z</time></trkpt>
<trkpt lat="43.819085" lon="5.459612"><ele></ele><time>2014-4-5T16:32:14Z</time></trkpt>
<trkpt lat="43.819020" lon="5.459333"><ele></ele><time>2014-4-5T16:32:17Z</time></trkpt>
<trkpt lat="43.818970" lon="5.459045"><ele></ele><time>2014-4-5T16:32:20Z</time></trkpt>
<trkpt lat="43.818947" lon="5.458737"><ele></ele><time>2014-4-5T16:32:23Z</time></trkpt>
<trkpt lat="43.818958" lon="5.458413"><ele></ele><time>2014-4-5T16:32:26Z</time></trkpt>
<trkpt lat="43.819015" lon="5.458192"><ele></ele><time>2014-4-5T16:32:29Z</time></trkpt>
<trkpt lat="43.819092" lon="5.458010"><ele></ele><time>2014-4-5T16:32:32Z</time></trkpt>
<trkpt lat="43.819195" lon="5.457787"><ele></ele><time>2014-4-5T16:32:35Z</time></trkpt>
<trkpt lat="43.819313" lon="5.457487"><ele></ele><time>2014-4-5T16:32:38Z</time></trkpt>
<trkpt lat="43.819417" lon="5.457225"><ele></ele><time>2014-4-5T16:32:41Z</time></trkpt>
<trkpt lat="43.819508" lon="5.456983"><ele></ele><time>2014-4-5T16:32:44Z</time></trkpt>
<trkpt lat="43.819583" lon="5.456688"><ele></ele><time>2014-4-5T16:32:47Z</time></trkpt>
<trkpt lat="43.819568" lon="5.456320"><ele></ele><time>2014-4-5T16:32:50Z</time></trkpt>
<trkpt lat="43.819492" lon="5.455967"><ele></ele><time>2014-4-5T16:32:53Z</time></trkpt>
<trkpt lat="43.819450" lon="5.455682"><ele></ele><time>2014-4-5T16:32:56Z</time></trkpt>
<trkpt lat="43.819443" lon="5.455372"><ele></ele><time>2014-4-5T16:32:59Z</time></trkpt>
<trkpt lat="43.819470" lon="5.455022"><ele></ele><time>2014-4-5T16:33:2Z</time></trkpt>
<trkpt lat="43.819477" lon="5.454615"><ele></ele><time>2014-4-5T16:33:5Z</time></trkpt>
<trkpt lat="43.819432" lon="5.454232"><ele></ele><time>2014-4-5T16:33:8Z</time></trkpt>
<trkpt lat="43.819390" lon="5.453865"><ele></ele><time>2014-4-5T16:33:11Z</time></trkpt>
<trkpt lat="43.819337" lon="5.453503"><ele></ele><time>2014-4-5T16:33:14Z</time></trkpt>
<trkpt lat="43.819210" lon="5.453160"><ele></ele><time>2014-4-5T16:33:17Z</time></trkpt>
<trkpt lat="43.819145" lon="5.452792"><ele></ele><time>2014-4-5T16:33:20Z</time></trkpt>
<trkpt lat="43.819103" lon="5.452433"><ele></ele><time>2014-4-5T16:33:23Z</time></trkpt>
<trkpt lat="43.819088" lon="5.452087"><ele></ele><time>2014-4-5T16:33:26Z</time></trkpt>
<trkpt lat="43.819030" lon="5.451720"><ele></ele><time>2014-4-5T16:33:29Z</time></trkpt>
<trkpt lat="43.818928" lon="5.451308"><ele></ele><time>2014-4-5T16:33:32Z</time></trkpt>
<trkpt lat="43.818783" lon="5.450912"><ele></ele><time>2014-4-5T16:33:35Z</time></trkpt>
<trkpt lat="43.818573" lon="5.450555"><ele></ele><time>2014-4-5T16:33:38Z</time></trkpt>
<trkpt lat="43.818302" lon="5.450248"><ele></ele><time>2014-4-5T16:33:41Z</time></trkpt>
<trkpt lat="43.818150" lon="5.449877"><ele></ele><time>2014-4-5T16:33:44Z</time></trkpt>
<trkpt lat="43.818218" lon="5.449455"><ele></ele><time>2014-4-5T16:33:47Z</time></trkpt>
<trkpt lat="43.818367" lon="5.449093"><ele></ele><time>2014-4-5T16:33:50Z</time></trkpt>
<trkpt lat="43.818455" lon="5.448698"><ele></ele><time>2014-4-5T16:33:53Z</time></trkpt>
<trkpt lat="43.818428" lon="5.448460"><ele></ele><time>2014-4-5T16:33:56Z</time></trkpt>
<trkpt lat="43.818413" lon="5.448445"><ele></ele><time>2014-4-5T16:33:59Z</time></trkpt>
<trkpt lat="43.818408" lon="5.448462"><ele></ele><time>2014-4-5T16:34:2Z</time></trkpt>
<trkpt lat="43.818408" lon="5.448462"><ele></ele><time>2014-4-5T16:34:5Z</time></trkpt>
<trkpt lat="43.818408" lon="5.448465"><ele></ele><time>2014-4-5T16:34:8Z</time></trkpt>
<trkpt lat="43.818408" lon="5.448468"><ele></ele><time>2014-4-5T16:34:11Z</time></trkpt>
<trkpt lat="43.818413" lon="5.448477"><ele></ele><time>2014-4-5T16:34:14Z</time></trkpt>
<trkpt lat="43.818402" lon="5.448463"><ele></ele><time>2014-4-5T16:34:17Z</time></trkpt>
<trkpt lat="43.818393" lon="5.448458"><ele></ele><time>2014-4-5T16:34:20Z</time></trkpt>
<trkpt lat="43.818393" lon="5.448465"><ele></ele><time>2014-4-5T16:34:23Z</time></trkpt>
<trkpt lat="43.818393" lon="5.448467"><ele></ele><time>2014-4-5T16:34:26Z</time></trkpt>
<trkpt lat="43.818398" lon="5.448470"><ele></ele><time>2014-4-5T16:34:29Z</time></trkpt>
<trkpt lat="43.818398" lon="5.448472"><ele></ele><time>2014-4-5T16:34:32Z</time></trkpt>
<trkpt lat="43.818402" lon="5.448475"><ele></ele><time>2014-4-5T16:34:35Z</time></trkpt>
<trkpt lat="43.818402" lon="5.448477"><ele></ele><time>2014-4-5T16:34:38Z</time></trkpt>
<trkpt lat="43.818402" lon="5.448478"><ele></ele><time>2014-4-5T16:34:41Z</time></trkpt>
<trkpt lat="43.818402" lon="5.448480"><ele></ele><time>2014-4-5T16:34:44Z</time></trkpt>
<trkpt lat="43.818402" lon="5.448480"><ele></ele><time>2014-4-5T16:34:47Z</time></trkpt>
<trkpt lat="43.818402" lon="5.448480"><ele></ele><time>2014-4-5T16:34:50Z</time></trkpt>
<trkpt lat="43.818413" lon="5.448468"><ele></ele><time>2014-4-5T16:34:53Z</time></trkpt>
<trkpt lat="43.818420" lon="5.448493"><ele></ele><time>2014-4-5T16:34:56Z</time></trkpt>
<trkpt lat="43.818420" lon="5.448493"><ele></ele><time>2014-4-5T16:34:59Z</time></trkpt>
<trkpt lat="43.818420" lon="5.448493"><ele></ele><time>2014-4-5T16:35:2Z</time></trkpt>
<trkpt lat="43.818420" lon="5.448492"><ele></ele><time>2014-4-5T16:35:5Z</time></trkpt>
<trkpt lat="43.818425" lon="5.448493"><ele></ele><time>2014-4-5T16:35:8Z</time></trkpt>
<trkpt lat="43.818420" lon="5.448495"><ele></ele><time>2014-4-5T16:35:11Z</time></trkpt>
<trkpt lat="43.818420" lon="5.448485"><ele></ele><time>2014-4-5T16:35:14Z</time></trkpt>
<trkpt lat="43.818420" lon="5.448488"><ele></ele><time>2014-4-5T16:35:17Z</time></trkpt>
<trkpt lat="43.818425" lon="5.448487"><ele></ele><time>2014-4-5T16:35:20Z</time></trkpt>
<trkpt lat="43.818455" lon="5.448465"><ele></ele><time>2014-4-5T16:35:23Z</time></trkpt>
<trkpt lat="43.818505" lon="5.448443"><ele></ele><time>2014-4-5T16:35:26Z</time></trkpt>
<trkpt lat="43.818592" lon="5.448482"><ele></ele><time>2014-4-5T16:35:29Z</time></trkpt>
<trkpt lat="43.818698" lon="5.448548"><ele></ele><time>2014-4-5T16:35:32Z</time></trkpt>
<trkpt lat="43.818790" lon="5.448612"><ele></ele><time>2014-4-5T16:35:35Z</time></trkpt>
<trkpt lat="43.818897" lon="5.448688"><ele></ele><time>2014-4-5T16:35:38Z</time></trkpt>
<trkpt lat="43.819020" lon="5.448775"><ele></ele><time>2014-4-5T16:35:41Z</time></trkpt>
<trkpt lat="43.819192" lon="5.448872"><ele></ele><time>2014-4-5T16:35:44Z</time></trkpt>
<trkpt lat="43.819347" lon="5.448973"><ele></ele><time>2014-4-5T16:35:47Z</time></trkpt>
<trkpt lat="43.819530" lon="5.449107"><ele></ele><time>2014-4-5T16:35:50Z</time></trkpt>
<trkpt lat="43.819748" lon="5.449207"><ele></ele><time>2014-4-5T16:35:53Z</time></trkpt>
<trkpt lat="43.820027" lon="5.449222"><ele></ele><time>2014-4-5T16:35:56Z</time></trkpt>
<trkpt lat="43.820270" lon="5.449202"><ele></ele><time>2014-4-5T16:35:59Z</time></trkpt>
<trkpt lat="43.820500" lon="5.449202"><ele></ele><time>2014-4-5T16:36:2Z</time></trkpt>
<trkpt lat="43.820767" lon="5.449153"><ele></ele><time>2014-4-5T16:36:5Z</time></trkpt>
<trkpt lat="43.821022" lon="5.449055"><ele></ele><time>2014-4-5T16:36:8Z</time></trkpt>
<trkpt lat="43.821293" lon="5.448942"><ele></ele><time>2014-4-5T16:36:11Z</time></trkpt>
<trkpt lat="43.821540" lon="5.448832"><ele></ele><time>2014-4-5T16:36:14Z</time></trkpt>
<trkpt lat="43.821755" lon="5.448723"><ele></ele><time>2014-4-5T16:36:17Z</time></trkpt>
<trkpt lat="43.821922" lon="5.448663"><ele></ele><time>2014-4-5T16:36:20Z</time></trkpt>
<trkpt lat="43.822125" lon="5.448633"><ele></ele><time>2014-4-5T16:36:23Z</time></trkpt>
<trkpt lat="43.822335" lon="5.448635"><ele></ele><time>2014-4-5T16:36:26Z</time></trkpt>
<trkpt lat="43.822563" lon="5.448588"><ele></ele><time>2014-4-5T16:36:29Z</time></trkpt>
<trkpt lat="43.822803" lon="5.448488"><ele></ele><time>2014-4-5T16:36:32Z</time></trkpt>
<trkpt lat="43.823055" lon="5.448328"><ele></ele><time>2014-4-5T16:36:35Z</time></trkpt>
<trkpt lat="43.823353" lon="5.448112"><ele></ele><time>2014-4-5T16:36:38Z</time></trkpt>
<trkpt lat="43.823670" lon="5.447883"><ele></ele><time>2014-4-5T16:36:41Z</time></trkpt>
<trkpt lat="43.823990" lon="5.447692"><ele></ele><time>2014-4-5T16:36:44Z</time></trkpt>
<trkpt lat="43.824303" lon="5.447445"><ele></ele><time>2014-4-5T16:36:47Z</time></trkpt>
<trkpt lat="43.824597" lon="5.447145"><ele></ele><time>2014-4-5T16:36:50Z</time></trkpt>
<trkpt lat="43.824828" lon="5.446910"><ele></ele><time>2014-4-5T16:36:53Z</time></trkpt>
<trkpt lat="43.825035" lon="5.446750"><ele></ele><time>2014-4-5T16:36:56Z</time></trkpt>
<trkpt lat="43.825260" lon="5.446743"><ele></ele><time>2014-4-5T16:36:59Z</time></trkpt>
<trkpt lat="43.825387" lon="5.446843"><ele></ele><time>2014-4-5T16:37:2Z</time></trkpt>
<trkpt lat="43.825520" lon="5.446988"><ele></ele><time>2014-4-5T16:37:5Z</time></trkpt>
<trkpt lat="43.825638" lon="5.447128"><ele></ele><time>2014-4-5T16:37:8Z</time></trkpt>
<trkpt lat="43.825748" lon="5.447253"><ele></ele><time>2014-4-5T16:37:11Z</time></trkpt>
<trkpt lat="43.825867" lon="5.447385"><ele></ele><time>2014-4-5T16:37:14Z</time></trkpt>
<trkpt lat="43.825988" lon="5.447525"><ele></ele><time>2014-4-5T16:37:17Z</time></trkpt>
<trkpt lat="43.826095" lon="5.447708"><ele></ele><time>2014-4-5T16:37:20Z</time></trkpt>
<trkpt lat="43.826175" lon="5.447920"><ele></ele><time>2014-4-5T16:37:23Z</time></trkpt>
<trkpt lat="43.826222" lon="5.448135"><ele></ele><time>2014-4-5T16:37:26Z</time></trkpt>
<trkpt lat="43.826225" lon="5.448220"><ele></ele><time>2014-4-5T16:37:29Z</time></trkpt>
<trkpt lat="43.826222" lon="5.448222"><ele></ele><time>2014-4-5T16:37:32Z</time></trkpt>
<trkpt lat="43.826222" lon="5.448227"><ele></ele><time>2014-4-5T16:37:35Z</time></trkpt>
<trkpt lat="43.826218" lon="5.448230"><ele></ele><time>2014-4-5T16:37:38Z</time></trkpt>
<trkpt lat="43.826240" lon="5.448257"><ele></ele><time>2014-4-5T16:37:41Z</time></trkpt>
<trkpt lat="43.826248" lon="5.448273"><ele></ele><time>2014-4-5T16:37:44Z</time></trkpt>
<trkpt lat="43.826248" lon="5.448275"><ele></ele><time>2014-4-5T16:37:47Z</time></trkpt>
<trkpt lat="43.826252" lon="5.448287"><ele></ele><time>2014-4-5T16:37:50Z</time></trkpt>
<trkpt lat="43.826255" lon="5.448387"><ele></ele><time>2014-4-5T16:37:53Z</time></trkpt>
<trkpt lat="43.826260" lon="5.448502"><ele></ele><time>2014-4-5T16:37:56Z</time></trkpt>
<trkpt lat="43.826267" lon="5.448610"><ele></ele><time>2014-4-5T16:37:59Z</time></trkpt>
<trkpt lat="43.826272" lon="5.448768"><ele></ele><time>2014-4-5T16:38:2Z</time></trkpt>
<trkpt lat="43.826283" lon="5.448937"><ele></ele><time>2014-4-5T16:38:5Z</time></trkpt>
<trkpt lat="43.826290" lon="5.449082"><ele></ele><time>2014-4-5T16:38:8Z</time></trkpt>
<trkpt lat="43.826298" lon="5.449192"><ele></ele><time>2014-4-5T16:38:11Z</time></trkpt>
<trkpt lat="43.826317" lon="5.449340"><ele></ele><time>2014-4-5T16:38:14Z</time></trkpt>
<trkpt lat="43.826347" lon="5.449513"><ele></ele><time>2014-4-5T16:38:17Z</time></trkpt>
<trkpt lat="43.826382" lon="5.449637"><ele></ele><time>2014-4-5T16:38:20Z</time></trkpt>
<trkpt lat="43.826432" lon="5.449793"><ele></ele><time>2014-4-5T16:38:23Z</time></trkpt>
<trkpt lat="43.826485" lon="5.449977"><ele></ele><time>2014-4-5T16:38:26Z</time></trkpt>
<trkpt lat="43.826482" lon="5.449993"><ele></ele><time>2014-4-5T16:38:29Z</time></trkpt>
<trkpt lat="43.826482" lon="5.449992"><ele></ele><time>2014-4-5T16:38:32Z</time></trkpt>
<trkpt lat="43.826482" lon="5.449993"><ele></ele><time>2014-4-5T16:38:35Z</time></trkpt>
<trkpt lat="43.826482" lon="5.449992"><ele></ele><time>2014-4-5T16:38:38Z</time></trkpt>
<trkpt lat="43.826482" lon="5.449990"><ele></ele><time>2014-4-5T16:38:41Z</time></trkpt>
<trkpt lat="43.826482" lon="5.449997"><ele></ele><time>2014-4-5T16:38:44Z</time></trkpt>
<trkpt lat="43.826482" lon="5.449992"><ele></ele><time>2014-4-5T16:38:47Z</time></trkpt>
<trkpt lat="43.826477" lon="5.449988"><ele></ele><time>2014-4-5T16:38:50Z</time></trkpt>
<trkpt lat="43.826477" lon="5.449990"><ele></ele><time>2014-4-5T16:38:53Z</time></trkpt>
<trkpt lat="43.826477" lon="5.449990"><ele></ele><time>2014-4-5T16:38:56Z</time></trkpt>
<trkpt lat="43.826477" lon="5.449988"><ele></ele><time>2014-4-5T16:38:59Z</time></trkpt>
<trkpt lat="43.826473" lon="5.449987"><ele></ele><time>2014-4-5T16:39:2Z</time></trkpt>
<trkpt lat="43.826477" lon="5.449987"><ele></ele><time>2014-4-5T16:39:5Z</time></trkpt>
<trkpt lat="43.826477" lon="5.449987"><ele></ele><time>2014-4-5T16:39:8Z</time></trkpt>
<trkpt lat="43.826477" lon="5.450020"><ele></ele><time>2014-4-5T16:39:11Z</time></trkpt>
<trkpt lat="43.826420" lon="5.450182"><ele></ele><time>2014-4-5T16:39:14Z</time></trkpt>
<trkpt lat="43.826397" lon="5.450222"><ele></ele><time>2014-4-5T16:39:17Z</time></trkpt>
<trkpt lat="43.826393" lon="5.450223"><ele></ele><time>2014-4-5T16:39:20Z</time></trkpt>
<trkpt lat="43.826382" lon="5.450233"><ele></ele><time>2014-4-5T16:39:23Z</time></trkpt>
<trkpt lat="43.826290" lon="5.450323"><ele></ele><time>2014-4-5T16:39:26Z</time></trkpt>
<trkpt lat="43.826198" lon="5.450425"><ele></ele><time>2014-4-5T16:39:29Z</time></trkpt>
<trkpt lat="43.826127" lon="5.450535"><ele></ele><time>2014-4-5T16:39:32Z</time></trkpt>
<trkpt lat="43.826042" lon="5.450652"><ele></ele><time>2014-4-5T16:39:35Z</time></trkpt>
<trkpt lat="43.825973" lon="5.450803"><ele></ele><time>2014-4-5T16:39:38Z</time></trkpt>
<trkpt lat="43.825897" lon="5.450962"><ele></ele><time>2014-4-5T16:39:41Z</time></trkpt>
<trkpt lat="43.825813" lon="5.451130"><ele></ele><time>2014-4-5T16:39:44Z</time></trkpt>
<trkpt lat="43.825718" lon="5.451315"><ele></ele><time>2014-4-5T16:39:47Z</time></trkpt>
<trkpt lat="43.825603" lon="5.451497"><ele></ele><time>2014-4-5T16:39:50Z</time></trkpt>
<trkpt lat="43.825447" lon="5.451650"><ele></ele><time>2014-4-5T16:39:53Z</time></trkpt>
<trkpt lat="43.825295" lon="5.451803"><ele></ele><time>2014-4-5T16:39:56Z</time></trkpt>
<trkpt lat="43.825092" lon="5.451923"><ele></ele><time>2014-4-5T16:39:59Z</time></trkpt>
<trkpt lat="43.824883" lon="5.451912"><ele></ele><time>2014-4-5T16:40:2Z</time></trkpt>
<trkpt lat="43.824638" lon="5.451970"><ele></ele><time>2014-4-5T16:40:5Z</time></trkpt>
<trkpt lat="43.824437" lon="5.452047"><ele></ele><time>2014-4-5T16:40:8Z</time></trkpt>
<trkpt lat="43.824257" lon="5.452150"><ele></ele><time>2014-4-5T16:40:11Z</time></trkpt>
<trkpt lat="43.824100" lon="5.452277"><ele></ele><time>2014-4-5T16:40:14Z</time></trkpt>
<trkpt lat="43.824008" lon="5.452453"><ele></ele><time>2014-4-5T16:40:17Z</time></trkpt>
<trkpt lat="43.824138" lon="5.452593"><ele></ele><time>2014-4-5T16:40:20Z</time></trkpt>
<trkpt lat="43.824352" lon="5.452627"><ele></ele><time>2014-4-5T16:40:23Z</time></trkpt>
<trkpt lat="43.824573" lon="5.452728"><ele></ele><time>2014-4-5T16:40:26Z</time></trkpt>
<trkpt lat="43.824825" lon="5.452837"><ele></ele><time>2014-4-5T16:40:29Z</time></trkpt>
<trkpt lat="43.825097" lon="5.453008"><ele></ele><time>2014-4-5T16:40:32Z</time></trkpt>
<trkpt lat="43.825405" lon="5.453127"><ele></ele><time>2014-4-5T16:40:35Z</time></trkpt>
<trkpt lat="43.825692" lon="5.453115"><ele></ele><time>2014-4-5T16:40:38Z</time></trkpt>
<trkpt lat="43.825982" lon="5.452990"><ele></ele><time>2014-4-5T16:40:41Z</time></trkpt>
<trkpt lat="43.826287" lon="5.452852"><ele></ele><time>2014-4-5T16:40:44Z</time></trkpt>
<trkpt lat="43.826595" lon="5.452687"><ele></ele><time>2014-4-5T16:40:47Z</time></trkpt>
<trkpt lat="43.826893" lon="5.452563"><ele></ele><time>2014-4-5T16:40:50Z</time></trkpt>
<trkpt lat="43.827072" lon="5.452807"><ele></ele><time>2014-4-5T16:40:53Z</time></trkpt>
<trkpt lat="43.827050" lon="5.452973"><ele></ele><time>2014-4-5T16:40:56Z</time></trkpt>
<trkpt lat="43.826997" lon="5.453090"><ele></ele><time>2014-4-5T16:40:59Z</time></trkpt>
<trkpt lat="43.826973" lon="5.453192"><ele></ele><time>2014-4-5T16:41:2Z</time></trkpt>
<trkpt lat="43.826973" lon="5.453325"><ele></ele><time>2014-4-5T16:41:5Z</time></trkpt>
<trkpt lat="43.827027" lon="5.453465"><ele></ele><time>2014-4-5T16:41:8Z</time></trkpt>
<trkpt lat="43.827195" lon="5.453463"><ele></ele><time>2014-4-5T16:41:11Z</time></trkpt>
<trkpt lat="43.827430" lon="5.453288"><ele></ele><time>2014-4-5T16:41:14Z</time></trkpt>
<trkpt lat="43.827687" lon="5.453193"><ele></ele><time>2014-4-5T16:41:17Z</time></trkpt>
<trkpt lat="43.827877" lon="5.453378"><ele></ele><time>2014-4-5T16:41:20Z</time></trkpt>
<trkpt lat="43.827930" lon="5.453553"><ele></ele><time>2014-4-5T16:41:23Z</time></trkpt>
<trkpt lat="43.827972" lon="5.453682"><ele></ele><time>2014-4-5T16:41:26Z</time></trkpt>
<trkpt lat="43.828018" lon="5.453823"><ele></ele><time>2014-4-5T16:41:29Z</time></trkpt>
<trkpt lat="43.828048" lon="5.453968"><ele></ele><time>2014-4-5T16:41:32Z</time></trkpt>
<trkpt lat="43.828083" lon="5.454138"><ele></ele><time>2014-4-5T16:41:35Z</time></trkpt>
<trkpt lat="43.828113" lon="5.454318"><ele></ele><time>2014-4-5T16:41:38Z</time></trkpt>
<trkpt lat="43.828140" lon="5.454483"><ele></ele><time>2014-4-5T16:41:41Z</time></trkpt>
<trkpt lat="43.828193" lon="5.454638"><ele></ele><time>2014-4-5T16:41:44Z</time></trkpt>
<trkpt lat="43.828327" lon="5.454652"><ele></ele><time>2014-4-5T16:41:47Z</time></trkpt>
<trkpt lat="43.828358" lon="5.454435"><ele></ele><time>2014-4-5T16:41:50Z</time></trkpt>
<trkpt lat="43.828285" lon="5.454273"><ele></ele><time>2014-4-5T16:41:53Z</time></trkpt>
<trkpt lat="43.828258" lon="5.454162"><ele></ele><time>2014-4-5T16:41:56Z</time></trkpt>
<trkpt lat="43.828235" lon="5.454035"><ele></ele><time>2014-4-5T16:41:59Z</time></trkpt>
<trkpt lat="43.828217" lon="5.453922"><ele></ele><time>2014-4-5T16:42:2Z</time></trkpt>
<trkpt lat="43.828213" lon="5.453773"><ele></ele><time>2014-4-5T16:42:5Z</time></trkpt>
<trkpt lat="43.828217" lon="5.453590"><ele></ele><time>2014-4-5T16:42:8Z</time></trkpt>
<trkpt lat="43.828252" lon="5.453413"><ele></ele><time>2014-4-5T16:42:11Z</time></trkpt>
<trkpt lat="43.828320" lon="5.453160"><ele></ele><time>2014-4-5T16:42:14Z</time></trkpt>
<trkpt lat="43.828305" lon="5.452837"><ele></ele><time>2014-4-5T16:42:17Z</time></trkpt>
<trkpt lat="43.828140" lon="5.452557"><ele></ele><time>2014-4-5T16:42:20Z</time></trkpt>
<trkpt lat="43.828072" lon="5.452288"><ele></ele><time>2014-4-5T16:42:23Z</time></trkpt>
<trkpt lat="43.828213" lon="5.452172"><ele></ele><time>2014-4-5T16:42:26Z</time></trkpt>
<trkpt lat="43.828338" lon="5.452327"><ele></ele><time>2014-4-5T16:42:29Z</time></trkpt>
<trkpt lat="43.828442" lon="5.452568"><ele></ele><time>2014-4-5T16:42:32Z</time></trkpt>
<trkpt lat="43.828587" lon="5.452857"><ele></ele><time>2014-4-5T16:42:35Z</time></trkpt>
<trkpt lat="43.828602" lon="5.453167"><ele></ele><time>2014-4-5T16:42:38Z</time></trkpt>
<trkpt lat="43.828572" lon="5.453253"><ele></ele><time>2014-4-5T16:42:41Z</time></trkpt>
<trkpt lat="43.828548" lon="5.453350"><ele></ele><time>2014-4-5T16:42:44Z</time></trkpt>
<trkpt lat="43.828568" lon="5.453508"><ele></ele><time>2014-4-5T16:42:47Z</time></trkpt>
<trkpt lat="43.828685" lon="5.453618"><ele></ele><time>2014-4-5T16:42:50Z</time></trkpt>
<trkpt lat="43.828830" lon="5.453467"><ele></ele><time>2014-4-5T16:42:53Z</time></trkpt>
<trkpt lat="43.828823" lon="5.453187"><ele></ele><time>2014-4-5T16:42:56Z</time></trkpt>
<trkpt lat="43.828868" lon="5.452882"><ele></ele><time>2014-4-5T16:42:59Z</time></trkpt>
<trkpt lat="43.828942" lon="5.452598"><ele></ele><time>2014-4-5T16:43:2Z</time></trkpt>
<trkpt lat="43.829033" lon="5.452332"><ele></ele><time>2014-4-5T16:43:5Z</time></trkpt>
<trkpt lat="43.829163" lon="5.452023"><ele></ele><time>2014-4-5T16:43:8Z</time></trkpt>
<trkpt lat="43.829300" lon="5.451663"><ele></ele><time>2014-4-5T16:43:11Z</time></trkpt>
<trkpt lat="43.829487" lon="5.451380"><ele></ele><time>2014-4-5T16:43:14Z</time></trkpt>
<trkpt lat="43.829597" lon="5.451103"><ele></ele><time>2014-4-5T16:43:17Z</time></trkpt>
<trkpt lat="43.829617" lon="5.450830"><ele></ele><time>2014-4-5T16:43:20Z</time></trkpt>
<trkpt lat="43.829628" lon="5.450545"><ele></ele><time>2014-4-5T16:43:23Z</time></trkpt>
<trkpt lat="43.829628" lon="5.450285"><ele></ele><time>2014-4-5T16:43:26Z</time></trkpt>
<trkpt lat="43.829682" lon="5.450093"><ele></ele><time>2014-4-5T16:43:29Z</time></trkpt>
<trkpt lat="43.829742" lon="5.450005"><ele></ele><time>2014-4-5T16:43:32Z</time></trkpt>
<trkpt lat="43.829860" lon="5.449965"><ele></ele><time>2014-4-5T16:43:35Z</time></trkpt>
<trkpt lat="43.829963" lon="5.450145"><ele></ele><time>2014-4-5T16:43:38Z</time></trkpt>
<trkpt lat="43.829933" lon="5.450395"><ele></ele><time>2014-4-5T16:43:41Z</time></trkpt>
<trkpt lat="43.829925" lon="5.450628"><ele></ele><time>2014-4-5T16:43:44Z</time></trkpt>
<trkpt lat="43.829960" lon="5.450935"><ele></ele><time>2014-4-5T16:43:47Z</time></trkpt>
<trkpt lat="43.830040" lon="5.451215"><ele></ele><time>2014-4-5T16:43:50Z</time></trkpt>
<trkpt lat="43.830162" lon="5.451478"><ele></ele><time>2014-4-5T16:43:53Z</time></trkpt>
<trkpt lat="43.830247" lon="5.451683"><ele></ele><time>2014-4-5T16:43:56Z</time></trkpt>
<trkpt lat="43.830295" lon="5.451807"><ele></ele><time>2014-4-5T16:43:59Z</time></trkpt>
<trkpt lat="43.830418" lon="5.452003"><ele></ele><time>2014-4-5T16:44:2Z</time></trkpt>
<trkpt lat="43.830650" lon="5.452140"><ele></ele><time>2014-4-5T16:44:5Z</time></trkpt>
<trkpt lat="43.830952" lon="5.452097"><ele></ele><time>2014-4-5T16:44:8Z</time></trkpt>
<trkpt lat="43.831212" lon="5.451778"><ele></ele><time>2014-4-5T16:44:11Z</time></trkpt>
<trkpt lat="43.831375" lon="5.451392"><ele></ele><time>2014-4-5T16:44:14Z</time></trkpt>
<trkpt lat="43.831570" lon="5.451108"><ele></ele><time>2014-4-5T16:44:17Z</time></trkpt>
<trkpt lat="43.831748" lon="5.450808"><ele></ele><time>2014-4-5T16:44:20Z</time></trkpt>
<trkpt lat="43.831952" lon="5.450495"><ele></ele><time>2014-4-5T16:44:23Z</time></trkpt>
<trkpt lat="43.832183" lon="5.450310"><ele></ele><time>2014-4-5T16:44:26Z</time></trkpt>
<trkpt lat="43.832313" lon="5.450240"><ele></ele><time>2014-4-5T16:44:29Z</time></trkpt>
<trkpt lat="43.832432" lon="5.450215"><ele></ele><time>2014-4-5T16:44:32Z</time></trkpt>
<trkpt lat="43.832585" lon="5.450260"><ele></ele><time>2014-4-5T16:44:35Z</time></trkpt>
<trkpt lat="43.832713" lon="5.450425"><ele></ele><time>2014-4-5T16:44:38Z</time></trkpt>
<trkpt lat="43.832813" lon="5.450610"><ele></ele><time>2014-4-5T16:44:41Z</time></trkpt>
<trkpt lat="43.832932" lon="5.450785"><ele></ele><time>2014-4-5T16:44:44Z</time></trkpt>
<trkpt lat="43.833103" lon="5.450940"><ele></ele><time>2014-4-5T16:44:47Z</time></trkpt>
<trkpt lat="43.833287" lon="5.451058"><ele></ele><time>2014-4-5T16:44:50Z</time></trkpt>
<trkpt lat="43.833482" lon="5.451225"><ele></ele><time>2014-4-5T16:44:53Z</time></trkpt>
<trkpt lat="43.833660" lon="5.451378"><ele></ele><time>2014-4-5T16:44:56Z</time></trkpt>
<trkpt lat="43.833885" lon="5.451663"><ele></ele><time>2014-4-5T16:44:59Z</time></trkpt>
<trkpt lat="43.834098" lon="5.452012"><ele></ele><time>2014-4-5T16:45:2Z</time></trkpt>
<trkpt lat="43.834293" lon="5.452363"><ele></ele><time>2014-4-5T16:45:5Z</time></trkpt>
<trkpt lat="43.834557" lon="5.452608"><ele></ele><time>2014-4-5T16:45:8Z</time></trkpt>
<trkpt lat="43.834853" lon="5.452853"><ele></ele><time>2014-4-5T16:45:11Z</time></trkpt>
<trkpt lat="43.835182" lon="5.452978"><ele></ele><time>2014-4-5T16:45:14Z</time></trkpt>
<trkpt lat="43.835507" lon="5.452970"><ele></ele><time>2014-4-5T16:45:17Z</time></trkpt>
<trkpt lat="43.835815" lon="5.453007"><ele></ele><time>2014-4-5T16:45:20Z</time></trkpt>
<trkpt lat="43.836147" lon="5.453180"><ele></ele><time>2014-4-5T16:45:23Z</time></trkpt>
<trkpt lat="43.836442" lon="5.453407"><ele></ele><time>2014-4-5T16:45:26Z</time></trkpt>
<trkpt lat="43.836667" lon="5.453518"><ele></ele><time>2014-4-5T16:45:29Z</time></trkpt>
<trkpt lat="43.836940" lon="5.453627"><ele></ele><time>2014-4-5T16:45:32Z</time></trkpt>
<trkpt lat="43.837250" lon="5.453680"><ele></ele><time>2014-4-5T16:45:35Z</time></trkpt>
<trkpt lat="43.837585" lon="5.453793"><ele></ele><time>2014-4-5T16:45:38Z</time></trkpt>
<trkpt lat="43.837880" lon="5.453875"><ele></ele><time>2014-4-5T16:45:41Z</time></trkpt>
<trkpt lat="43.838093" lon="5.453970"><ele></ele><time>2014-4-5T16:45:44Z</time></trkpt>
<trkpt lat="43.838245" lon="5.454070"><ele></ele><time>2014-4-5T16:45:47Z</time></trkpt>
<trkpt lat="43.838413" lon="5.454162"><ele></ele><time>2014-4-5T16:45:50Z</time></trkpt>
<trkpt lat="43.838547" lon="5.454245"><ele></ele><time>2014-4-5T16:45:53Z</time></trkpt>
<trkpt lat="43.838692" lon="5.454327"><ele></ele><time>2014-4-5T16:45:56Z</time></trkpt>
<trkpt lat="43.838867" lon="5.454425"><ele></ele><time>2014-4-5T16:45:59Z</time></trkpt>
<trkpt lat="43.839070" lon="5.454560"><ele></ele><time>2014-4-5T16:46:2Z</time></trkpt>
<trkpt lat="43.839257" lon="5.454677"><ele></ele><time>2014-4-5T16:46:5Z</time></trkpt>
<trkpt lat="43.839417" lon="5.454800"><ele></ele><time>2014-4-5T16:46:8Z</time></trkpt>
<trkpt lat="43.839577" lon="5.454893"><ele></ele><time>2014-4-5T16:46:11Z</time></trkpt>
<trkpt lat="43.839725" lon="5.454975"><ele></ele><time>2014-4-5T16:46:14Z</time></trkpt>
<trkpt lat="43.839878" lon="5.455037"><ele></ele><time>2014-4-5T16:46:17Z</time></trkpt>
<trkpt lat="43.840015" lon="5.455075"><ele></ele><time>2014-4-5T16:46:20Z</time></trkpt>
<trkpt lat="43.840160" lon="5.455127"><ele></ele><time>2014-4-5T16:46:23Z</time></trkpt>
<trkpt lat="43.840340" lon="5.455182"><ele></ele><time>2014-4-5T16:46:26Z</time></trkpt>
<trkpt lat="43.840518" lon="5.455230"><ele></ele><time>2014-4-5T16:46:29Z</time></trkpt>
<trkpt lat="43.840760" lon="5.455330"><ele></ele><time>2014-4-5T16:46:32Z</time></trkpt>
<trkpt lat="43.840905" lon="5.455598"><ele></ele><time>2014-4-5T16:46:35Z</time></trkpt>
<trkpt lat="43.840897" lon="5.455923"><ele></ele><time>2014-4-5T16:46:38Z</time></trkpt>
<trkpt lat="43.840858" lon="5.456132"><ele></ele><time>2014-4-5T16:46:41Z</time></trkpt>
<trkpt lat="43.840797" lon="5.456188"><ele></ele><time>2014-4-5T16:46:44Z</time></trkpt>
<trkpt lat="43.840797" lon="5.456183"><ele></ele><time>2014-4-5T16:46:47Z</time></trkpt>
<trkpt lat="43.840797" lon="5.456178"><ele></ele><time>2014-4-5T16:46:50Z</time></trkpt>
<trkpt lat="43.840797" lon="5.456178"><ele></ele><time>2014-4-5T16:46:53Z</time></trkpt>
<trkpt lat="43.840797" lon="5.456178"><ele></ele><time>2014-4-5T16:46:56Z</time></trkpt>
<trkpt lat="43.840797" lon="5.456178"><ele></ele><time>2014-4-5T16:46:59Z</time></trkpt>
<trkpt lat="43.840797" lon="5.456172"><ele></ele><time>2014-4-5T16:47:2Z</time></trkpt>
<trkpt lat="43.840797" lon="5.456167"><ele></ele><time>2014-4-5T16:47:5Z</time></trkpt>
<trkpt lat="43.840797" lon="5.456167"><ele></ele><time>2014-4-5T16:47:8Z</time></trkpt>
<trkpt lat="43.840797" lon="5.456170"><ele></ele><time>2014-4-5T16:47:11Z</time></trkpt>
<trkpt lat="43.840828" lon="5.456218"><ele></ele><time>2014-4-5T16:47:14Z</time></trkpt>
<trkpt lat="43.840840" lon="5.456407"><ele></ele><time>2014-4-5T16:47:17Z</time></trkpt>
<trkpt lat="43.840953" lon="5.456530"><ele></ele><time>2014-4-5T16:47:20Z</time></trkpt>
<trkpt lat="43.841083" lon="5.456637"><ele></ele><time>2014-4-5T16:47:23Z</time></trkpt>
<trkpt lat="43.841213" lon="5.456743"><ele></ele><time>2014-4-5T16:47:26Z</time></trkpt>
<trkpt lat="43.841362" lon="5.456817"><ele></ele><time>2014-4-5T16:47:29Z</time></trkpt>
<trkpt lat="43.841518" lon="5.456840"><ele></ele><time>2014-4-5T16:47:32Z</time></trkpt>
<trkpt lat="43.841667" lon="5.456787"><ele></ele><time>2014-4-5T16:47:35Z</time></trkpt>
<trkpt lat="43.841805" lon="5.456668"><ele></ele><time>2014-4-5T16:47:38Z</time></trkpt>
<trkpt lat="43.841923" lon="5.456517"><ele></ele><time>2014-4-5T16:47:41Z</time></trkpt>
<trkpt lat="43.842037" lon="5.456358"><ele></ele><time>2014-4-5T16:47:44Z</time></trkpt>
<trkpt lat="43.842163" lon="5.456205"><ele></ele><time>2014-4-5T16:47:47Z</time></trkpt>
<trkpt lat="43.842297" lon="5.456028"><ele></ele><time>2014-4-5T16:47:50Z</time></trkpt>
<trkpt lat="43.842427" lon="5.455833"><ele></ele><time>2014-4-5T16:47:53Z</time></trkpt>
<trkpt lat="43.842533" lon="5.455612"><ele></ele><time>2014-4-5T16:47:56Z</time></trkpt>
<trkpt lat="43.842613" lon="5.455363"><ele></ele><time>2014-4-5T16:47:59Z</time></trkpt>
<trkpt lat="43.842670" lon="5.455102"><ele></ele><time>2014-4-5T16:48:2Z</time></trkpt>
<trkpt lat="43.842723" lon="5.454837"><ele></ele><time>2014-4-5T16:48:5Z</time></trkpt>
<trkpt lat="43.842785" lon="5.454573"><ele></ele><time>2014-4-5T16:48:8Z</time></trkpt>
<trkpt lat="43.842850" lon="5.454318"><ele></ele><time>2014-4-5T16:48:11Z</time></trkpt>
<trkpt lat="43.842907" lon="5.454067"><ele></ele><time>2014-4-5T16:48:14Z</time></trkpt>
<trkpt lat="43.842965" lon="5.453823"><ele></ele><time>2014-4-5T16:48:17Z</time></trkpt>
<trkpt lat="43.843022" lon="5.453558"><ele></ele><time>2014-4-5T16:48:20Z</time></trkpt>
<trkpt lat="43.843082" lon="5.453272"><ele></ele><time>2014-4-5T16:48:23Z</time></trkpt>
<trkpt lat="43.843147" lon="5.452968"><ele></ele><time>2014-4-5T16:48:26Z</time></trkpt>
<trkpt lat="43.843178" lon="5.452647"><ele></ele><time>2014-4-5T16:48:29Z</time></trkpt>
<trkpt lat="43.843158" lon="5.452315"><ele></ele><time>2014-4-5T16:48:32Z</time></trkpt>
<trkpt lat="43.843093" lon="5.451987"><ele></ele><time>2014-4-5T16:48:35Z</time></trkpt>
<trkpt lat="43.843022" lon="5.451643"><ele></ele><time>2014-4-5T16:48:38Z</time></trkpt>
<trkpt lat="43.842957" lon="5.451313"><ele></ele><time>2014-4-5T16:48:41Z</time></trkpt>
<trkpt lat="43.842888" lon="5.450978"><ele></ele><time>2014-4-5T16:48:44Z</time></trkpt>
<trkpt lat="43.842820" lon="5.450620"><ele></ele><time>2014-4-5T16:48:47Z</time></trkpt>
<trkpt lat="43.842782" lon="5.450248"><ele></ele><time>2014-4-5T16:48:50Z</time></trkpt>
<trkpt lat="43.842800" lon="5.449873"><ele></ele><time>2014-4-5T16:48:53Z</time></trkpt>
<trkpt lat="43.842853" lon="5.449510"><ele></ele><time>2014-4-5T16:48:56Z</time></trkpt>
<trkpt lat="43.842907" lon="5.449143"><ele></ele><time>2014-4-5T16:48:59Z</time></trkpt>
<trkpt lat="43.842953" lon="5.448777"><ele></ele><time>2014-4-5T16:49:2Z</time></trkpt>
<trkpt lat="43.843007" lon="5.448412"><ele></ele><time>2014-4-5T16:49:5Z</time></trkpt>
<trkpt lat="43.843055" lon="5.448048"><ele></ele><time>2014-4-5T16:49:8Z</time></trkpt>
<trkpt lat="43.843108" lon="5.447690"><ele></ele><time>2014-4-5T16:49:11Z</time></trkpt>
<trkpt lat="43.843137" lon="5.447322"><ele></ele><time>2014-4-5T16:49:14Z</time></trkpt>
<trkpt lat="43.843102" lon="5.446948"><ele></ele><time>2014-4-5T16:49:17Z</time></trkpt>
<trkpt lat="43.843018" lon="5.446582"><ele></ele><time>2014-4-5T16:49:20Z</time></trkpt>
<trkpt lat="43.842948" lon="5.446212"><ele></ele><time>2014-4-5T16:49:23Z</time></trkpt>
<trkpt lat="43.842895" lon="5.445822"><ele></ele><time>2014-4-5T16:49:26Z</time></trkpt>
<trkpt lat="43.842895" lon="5.445413"><ele></ele><time>2014-4-5T16:49:29Z</time></trkpt>
<trkpt lat="43.842945" lon="5.445008"><ele></ele><time>2014-4-5T16:49:32Z</time></trkpt>
<trkpt lat="43.843022" lon="5.444608"><ele></ele><time>2014-4-5T16:49:35Z</time></trkpt>
<trkpt lat="43.843102" lon="5.444193"><ele></ele><time>2014-4-5T16:49:38Z</time></trkpt>
<trkpt lat="43.843132" lon="5.443750"><ele></ele><time>2014-4-5T16:49:41Z</time></trkpt>
<trkpt lat="43.843143" lon="5.443285"><ele></ele><time>2014-4-5T16:49:44Z</time></trkpt>
<trkpt lat="43.843220" lon="5.442832"><ele></ele><time>2014-4-5T16:49:47Z</time></trkpt>
<trkpt lat="43.843362" lon="5.442377"><ele></ele><time>2014-4-5T16:49:50Z</time></trkpt>
<trkpt lat="43.843507" lon="5.441885"><ele></ele><time>2014-4-5T16:49:53Z</time></trkpt>
<trkpt lat="43.843655" lon="5.441383"><ele></ele><time>2014-4-5T16:49:56Z</time></trkpt>
<trkpt lat="43.843815" lon="5.440890"><ele></ele><time>2014-4-5T16:49:59Z</time></trkpt>
<trkpt lat="43.844090" lon="5.440538"><ele></ele><time>2014-4-5T16:50:2Z</time></trkpt>
<trkpt lat="43.844395" lon="5.440280"><ele></ele><time>2014-4-5T16:50:5Z</time></trkpt>
<trkpt lat="43.844692" lon="5.440048"><ele></ele><time>2014-4-5T16:50:8Z</time></trkpt>
<trkpt lat="43.844978" lon="5.439880"><ele></ele><time>2014-4-5T16:50:11Z</time></trkpt>
<trkpt lat="43.845230" lon="5.439605"><ele></ele><time>2014-4-5T16:50:14Z</time></trkpt>
<trkpt lat="43.845467" lon="5.439228"><ele></ele><time>2014-4-5T16:50:17Z</time></trkpt>
<trkpt lat="43.845860" lon="5.439077"><ele></ele><time>2014-4-5T16:50:20Z</time></trkpt>
<trkpt lat="43.846263" lon="5.438858"><ele></ele><time>2014-4-5T16:50:23Z</time></trkpt>
<trkpt lat="43.846692" lon="5.438627"><ele></ele><time>2014-4-5T16:50:26Z</time></trkpt>
<trkpt lat="43.847133" lon="5.438642"><ele></ele><time>2014-4-5T16:50:29Z</time></trkpt>
<trkpt lat="43.847557" lon="5.438888"><ele></ele><time>2014-4-5T16:50:32Z</time></trkpt>
<trkpt lat="43.848003" lon="5.438747"><ele></ele><time>2014-4-5T16:50:35Z</time></trkpt>
<trkpt lat="43.848392" lon="5.438432"><ele></ele><time>2014-4-5T16:50:38Z</time></trkpt>
<trkpt lat="43.848770" lon="5.438113"><ele></ele><time>2014-4-5T16:50:41Z</time></trkpt>
<trkpt lat="43.849128" lon="5.437805"><ele></ele><time>2014-4-5T16:50:44Z</time></trkpt>
<trkpt lat="43.849477" lon="5.437502"><ele></ele><time>2014-4-5T16:50:47Z</time></trkpt>
<trkpt lat="43.849827" lon="5.437198"><ele></ele><time>2014-4-5T16:50:50Z</time></trkpt>
<trkpt lat="43.850170" lon="5.436907"><ele></ele><time>2014-4-5T16:50:53Z</time></trkpt>
<trkpt lat="43.850495" lon="5.436622"><ele></ele><time>2014-4-5T16:50:56Z</time></trkpt>
<trkpt lat="43.850792" lon="5.436365"><ele></ele><time>2014-4-5T16:50:59Z</time></trkpt>
<trkpt lat="43.851058" lon="5.436133"><ele></ele><time>2014-4-5T16:51:2Z</time></trkpt>
<trkpt lat="43.851295" lon="5.435928"><ele></ele><time>2014-4-5T16:51:5Z</time></trkpt>
<trkpt lat="43.851505" lon="5.435737"><ele></ele><time>2014-4-5T16:51:8Z</time></trkpt>
<trkpt lat="43.851712" lon="5.435562"><ele></ele><time>2014-4-5T16:51:11Z</time></trkpt>
<trkpt lat="43.851762" lon="5.435477"><ele></ele><time>2014-4-5T16:51:14Z</time></trkpt>
<trkpt lat="43.851665" lon="5.435550"><ele></ele><time>2014-4-5T16:51:17Z</time></trkpt>
<trkpt lat="43.851525" lon="5.435563"><ele></ele><time>2014-4-5T16:51:20Z</time></trkpt>
<trkpt lat="43.851380" lon="5.435535"><ele></ele><time>2014-4-5T16:51:23Z</time></trkpt>
<trkpt lat="43.851227" lon="5.435510"><ele></ele><time>2014-4-5T16:51:26Z</time></trkpt>
<trkpt lat="43.851063" lon="5.435472"><ele></ele><time>2014-4-5T16:51:29Z</time></trkpt>
<trkpt lat="43.850898" lon="5.435438"><ele></ele><time>2014-4-5T16:51:32Z</time></trkpt>
<trkpt lat="43.850723" lon="5.435405"><ele></ele><time>2014-4-5T16:51:35Z</time></trkpt>
<trkpt lat="43.850543" lon="5.435365"><ele></ele><time>2014-4-5T16:51:38Z</time></trkpt>
<trkpt lat="43.850362" lon="5.435332"><ele></ele><time>2014-4-5T16:51:41Z</time></trkpt>
<trkpt lat="43.850182" lon="5.435295"><ele></ele><time>2014-4-5T16:51:44Z</time></trkpt>
<trkpt lat="43.849987" lon="5.435257"><ele></ele><time>2014-4-5T16:51:47Z</time></trkpt>
<trkpt lat="43.849770" lon="5.435207"><ele></ele><time>2014-4-5T16:51:50Z</time></trkpt>
<trkpt lat="43.849557" lon="5.435162"><ele></ele><time>2014-4-5T16:51:53Z</time></trkpt>
<trkpt lat="43.849332" lon="5.435110"><ele></ele><time>2014-4-5T16:51:56Z</time></trkpt>
<trkpt lat="43.849107" lon="5.435058"><ele></ele><time>2014-4-5T16:51:59Z</time></trkpt>
<trkpt lat="43.848862" lon="5.435002"><ele></ele><time>2014-4-5T16:52:2Z</time></trkpt>
<trkpt lat="43.848563" lon="5.434943"><ele></ele><time>2014-4-5T16:52:5Z</time></trkpt>
<trkpt lat="43.848263" lon="5.434877"><ele></ele><time>2014-4-5T16:52:8Z</time></trkpt>
<trkpt lat="43.847988" lon="5.434812"><ele></ele><time>2014-4-5T16:52:11Z</time></trkpt>
<trkpt lat="43.847787" lon="5.434768"><ele></ele><time>2014-4-5T16:52:14Z</time></trkpt>
<trkpt lat="43.847603" lon="5.434722"><ele></ele><time>2014-4-5T16:52:17Z</time></trkpt>
<trkpt lat="43.847405" lon="5.434680"><ele></ele><time>2014-4-5T16:52:20Z</time></trkpt>
<trkpt lat="43.847187" lon="5.434630"><ele></ele><time>2014-4-5T16:52:23Z</time></trkpt>
<trkpt lat="43.846932" lon="5.434543"><ele></ele><time>2014-4-5T16:52:26Z</time></trkpt>
<trkpt lat="43.846665" lon="5.434393"><ele></ele><time>2014-4-5T16:52:29Z</time></trkpt>
<trkpt lat="43.846462" lon="5.434130"><ele></ele><time>2014-4-5T16:52:32Z</time></trkpt>
<trkpt lat="43.846302" lon="5.433832"><ele></ele><time>2014-4-5T16:52:35Z</time></trkpt>
<trkpt lat="43.846150" lon="5.433538"><ele></ele><time>2014-4-5T16:52:38Z</time></trkpt>
<trkpt lat="43.845978" lon="5.433235"><ele></ele><time>2014-4-5T16:52:41Z</time></trkpt>
<trkpt lat="43.845787" lon="5.432915"><ele></ele><time>2014-4-5T16:52:44Z</time></trkpt>
<trkpt lat="43.845603" lon="5.432575"><ele></ele><time>2014-4-5T16:52:47Z</time></trkpt>
<trkpt lat="43.845410" lon="5.432218"><ele></ele><time>2014-4-5T16:52:50Z</time></trkpt>
<trkpt lat="43.845203" lon="5.431845"><ele></ele><time>2014-4-5T16:52:53Z</time></trkpt>
<trkpt lat="43.845142" lon="5.431400"><ele></ele><time>2014-4-5T16:52:56Z</time></trkpt>
<trkpt lat="43.845180" lon="5.430965"><ele></ele><time>2014-4-5T16:52:59Z</time></trkpt>
<trkpt lat="43.845207" lon="5.430538"><ele></ele><time>2014-4-5T16:53:2Z</time></trkpt>
<trkpt lat="43.845233" lon="5.430122"><ele></ele><time>2014-4-5T16:53:5Z</time></trkpt>
<trkpt lat="43.845272" lon="5.429688"><ele></ele><time>2014-4-5T16:53:8Z</time></trkpt>
<trkpt lat="43.845310" lon="5.429253"><ele></ele><time>2014-4-5T16:53:11Z</time></trkpt>
<trkpt lat="43.845340" lon="5.428810"><ele></ele><time>2014-4-5T16:53:14Z</time></trkpt>
<trkpt lat="43.845383" lon="5.428353"><ele></ele><time>2014-4-5T16:53:17Z</time></trkpt>
<trkpt lat="43.845422" lon="5.427900"><ele></ele><time>2014-4-5T16:53:20Z</time></trkpt>
<trkpt lat="43.845455" lon="5.427460"><ele></ele><time>2014-4-5T16:53:23Z</time></trkpt>
<trkpt lat="43.845478" lon="5.427013"><ele></ele><time>2014-4-5T16:53:26Z</time></trkpt>
<trkpt lat="43.845493" lon="5.426562"><ele></ele><time>2014-4-5T16:53:29Z</time></trkpt>
<trkpt lat="43.845512" lon="5.426070"><ele></ele><time>2014-4-5T16:53:32Z</time></trkpt>
<trkpt lat="43.845547" lon="5.425547"><ele></ele><time>2014-4-5T16:53:35Z</time></trkpt>
<trkpt lat="43.845573" lon="5.425000"><ele></ele><time>2014-4-5T16:53:38Z</time></trkpt>
<trkpt lat="43.845588" lon="5.424455"><ele></ele><time>2014-4-5T16:53:41Z</time></trkpt>
<trkpt lat="43.845612" lon="5.423925"><ele></ele><time>2014-4-5T16:53:44Z</time></trkpt>
<trkpt lat="43.845630" lon="5.423398"><ele></ele><time>2014-4-5T16:53:47Z</time></trkpt>
<trkpt lat="43.845662" lon="5.422873"><ele></ele><time>2014-4-5T16:53:50Z</time></trkpt>
<trkpt lat="43.845688" lon="5.422347"><ele></ele><time>2014-4-5T16:53:53Z</time></trkpt>
<trkpt lat="43.845700" lon="5.421805"><ele></ele><time>2014-4-5T16:53:56Z</time></trkpt>
<trkpt lat="43.845710" lon="5.421270"><ele></ele><time>2014-4-5T16:53:59Z</time></trkpt>
<trkpt lat="43.845727" lon="5.420782"><ele></ele><time>2014-4-5T16:54:2Z</time></trkpt>
<trkpt lat="43.845742" lon="5.420345"><ele></ele><time>2014-4-5T16:54:5Z</time></trkpt>
<trkpt lat="43.845757" lon="5.419908"><ele></ele><time>2014-4-5T16:54:8Z</time></trkpt>
<trkpt lat="43.845783" lon="5.419642"><ele></ele><time>2014-4-5T16:54:11Z</time></trkpt>
<trkpt lat="43.845798" lon="5.419617"><ele></ele><time>2014-4-5T16:54:14Z</time></trkpt>
<trkpt lat="43.845798" lon="5.419437"><ele></ele><time>2014-4-5T16:54:17Z</time></trkpt>
<trkpt lat="43.845787" lon="5.419110"><ele></ele><time>2014-4-5T16:54:20Z</time></trkpt>
<trkpt lat="43.845802" lon="5.418652"><ele></ele><time>2014-4-5T16:54:23Z</time></trkpt>
<trkpt lat="43.845822" lon="5.418148"><ele></ele><time>2014-4-5T16:54:26Z</time></trkpt>
<trkpt lat="43.845840" lon="5.417660"><ele></ele><time>2014-4-5T16:54:29Z</time></trkpt>
<trkpt lat="43.845855" lon="5.417175"><ele></ele><time>2014-4-5T16:54:32Z</time></trkpt>
<trkpt lat="43.845875" lon="5.416687"><ele></ele><time>2014-4-5T16:54:35Z</time></trkpt>
<trkpt lat="43.845893" lon="5.416180"><ele></ele><time>2014-4-5T16:54:38Z</time></trkpt>
<trkpt lat="43.845913" lon="5.415672"><ele></ele><time>2014-4-5T16:54:41Z</time></trkpt>
<trkpt lat="43.845932" lon="5.415162"><ele></ele><time>2014-4-5T16:54:44Z</time></trkpt>
<trkpt lat="43.845952" lon="5.414662"><ele></ele><time>2014-4-5T16:54:47Z</time></trkpt>
<trkpt lat="43.845967" lon="5.414177"><ele></ele><time>2014-4-5T16:54:50Z</time></trkpt>
<trkpt lat="43.845985" lon="5.413705"><ele></ele><time>2014-4-5T16:54:53Z</time></trkpt>
<trkpt lat="43.846000" lon="5.413285"><ele></ele><time>2014-4-5T16:54:56Z</time></trkpt>
<trkpt lat="43.846020" lon="5.413117"><ele></ele><time>2014-4-5T16:54:59Z</time></trkpt>
<trkpt lat="43.846017" lon="5.412895"><ele></ele><time>2014-4-5T16:55:2Z</time></trkpt>
<trkpt lat="43.846027" lon="5.412548"><ele></ele><time>2014-4-5T16:55:5Z</time></trkpt>
<trkpt lat="43.846043" lon="5.412167"><ele></ele><time>2014-4-5T16:55:8Z</time></trkpt>
<trkpt lat="43.846058" lon="5.411762"><ele></ele><time>2014-4-5T16:55:11Z</time></trkpt>
<trkpt lat="43.846073" lon="5.411323"><ele></ele><time>2014-4-5T16:55:14Z</time></trkpt>
<trkpt lat="43.846065" lon="5.410840"><ele></ele><time>2014-4-5T16:55:17Z</time></trkpt>
<trkpt lat="43.846038" lon="5.410322"><ele></ele><time>2014-4-5T16:55:20Z</time></trkpt>
<trkpt lat="43.846012" lon="5.409797"><ele></ele><time>2014-4-5T16:55:23Z</time></trkpt>
<trkpt lat="43.845990" lon="5.409278"><ele></ele><time>2014-4-5T16:55:26Z</time></trkpt>
<trkpt lat="43.845970" lon="5.408758"><ele></ele><time>2014-4-5T16:55:29Z</time></trkpt>
<trkpt lat="43.845947" lon="5.408233"><ele></ele><time>2014-4-5T16:55:32Z</time></trkpt>
<trkpt lat="43.845917" lon="5.407692"><ele></ele><time>2014-4-5T16:55:35Z</time></trkpt>
<trkpt lat="43.845890" lon="5.407158"><ele></ele><time>2014-4-5T16:55:38Z</time></trkpt>
<trkpt lat="43.845872" lon="5.406622"><ele></ele><time>2014-4-5T16:55:41Z</time></trkpt>
<trkpt lat="43.845848" lon="5.406073"><ele></ele><time>2014-4-5T16:55:44Z</time></trkpt>
<trkpt lat="43.845818" lon="5.405535"><ele></ele><time>2014-4-5T16:55:47Z</time></trkpt>
<trkpt lat="43.845795" lon="5.405023"><ele></ele><time>2014-4-5T16:55:50Z</time></trkpt>
<trkpt lat="43.845772" lon="5.404517"><ele></ele><time>2014-4-5T16:55:53Z</time></trkpt>
<trkpt lat="43.845748" lon="5.404030"><ele></ele><time>2014-4-5T16:55:56Z</time></trkpt>
<trkpt lat="43.845722" lon="5.403522"><ele></ele><time>2014-4-5T16:55:59Z</time></trkpt>
<trkpt lat="43.845707" lon="5.402987"><ele></ele><time>2014-4-5T16:56:2Z</time></trkpt>
<trkpt lat="43.845703" lon="5.402453"><ele></ele><time>2014-4-5T16:56:5Z</time></trkpt>
<trkpt lat="43.845700" lon="5.401925"><ele></ele><time>2014-4-5T16:56:8Z</time></trkpt>
<trkpt lat="43.845695" lon="5.401367"><ele></ele><time>2014-4-5T16:56:11Z</time></trkpt>
<trkpt lat="43.845692" lon="5.400790"><ele></ele><time>2014-4-5T16:56:14Z</time></trkpt>
<trkpt lat="43.845688" lon="5.400222"><ele></ele><time>2014-4-5T16:56:17Z</time></trkpt>
<trkpt lat="43.845688" lon="5.399683"><ele></ele><time>2014-4-5T16:56:20Z</time></trkpt>
<trkpt lat="43.845688" lon="5.399172"><ele></ele><time>2014-4-5T16:56:23Z</time></trkpt>
<trkpt lat="43.845700" lon="5.398623"><ele></ele><time>2014-4-5T16:56:26Z</time></trkpt>
<trkpt lat="43.845710" lon="5.398037"><ele></ele><time>2014-4-5T16:56:29Z</time></trkpt>
<trkpt lat="43.845718" lon="5.397472"><ele></ele><time>2014-4-5T16:56:32Z</time></trkpt>
<trkpt lat="43.845730" lon="5.396915"><ele></ele><time>2014-4-5T16:56:35Z</time></trkpt>
<trkpt lat="43.845722" lon="5.396368"><ele></ele><time>2014-4-5T16:56:38Z</time></trkpt>
<trkpt lat="43.845653" lon="5.395845"><ele></ele><time>2014-4-5T16:56:41Z</time></trkpt>
<trkpt lat="43.845555" lon="5.395335"><ele></ele><time>2014-4-5T16:56:44Z</time></trkpt>
<trkpt lat="43.845452" lon="5.394850"><ele></ele><time>2014-4-5T16:56:47Z</time></trkpt>
<trkpt lat="43.845345" lon="5.394365"><ele></ele><time>2014-4-5T16:56:50Z</time></trkpt>
<trkpt lat="43.845238" lon="5.393860"><ele></ele><time>2014-4-5T16:56:53Z</time></trkpt>
<trkpt lat="43.845127" lon="5.393342"><ele></ele><time>2014-4-5T16:56:56Z</time></trkpt>
<trkpt lat="43.845013" lon="5.392820"><ele></ele><time>2014-4-5T16:56:59Z</time></trkpt>
<trkpt lat="43.844907" lon="5.392307"><ele></ele><time>2014-4-5T16:57:2Z</time></trkpt>
<trkpt lat="43.844803" lon="5.391820"><ele></ele><time>2014-4-5T16:57:5Z</time></trkpt>
<trkpt lat="43.844700" lon="5.391340"><ele></ele><time>2014-4-5T16:57:8Z</time></trkpt>
<trkpt lat="43.844597" lon="5.390860"><ele></ele><time>2014-4-5T16:57:11Z</time></trkpt>
<trkpt lat="43.844498" lon="5.390385"><ele></ele><time>2014-4-5T16:57:14Z</time></trkpt>
<trkpt lat="43.844402" lon="5.389950"><ele></ele><time>2014-4-5T16:57:17Z</time></trkpt>
<trkpt lat="43.844360" lon="5.389593"><ele></ele><time>2014-4-5T16:57:20Z</time></trkpt>
<trkpt lat="43.844380" lon="5.389477"><ele></ele><time>2014-4-5T16:57:23Z</time></trkpt>
<trkpt lat="43.844288" lon="5.389327"><ele></ele><time>2014-4-5T16:57:26Z</time></trkpt>
<trkpt lat="43.844357" lon="5.389220"><ele></ele><time>2014-4-5T16:57:29Z</time></trkpt>
<trkpt lat="43.844478" lon="5.389155"><ele></ele><time>2014-4-5T16:57:32Z</time></trkpt>
<trkpt lat="43.844593" lon="5.389002"><ele></ele><time>2014-4-5T16:57:35Z</time></trkpt>
<trkpt lat="43.844692" lon="5.388870"><ele></ele><time>2014-4-5T16:57:38Z</time></trkpt>
<trkpt lat="43.844750" lon="5.388755"><ele></ele><time>2014-4-5T16:57:41Z</time></trkpt>
<trkpt lat="43.844830" lon="5.388627"><ele></ele><time>2014-4-5T16:57:44Z</time></trkpt>
<trkpt lat="43.844895" lon="5.388423"><ele></ele><time>2014-4-5T16:57:47Z</time></trkpt>
<trkpt lat="43.845002" lon="5.388185"><ele></ele><time>2014-4-5T16:57:50Z</time></trkpt>
<trkpt lat="43.845058" lon="5.388078"><ele></ele><time>2014-4-5T16:57:53Z</time></trkpt>
<trkpt lat="43.845062" lon="5.388062"><ele></ele><time>2014-4-5T16:57:56Z</time></trkpt>
<trkpt lat="43.845062" lon="5.387897"><ele></ele><time>2014-4-5T16:57:59Z</time></trkpt>
<trkpt lat="43.845097" lon="5.387743"><ele></ele><time>2014-4-5T16:58:2Z</time></trkpt>
<trkpt lat="43.845100" lon="5.387722"><ele></ele><time>2014-4-5T16:58:5Z</time></trkpt>
<trkpt lat="43.845093" lon="5.387738"><ele></ele><time>2014-4-5T16:58:8Z</time></trkpt>
<trkpt lat="43.845078" lon="5.387783"><ele></ele><time>2014-4-5T16:58:11Z</time></trkpt>
<trkpt lat="43.845062" lon="5.387848"><ele></ele><time>2014-4-5T16:58:14Z</time></trkpt>
<trkpt lat="43.845050" lon="5.387900"><ele></ele><time>2014-4-5T16:58:17Z</time></trkpt>
<trkpt lat="43.845055" lon="5.387937"><ele></ele><time>2014-4-5T16:58:20Z</time></trkpt>
<trkpt lat="43.845058" lon="5.387962"><ele></ele><time>2014-4-5T16:58:23Z</time></trkpt>
<trkpt lat="43.845055" lon="5.387960"><ele></ele><time>2014-4-5T16:58:26Z</time></trkpt>
<trkpt lat="43.845055" lon="5.387960"><ele></ele><time>2014-4-5T16:58:29Z</time></trkpt>
<trkpt lat="43.845055" lon="5.387963"><ele></ele><time>2014-4-5T16:58:32Z</time></trkpt>
<trkpt lat="43.845055" lon="5.387968"><ele></ele><time>2014-4-5T16:58:35Z</time></trkpt>
<trkpt lat="43.845058" lon="5.387972"><ele></ele><time>2014-4-5T16:58:38Z</time></trkpt>
<trkpt lat="43.845062" lon="5.387975"><ele></ele><time>2014-4-5T16:58:41Z</time></trkpt>
<trkpt lat="43.845058" lon="5.388007"><ele></ele><time>2014-4-5T16:58:44Z</time></trkpt>
<trkpt lat="43.845047" lon="5.388097"><ele></ele><time>2014-4-5T16:58:47Z</time></trkpt>
<trkpt lat="43.844990" lon="5.388213"><ele></ele><time>2014-4-5T16:58:50Z</time></trkpt>
<trkpt lat="43.844933" lon="5.388340"><ele></ele><time>2014-4-5T16:58:53Z</time></trkpt>
<trkpt lat="43.844878" lon="5.388488"><ele></ele><time>2014-4-5T16:58:56Z</time></trkpt>
<trkpt lat="43.844830" lon="5.388638"><ele></ele><time>2014-4-5T16:58:59Z</time></trkpt>
<trkpt lat="43.844750" lon="5.388757"><ele></ele><time>2014-4-5T16:59:2Z</time></trkpt>
<trkpt lat="43.844700" lon="5.388857"><ele></ele><time>2014-4-5T16:59:5Z</time></trkpt>
<trkpt lat="43.844620" lon="5.388933"><ele></ele><time>2014-4-5T16:59:8Z</time></trkpt>
<trkpt lat="43.844543" lon="5.389048"><ele></ele><time>2014-4-5T16:59:11Z</time></trkpt>
<trkpt lat="43.844460" lon="5.389170"><ele></ele><time>2014-4-5T16:59:14Z</time></trkpt>
<trkpt lat="43.844375" lon="5.389238"><ele></ele><time>2014-4-5T16:59:17Z</time></trkpt>
<trkpt lat="43.844295" lon="5.389235"><ele></ele><time>2014-4-5T16:59:20Z</time></trkpt>
<trkpt lat="43.844257" lon="5.389207"><ele></ele><time>2014-4-5T16:59:23Z</time></trkpt>
<trkpt lat="43.844242" lon="5.389215"><ele></ele><time>2014-4-5T16:59:26Z</time></trkpt>
<trkpt lat="43.844200" lon="5.389348"><ele></ele><time>2014-4-5T16:59:29Z</time></trkpt>
<trkpt lat="43.844203" lon="5.389425"><ele></ele><time>2014-4-5T16:59:32Z</time></trkpt>
<trkpt lat="43.844235" lon="5.389607"><ele></ele><time>2014-4-5T16:59:35Z</time></trkpt>
<trkpt lat="43.844318" lon="5.389827"><ele></ele><time>2014-4-5T16:59:38Z</time></trkpt>
<trkpt lat="43.844375" lon="5.390082"><ele></ele><time>2014-4-5T16:59:41Z</time></trkpt>
<trkpt lat="43.844440" lon="5.390373"><ele></ele><time>2014-4-5T16:59:44Z</time></trkpt>
<trkpt lat="43.844508" lon="5.390688"><ele></ele><time>2014-4-5T16:59:47Z</time></trkpt>
<trkpt lat="43.844578" lon="5.391008"><ele></ele><time>2014-4-5T16:59:50Z</time></trkpt>
<trkpt lat="43.844643" lon="5.391333"><ele></ele><time>2014-4-5T16:59:53Z</time></trkpt>
<trkpt lat="43.844715" lon="5.391652"><ele></ele><time>2014-4-5T16:59:56Z</time></trkpt>
<trkpt lat="43.844780" lon="5.391978"><ele></ele><time>2014-4-5T16:59:59Z</time></trkpt>
<trkpt lat="43.844852" lon="5.392310"><ele></ele><time>2014-4-5T17:0:2Z</time></trkpt>
<trkpt lat="43.844922" lon="5.392635"><ele></ele><time>2014-4-5T17:0:5Z</time></trkpt>
<trkpt lat="43.844993" lon="5.392965"><ele></ele><time>2014-4-5T17:0:8Z</time></trkpt>
<trkpt lat="43.845067" lon="5.393302"><ele></ele><time>2014-4-5T17:0:11Z</time></trkpt>
<trkpt lat="43.845135" lon="5.393642"><ele></ele><time>2014-4-5T17:0:14Z</time></trkpt>
<trkpt lat="43.845212" lon="5.393982"><ele></ele><time>2014-4-5T17:0:17Z</time></trkpt>
<trkpt lat="43.845283" lon="5.394327"><ele></ele><time>2014-4-5T17:0:20Z</time></trkpt>
<trkpt lat="43.845360" lon="5.394677"><ele></ele><time>2014-4-5T17:0:23Z</time></trkpt>
<trkpt lat="43.845440" lon="5.395035"><ele></ele><time>2014-4-5T17:0:26Z</time></trkpt>
<trkpt lat="43.845520" lon="5.395398"><ele></ele><time>2014-4-5T17:0:29Z</time></trkpt>
<trkpt lat="43.845597" lon="5.395773"><ele></ele><time>2014-4-5T17:0:32Z</time></trkpt>
<trkpt lat="43.845657" lon="5.396152"><ele></ele><time>2014-4-5T17:0:35Z</time></trkpt>
<trkpt lat="43.845692" lon="5.396538"><ele></ele><time>2014-4-5T17:0:38Z</time></trkpt>
<trkpt lat="43.845695" lon="5.396943"><ele></ele><time>2014-4-5T17:0:41Z</time></trkpt>
<trkpt lat="43.845688" lon="5.397330"><ele></ele><time>2014-4-5T17:0:44Z</time></trkpt>
<trkpt lat="43.845680" lon="5.397715"><ele></ele><time>2014-4-5T17:0:47Z</time></trkpt>
<trkpt lat="43.845668" lon="5.398115"><ele></ele><time>2014-4-5T17:0:50Z</time></trkpt>
<trkpt lat="43.845662" lon="5.398507"><ele></ele><time>2014-4-5T17:0:53Z</time></trkpt>
<trkpt lat="43.845653" lon="5.398865"><ele></ele><time>2014-4-5T17:0:56Z</time></trkpt>
<trkpt lat="43.845650" lon="5.399192"><ele></ele><time>2014-4-5T17:0:59Z</time></trkpt>
<trkpt lat="43.845647" lon="5.399528"><ele></ele><time>2014-4-5T17:1:2Z</time></trkpt>
<trkpt lat="43.845647" lon="5.399878"><ele></ele><time>2014-4-5T17:1:5Z</time></trkpt>
<trkpt lat="43.845650" lon="5.400242"><ele></ele><time>2014-4-5T17:1:8Z</time></trkpt>
<trkpt lat="43.845653" lon="5.400605"><ele></ele><time>2014-4-5T17:1:11Z</time></trkpt>
<trkpt lat="43.845653" lon="5.400950"><ele></ele><time>2014-4-5T17:1:14Z</time></trkpt>
<trkpt lat="43.845657" lon="5.401275"><ele></ele><time>2014-4-5T17:1:17Z</time></trkpt>
<trkpt lat="43.845657" lon="5.401580"><ele></ele><time>2014-4-5T17:1:20Z</time></trkpt>
<trkpt lat="43.845662" lon="5.401887"><ele></ele><time>2014-4-5T17:1:23Z</time></trkpt>
<trkpt lat="43.845665" lon="5.402188"><ele></ele><time>2014-4-5T17:1:26Z</time></trkpt>
<trkpt lat="43.845665" lon="5.402488"><ele></ele><time>2014-4-5T17:1:29Z</time></trkpt>
<trkpt lat="43.845665" lon="5.402765"><ele></ele><time>2014-4-5T17:1:32Z</time></trkpt>
<trkpt lat="43.845665" lon="5.403053"><ele></ele><time>2014-4-5T17:1:35Z</time></trkpt>
<trkpt lat="43.845673" lon="5.403343"><ele></ele><time>2014-4-5T17:1:38Z</time></trkpt>
<trkpt lat="43.845688" lon="5.403643"><ele></ele><time>2014-4-5T17:1:41Z</time></trkpt>
<trkpt lat="43.845700" lon="5.403940"><ele></ele><time>2014-4-5T17:1:44Z</time></trkpt>
<trkpt lat="43.845718" lon="5.404245"><ele></ele><time>2014-4-5T17:1:47Z</time></trkpt>
<trkpt lat="43.845733" lon="5.404567"><ele></ele><time>2014-4-5T17:1:50Z</time></trkpt>
<trkpt lat="43.845753" lon="5.404895"><ele></ele><time>2014-4-5T17:1:53Z</time></trkpt>
<trkpt lat="43.845768" lon="5.405223"><ele></ele><time>2014-4-5T17:1:56Z</time></trkpt>
<trkpt lat="43.845787" lon="5.405568"><ele></ele><time>2014-4-5T17:1:59Z</time></trkpt>
<trkpt lat="43.845802" lon="5.405928"><ele></ele><time>2014-4-5T17:2:2Z</time></trkpt>
<trkpt lat="43.845818" lon="5.406288"><ele></ele><time>2014-4-5T17:2:5Z</time></trkpt>
<trkpt lat="43.845833" lon="5.406638"><ele></ele><time>2014-4-5T17:2:8Z</time></trkpt>
<trkpt lat="43.845852" lon="5.406983"><ele></ele><time>2014-4-5T17:2:11Z</time></trkpt>
<trkpt lat="43.845867" lon="5.407330"><ele></ele><time>2014-4-5T17:2:14Z</time></trkpt>
<trkpt lat="43.845887" lon="5.407678"><ele></ele><time>2014-4-5T17:2:17Z</time></trkpt>
<trkpt lat="43.845905" lon="5.408025"><ele></ele><time>2014-4-5T17:2:20Z</time></trkpt>
<trkpt lat="43.845920" lon="5.408360"><ele></ele><time>2014-4-5T17:2:23Z</time></trkpt>
<trkpt lat="43.845932" lon="5.408663"><ele></ele><time>2014-4-5T17:2:26Z</time></trkpt>
<trkpt lat="43.845947" lon="5.408958"><ele></ele><time>2014-4-5T17:2:29Z</time></trkpt>
<trkpt lat="43.845955" lon="5.409262"><ele></ele><time>2014-4-5T17:2:32Z</time></trkpt>
<trkpt lat="43.845973" lon="5.409580"><ele></ele><time>2014-4-5T17:2:35Z</time></trkpt>
<trkpt lat="43.845985" lon="5.409910"><ele></ele><time>2014-4-5T17:2:38Z</time></trkpt>
<trkpt lat="43.846005" lon="5.410252"><ele></ele><time>2014-4-5T17:2:41Z</time></trkpt>
<trkpt lat="43.846017" lon="5.410593"><ele></ele><time>2014-4-5T17:2:44Z</time></trkpt>
<trkpt lat="43.846035" lon="5.410923"><ele></ele><time>2014-4-5T17:2:47Z</time></trkpt>
<trkpt lat="43.846043" lon="5.411253"><ele></ele><time>2014-4-5T17:2:50Z</time></trkpt>
<trkpt lat="43.846038" lon="5.411590"><ele></ele><time>2014-4-5T17:2:53Z</time></trkpt>
<trkpt lat="43.846023" lon="5.411918"><ele></ele><time>2014-4-5T17:2:56Z</time></trkpt>
<trkpt lat="43.846008" lon="5.412252"><ele></ele><time>2014-4-5T17:2:59Z</time></trkpt>
<trkpt lat="43.845990" lon="5.412583"><ele></ele><time>2014-4-5T17:3:2Z</time></trkpt>
<trkpt lat="43.845978" lon="5.412885"><ele></ele><time>2014-4-5T17:3:5Z</time></trkpt>
<trkpt lat="43.845943" lon="5.413133"><ele></ele><time>2014-4-5T17:3:8Z</time></trkpt>
<trkpt lat="43.845935" lon="5.413180"><ele></ele><time>2014-4-5T17:3:11Z</time></trkpt>
<trkpt lat="43.845917" lon="5.413248"><ele></ele><time>2014-4-5T17:3:14Z</time></trkpt>
<trkpt lat="43.845920" lon="5.413432"><ele></ele><time>2014-4-5T17:3:17Z</time></trkpt>
<trkpt lat="43.845947" lon="5.413675"><ele></ele><time>2014-4-5T17:3:20Z</time></trkpt>
<trkpt lat="43.845935" lon="5.413972"><ele></ele><time>2014-4-5T17:3:23Z</time></trkpt>
<trkpt lat="43.845920" lon="5.414275"><ele></ele><time>2014-4-5T17:3:26Z</time></trkpt>
<trkpt lat="43.845908" lon="5.414583"><ele></ele><time>2014-4-5T17:3:29Z</time></trkpt>
<trkpt lat="43.845902" lon="5.414897"><ele></ele><time>2014-4-5T17:3:32Z</time></trkpt>
<trkpt lat="43.845887" lon="5.415222"><ele></ele><time>2014-4-5T17:3:35Z</time></trkpt>
<trkpt lat="43.845878" lon="5.415555"><ele></ele><time>2014-4-5T17:3:38Z</time></trkpt>
<trkpt lat="43.845863" lon="5.415880"><ele></ele><time>2014-4-5T17:3:41Z</time></trkpt>
<trkpt lat="43.845855" lon="5.416202"><ele></ele><time>2014-4-5T17:3:44Z</time></trkpt>
<trkpt lat="43.845845" lon="5.416518"><ele></ele><time>2014-4-5T17:3:47Z</time></trkpt>
<trkpt lat="43.845837" lon="5.416828"><ele></ele><time>2014-4-5T17:3:50Z</time></trkpt>
<trkpt lat="43.845825" lon="5.417150"><ele></ele><time>2014-4-5T17:3:53Z</time></trkpt>
<trkpt lat="43.845813" lon="5.417468"><ele></ele><time>2014-4-5T17:3:56Z</time></trkpt>
<trkpt lat="43.845802" lon="5.417778"><ele></ele><time>2014-4-5T17:3:59Z</time></trkpt>
<trkpt lat="43.845792" lon="5.418105"><ele></ele><time>2014-4-5T17:4:2Z</time></trkpt>
<trkpt lat="43.845783" lon="5.418443"><ele></ele><time>2014-4-5T17:4:5Z</time></trkpt>
<trkpt lat="43.845763" lon="5.418787"><ele></ele><time>2014-4-5T17:4:8Z</time></trkpt>
<trkpt lat="43.845753" lon="5.419138"><ele></ele><time>2014-4-5T17:4:11Z</time></trkpt>
<trkpt lat="43.845760" lon="5.419497"><ele></ele><time>2014-4-5T17:4:14Z</time></trkpt>
<trkpt lat="43.845745" lon="5.419845"><ele></ele><time>2014-4-5T17:4:17Z</time></trkpt>
<trkpt lat="43.845727" lon="5.420203"><ele></ele><time>2014-4-5T17:4:20Z</time></trkpt>
<trkpt lat="43.845715" lon="5.420527"><ele></ele><time>2014-4-5T17:4:23Z</time></trkpt>
<trkpt lat="43.845707" lon="5.420835"><ele></ele><time>2014-4-5T17:4:26Z</time></trkpt>
<trkpt lat="43.845695" lon="5.421137"><ele></ele><time>2014-4-5T17:4:29Z</time></trkpt>
<trkpt lat="43.845688" lon="5.421452"><ele></ele><time>2014-4-5T17:4:32Z</time></trkpt>
<trkpt lat="43.845680" lon="5.421770"><ele></ele><time>2014-4-5T17:4:35Z</time></trkpt>
<trkpt lat="43.845668" lon="5.422095"><ele></ele><time>2014-4-5T17:4:38Z</time></trkpt>
<trkpt lat="43.845657" lon="5.422428"><ele></ele><time>2014-4-5T17:4:41Z</time></trkpt>
<trkpt lat="43.845647" lon="5.422757"><ele></ele><time>2014-4-5T17:4:44Z</time></trkpt>
<trkpt lat="43.845630" lon="5.423093"><ele></ele><time>2014-4-5T17:4:47Z</time></trkpt>
<trkpt lat="43.845615" lon="5.423438"><ele></ele><time>2014-4-5T17:4:50Z</time></trkpt>
<trkpt lat="43.845597" lon="5.423795"><ele></ele><time>2014-4-5T17:4:53Z</time></trkpt>
<trkpt lat="43.845585" lon="5.424148"><ele></ele><time>2014-4-5T17:4:56Z</time></trkpt>
<trkpt lat="43.845573" lon="5.424485"><ele></ele><time>2014-4-5T17:4:59Z</time></trkpt>
<trkpt lat="43.845558" lon="5.424807"><ele></ele><time>2014-4-5T17:5:2Z</time></trkpt>
<trkpt lat="43.845550" lon="5.425140"><ele></ele><time>2014-4-5T17:5:5Z</time></trkpt>
<trkpt lat="43.845535" lon="5.425473"><ele></ele><time>2014-4-5T17:5:8Z</time></trkpt>
<trkpt lat="43.845517" lon="5.425795"><ele></ele><time>2014-4-5T17:5:11Z</time></trkpt>
<trkpt lat="43.845493" lon="5.426075"><ele></ele><time>2014-4-5T17:5:14Z</time></trkpt>
<trkpt lat="43.845485" lon="5.426362"><ele></ele><time>2014-4-5T17:5:17Z</time></trkpt>
<trkpt lat="43.845475" lon="5.426655"><ele></ele><time>2014-4-5T17:5:20Z</time></trkpt>
<trkpt lat="43.845463" lon="5.426957"><ele></ele><time>2014-4-5T17:5:23Z</time></trkpt>
<trkpt lat="43.845455" lon="5.427268"><ele></ele><time>2014-4-5T17:5:26Z</time></trkpt>
<trkpt lat="43.845432" lon="5.427590"><ele></ele><time>2014-4-5T17:5:29Z</time></trkpt>
<trkpt lat="43.845410" lon="5.427912"><ele></ele><time>2014-4-5T17:5:32Z</time></trkpt>
<trkpt lat="43.845383" lon="5.428217"><ele></ele><time>2014-4-5T17:5:35Z</time></trkpt>
<trkpt lat="43.845357" lon="5.428533"><ele></ele><time>2014-4-5T17:5:38Z</time></trkpt>
<trkpt lat="43.845330" lon="5.428855"><ele></ele><time>2014-4-5T17:5:41Z</time></trkpt>
<trkpt lat="43.845303" lon="5.429180"><ele></ele><time>2014-4-5T17:5:44Z</time></trkpt>
<trkpt lat="43.845280" lon="5.429508"><ele></ele><time>2014-4-5T17:5:47Z</time></trkpt>
<trkpt lat="43.845253" lon="5.429848"><ele></ele><time>2014-4-5T17:5:50Z</time></trkpt>
<trkpt lat="43.845227" lon="5.430185"><ele></ele><time>2014-4-5T17:5:53Z</time></trkpt>
<trkpt lat="43.845200" lon="5.430518"><ele></ele><time>2014-4-5T17:5:56Z</time></trkpt>
<trkpt lat="43.845180" lon="5.430850"><ele></ele><time>2014-4-5T17:5:59Z</time></trkpt>
<trkpt lat="43.845158" lon="5.431175"><ele></ele><time>2014-4-5T17:6:2Z</time></trkpt>
<trkpt lat="43.845135" lon="5.431502"><ele></ele><time>2014-4-5T17:6:5Z</time></trkpt>
<trkpt lat="43.845165" lon="5.431818"><ele></ele><time>2014-4-5T17:6:8Z</time></trkpt>
<trkpt lat="43.845313" lon="5.432082"><ele></ele><time>2014-4-5T17:6:11Z</time></trkpt>
<trkpt lat="43.845458" lon="5.432337"><ele></ele><time>2014-4-5T17:6:14Z</time></trkpt>
<trkpt lat="43.845600" lon="5.432593"><ele></ele><time>2014-4-5T17:6:17Z</time></trkpt>
<trkpt lat="43.845753" lon="5.432857"><ele></ele><time>2014-4-5T17:6:20Z</time></trkpt>
<trkpt lat="43.845905" lon="5.433130"><ele></ele><time>2014-4-5T17:6:23Z</time></trkpt>
<trkpt lat="43.846065" lon="5.433400"><ele></ele><time>2014-4-5T17:6:26Z</time></trkpt>
<trkpt lat="43.846222" lon="5.433685"><ele></ele><time>2014-4-5T17:6:29Z</time></trkpt>
<trkpt lat="43.846387" lon="5.433992"><ele></ele><time>2014-4-5T17:6:32Z</time></trkpt>
<trkpt lat="43.846553" lon="5.434278"><ele></ele><time>2014-4-5T17:6:35Z</time></trkpt>
<trkpt lat="43.846763" lon="5.434492"><ele></ele><time>2014-4-5T17:6:38Z</time></trkpt>
<trkpt lat="43.847000" lon="5.434595"><ele></ele><time>2014-4-5T17:6:41Z</time></trkpt>
<trkpt lat="43.847228" lon="5.434673"><ele></ele><time>2014-4-5T17:6:44Z</time></trkpt>
<trkpt lat="43.847470" lon="5.434725"><ele></ele><time>2014-4-5T17:6:47Z</time></trkpt>
<trkpt lat="43.847748" lon="5.434790"><ele></ele><time>2014-4-5T17:6:50Z</time></trkpt>
<trkpt lat="43.848095" lon="5.434873"><ele></ele><time>2014-4-5T17:6:53Z</time></trkpt>
<trkpt lat="43.848462" lon="5.434953"><ele></ele><time>2014-4-5T17:6:56Z</time></trkpt>
<trkpt lat="43.848785" lon="5.435022"><ele></ele><time>2014-4-5T17:6:59Z</time></trkpt>
<trkpt lat="43.849072" lon="5.435082"><ele></ele><time>2014-4-5T17:7:2Z</time></trkpt>
<trkpt lat="43.849358" lon="5.435150"><ele></ele><time>2014-4-5T17:7:5Z</time></trkpt>
<trkpt lat="43.849658" lon="5.435222"><ele></ele><time>2014-4-5T17:7:8Z</time></trkpt>
<trkpt lat="43.849957" lon="5.435290"><ele></ele><time>2014-4-5T17:7:11Z</time></trkpt>
<trkpt lat="43.850258" lon="5.435353"><ele></ele><time>2014-4-5T17:7:14Z</time></trkpt>
<trkpt lat="43.850590" lon="5.435428"><ele></ele><time>2014-4-5T17:7:17Z</time></trkpt>
<trkpt lat="43.850937" lon="5.435500"><ele></ele><time>2014-4-5T17:7:20Z</time></trkpt>
<trkpt lat="43.851277" lon="5.435580"><ele></ele><time>2014-4-5T17:7:23Z</time></trkpt>
<trkpt lat="43.851525" lon="5.435677"><ele></ele><time>2014-4-5T17:7:26Z</time></trkpt>
<trkpt lat="43.851715" lon="5.435590"><ele></ele><time>2014-4-5T17:7:29Z</time></trkpt>
<trkpt lat="43.851943" lon="5.435390"><ele></ele><time>2014-4-5T17:7:32Z</time></trkpt>
<trkpt lat="43.852227" lon="5.435195"><ele></ele><time>2014-4-5T17:7:35Z</time></trkpt>
<trkpt lat="43.852543" lon="5.435015"><ele></ele><time>2014-4-5T17:7:38Z</time></trkpt>
<trkpt lat="43.852863" lon="5.434847"><ele></ele><time>2014-4-5T17:7:41Z</time></trkpt>
<trkpt lat="43.853192" lon="5.434697"><ele></ele><time>2014-4-5T17:7:44Z</time></trkpt>
<trkpt lat="43.853538" lon="5.434572"><ele></ele><time>2014-4-5T17:7:47Z</time></trkpt>
<trkpt lat="43.853905" lon="5.434462"><ele></ele><time>2014-4-5T17:7:50Z</time></trkpt>
<trkpt lat="43.854302" lon="5.434430"><ele></ele><time>2014-4-5T17:7:53Z</time></trkpt>
<trkpt lat="43.854690" lon="5.434375"><ele></ele><time>2014-4-5T17:7:56Z</time></trkpt>
<trkpt lat="43.855003" lon="5.434072"><ele></ele><time>2014-4-5T17:7:59Z</time></trkpt>
<trkpt lat="43.855328" lon="5.433818"><ele></ele><time>2014-4-5T17:8:2Z</time></trkpt>
<trkpt lat="43.855702" lon="5.434055"><ele></ele><time>2014-4-5T17:8:5Z</time></trkpt>
<trkpt lat="43.856083" lon="5.433977"><ele></ele><time>2014-4-5T17:8:8Z</time></trkpt>
<trkpt lat="43.856362" lon="5.433652"><ele></ele><time>2014-4-5T17:8:11Z</time></trkpt>
<trkpt lat="43.856637" lon="5.433998"><ele></ele><time>2014-4-5T17:8:14Z</time></trkpt>
<trkpt lat="43.856868" lon="5.434408"><ele></ele><time>2014-4-5T17:8:17Z</time></trkpt>
<trkpt lat="43.857197" lon="5.434547"><ele></ele><time>2014-4-5T17:8:20Z</time></trkpt>
<trkpt lat="43.857368" lon="5.434478"><ele></ele><time>2014-4-5T17:8:23Z</time></trkpt>
<trkpt lat="43.857502" lon="5.434440"><ele></ele><time>2014-4-5T17:8:26Z</time></trkpt>
<trkpt lat="43.857662" lon="5.434380"><ele></ele><time>2014-4-5T17:8:29Z</time></trkpt>
<trkpt lat="43.857833" lon="5.434312"><ele></ele><time>2014-4-5T17:8:32Z</time></trkpt>
<trkpt lat="43.858002" lon="5.434210"><ele></ele><time>2014-4-5T17:8:35Z</time></trkpt>
<trkpt lat="43.858162" lon="5.434087"><ele></ele><time>2014-4-5T17:8:38Z</time></trkpt>
<trkpt lat="43.858315" lon="5.433960"><ele></ele><time>2014-4-5T17:8:41Z</time></trkpt>
<trkpt lat="43.858472" lon="5.433858"><ele></ele><time>2014-4-5T17:8:44Z</time></trkpt>
<trkpt lat="43.858605" lon="5.433777"><ele></ele><time>2014-4-5T17:8:47Z</time></trkpt>
<trkpt lat="43.858772" lon="5.433728"><ele></ele><time>2014-4-5T17:8:50Z</time></trkpt>
<trkpt lat="43.858928" lon="5.433630"><ele></ele><time>2014-4-5T17:8:53Z</time></trkpt>
<trkpt lat="43.859077" lon="5.433525"><ele></ele><time>2014-4-5T17:8:56Z</time></trkpt>
<trkpt lat="43.859203" lon="5.433392"><ele></ele><time>2014-4-5T17:8:59Z</time></trkpt>
<trkpt lat="43.859325" lon="5.433265"><ele></ele><time>2014-4-5T17:9:2Z</time></trkpt>
<trkpt lat="43.859440" lon="5.433132"><ele></ele><time>2014-4-5T17:9:5Z</time></trkpt>
<trkpt lat="43.859573" lon="5.432975"><ele></ele><time>2014-4-5T17:9:8Z</time></trkpt>
<trkpt lat="43.859683" lon="5.432843"><ele></ele><time>2014-4-5T17:9:11Z</time></trkpt>
<trkpt lat="43.859783" lon="5.432697"><ele></ele><time>2014-4-5T17:9:14Z</time></trkpt>
<trkpt lat="43.859863" lon="5.432612"><ele></ele><time>2014-4-5T17:9:17Z</time></trkpt>
<trkpt lat="43.859958" lon="5.432557"><ele></ele><time>2014-4-5T17:9:20Z</time></trkpt>
<trkpt lat="43.860032" lon="5.432327"><ele></ele><time>2014-4-5T17:9:23Z</time></trkpt>
<trkpt lat="43.860115" lon="5.431935"><ele></ele><time>2014-4-5T17:9:26Z</time></trkpt>
<trkpt lat="43.860180" lon="5.431612"><ele></ele><time>2014-4-5T17:9:29Z</time></trkpt>
<trkpt lat="43.860257" lon="5.431400"><ele></ele><time>2014-4-5T17:9:32Z</time></trkpt>
<trkpt lat="43.860302" lon="5.431150"><ele></ele><time>2014-4-5T17:9:35Z</time></trkpt>
<trkpt lat="43.860360" lon="5.430892"><ele></ele><time>2014-4-5T17:9:38Z</time></trkpt>
<trkpt lat="43.860390" lon="5.430705"><ele></ele><time>2014-4-5T17:9:41Z</time></trkpt>
<trkpt lat="43.860417" lon="5.430563"><ele></ele><time>2014-4-5T17:9:44Z</time></trkpt>
<trkpt lat="43.860462" lon="5.430437"><ele></ele><time>2014-4-5T17:9:47Z</time></trkpt>
<trkpt lat="43.860592" lon="5.430363"><ele></ele><time>2014-4-5T17:9:50Z</time></trkpt>
<trkpt lat="43.860793" lon="5.430328"><ele></ele><time>2014-4-5T17:9:53Z</time></trkpt>
<trkpt lat="43.860920" lon="5.430290"><ele></ele><time>2014-4-5T17:9:56Z</time></trkpt>
<trkpt lat="43.860988" lon="5.430270"><ele></ele><time>2014-4-5T17:9:59Z</time></trkpt>
<trkpt lat="43.860985" lon="5.430262"><ele></ele><time>2014-4-5T17:10:2Z</time></trkpt>
<trkpt lat="43.860982" lon="5.430267"><ele></ele><time>2014-4-5T17:10:5Z</time></trkpt>
<trkpt lat="43.860965" lon="5.430275"><ele></ele><time>2014-4-5T17:10:8Z</time></trkpt>
<trkpt lat="43.860977" lon="5.430248"><ele></ele><time>2014-4-5T17:10:11Z</time></trkpt>
<trkpt lat="43.860982" lon="5.430243"><ele></ele><time>2014-4-5T17:10:14Z</time></trkpt>
<trkpt lat="43.860977" lon="5.430243"><ele></ele><time>2014-4-5T17:10:17Z</time></trkpt>
<trkpt lat="43.860973" lon="5.430248"><ele></ele><time>2014-4-5T17:10:20Z</time></trkpt>
<trkpt lat="43.860973" lon="5.430233"><ele></ele><time>2014-4-5T17:10:23Z</time></trkpt>
<trkpt lat="43.860970" lon="5.430237"><ele></ele><time>2014-4-5T17:10:26Z</time></trkpt>
<trkpt lat="43.860965" lon="5.430248"><ele></ele><time>2014-4-5T17:10:29Z</time></trkpt>
<trkpt lat="43.860962" lon="5.430255"><ele></ele><time>2014-4-5T17:10:32Z</time></trkpt>
<trkpt lat="43.860962" lon="5.430257"><ele></ele><time>2014-4-5T17:10:35Z</time></trkpt>
<trkpt lat="43.860958" lon="5.430263"><ele></ele><time>2014-4-5T17:10:38Z</time></trkpt>
<trkpt lat="43.860958" lon="5.430267"><ele></ele><time>2014-4-5T17:10:41Z</time></trkpt>
<trkpt lat="43.860955" lon="5.430275"><ele></ele><time>2014-4-5T17:10:44Z</time></trkpt>
<trkpt lat="43.860950" lon="5.430278"><ele></ele><time>2014-4-5T17:10:47Z</time></trkpt>
<trkpt lat="43.860950" lon="5.430280"><ele></ele><time>2014-4-5T17:10:50Z</time></trkpt>
<trkpt lat="43.860958" lon="5.430257"><ele></ele><time>2014-4-5T17:10:53Z</time></trkpt>
<trkpt lat="43.860965" lon="5.430243"><ele></ele><time>2014-4-5T17:10:56Z</time></trkpt>
<trkpt lat="43.860962" lon="5.430245"><ele></ele><time>2014-4-5T17:10:59Z</time></trkpt>
<trkpt lat="43.860962" lon="5.430247"><ele></ele><time>2014-4-5T17:11:2Z</time></trkpt>
<trkpt lat="43.860965" lon="5.430245"><ele></ele><time>2014-4-5T17:11:5Z</time></trkpt>
<trkpt lat="43.860973" lon="5.430232"><ele></ele><time>2014-4-5T17:11:8Z</time></trkpt>
<trkpt lat="43.860970" lon="5.430237"><ele></ele><time>2014-4-5T17:11:11Z</time></trkpt>
<trkpt lat="43.860965" lon="5.430245"><ele></ele><time>2014-4-5T17:11:14Z</time></trkpt>
<trkpt lat="43.860962" lon="5.430253"><ele></ele><time>2014-4-5T17:11:17Z</time></trkpt>
<trkpt lat="43.860962" lon="5.430257"><ele></ele><time>2014-4-5T17:11:20Z</time></trkpt>
<trkpt lat="43.860955" lon="5.430260"><ele></ele><time>2014-4-5T17:11:23Z</time></trkpt>
<trkpt lat="43.860955" lon="5.430248"><ele></ele><time>2014-4-5T17:11:26Z</time></trkpt>
<trkpt lat="43.860958" lon="5.430257"><ele></ele><time>2014-4-5T17:11:29Z</time></trkpt>
<trkpt lat="43.860962" lon="5.430273"><ele></ele><time>2014-4-5T17:11:32Z</time></trkpt>
<trkpt lat="43.860962" lon="5.430287"><ele></ele><time>2014-4-5T17:11:35Z</time></trkpt>
<trkpt lat="43.860962" lon="5.430285"><ele></ele><time>2014-4-5T17:11:38Z</time></trkpt>
<trkpt lat="43.860962" lon="5.430293"><ele></ele><time>2014-4-5T17:11:41Z</time></trkpt>
<trkpt lat="43.860965" lon="5.430283"><ele></ele><time>2014-4-5T17:11:44Z</time></trkpt>
<trkpt lat="43.860970" lon="5.430277"><ele></ele><time>2014-4-5T17:11:47Z</time></trkpt>
<trkpt lat="43.860970" lon="5.430282"><ele></ele><time>2014-4-5T17:11:50Z</time></trkpt>
<trkpt lat="43.860958" lon="5.430302"><ele></ele><time>2014-4-5T17:11:53Z</time></trkpt>
<trkpt lat="43.860962" lon="5.430305"><ele></ele><time>2014-4-5T17:11:56Z</time></trkpt>
<trkpt lat="43.860985" lon="5.430287"><ele></ele><time>2014-4-5T17:11:59Z</time></trkpt>
<trkpt lat="43.861137" lon="5.430233"><ele></ele><time>2014-4-5T17:12:2Z</time></trkpt>
<trkpt lat="43.861272" lon="5.430177"><ele></ele><time>2014-4-5T17:12:5Z</time></trkpt>
<trkpt lat="43.861275" lon="5.430175"><ele></ele><time>2014-4-5T17:12:8Z</time></trkpt>
<trkpt lat="43.861278" lon="5.430172"><ele></ele><time>2014-4-5T17:12:11Z</time></trkpt>
<trkpt lat="43.861278" lon="5.430167"><ele></ele><time>2014-4-5T17:12:14Z</time></trkpt>
<trkpt lat="43.861290" lon="5.430167"><ele></ele><time>2014-4-5T17:12:17Z</time></trkpt>
<trkpt lat="43.861397" lon="5.430137"><ele></ele><time>2014-4-5T17:12:20Z</time></trkpt>
<trkpt lat="43.861565" lon="5.430060"><ele></ele><time>2014-4-5T17:12:23Z</time></trkpt>
<trkpt lat="43.861722" lon="5.429992"><ele></ele><time>2014-4-5T17:12:26Z</time></trkpt>
<trkpt lat="43.861698" lon="5.429725"><ele></ele><time>2014-4-5T17:12:29Z</time></trkpt>
<trkpt lat="43.861473" lon="5.429632"><ele></ele><time>2014-4-5T17:12:32Z</time></trkpt>
<trkpt lat="43.861233" lon="5.429428"><ele></ele><time>2014-4-5T17:12:35Z</time></trkpt>
<trkpt lat="43.861103" lon="5.429003"><ele></ele><time>2014-4-5T17:12:38Z</time></trkpt>
<trkpt lat="43.861000" lon="5.428527"><ele></ele><time>2014-4-5T17:12:41Z</time></trkpt>
<trkpt lat="43.860852" lon="5.428067"><ele></ele><time>2014-4-5T17:12:44Z</time></trkpt>
<trkpt lat="43.860645" lon="5.427658"><ele></ele><time>2014-4-5T17:12:47Z</time></trkpt>
<trkpt lat="43.860348" lon="5.427337"><ele></ele><time>2014-4-5T17:12:50Z</time></trkpt>
<trkpt lat="43.860165" lon="5.427002"><ele></ele><time>2014-4-5T17:12:53Z</time></trkpt>
<trkpt lat="43.860397" lon="5.426768"><ele></ele><time>2014-4-5T17:12:56Z</time></trkpt>
<trkpt lat="43.860737" lon="5.426932"><ele></ele><time>2014-4-5T17:12:59Z</time></trkpt>
<trkpt lat="43.861047" lon="5.427097"><ele></ele><time>2014-4-5T17:13:2Z</time></trkpt>
<trkpt lat="43.861373" lon="5.427178"><ele></ele><time>2014-4-5T17:13:5Z</time></trkpt>
<trkpt lat="43.861763" lon="5.427267"><ele></ele><time>2014-4-5T17:13:8Z</time></trkpt>
<trkpt lat="43.862190" lon="5.427225"><ele></ele><time>2014-4-5T17:13:11Z</time></trkpt>
<trkpt lat="43.862563" lon="5.427032"><ele></ele><time>2014-4-5T17:13:14Z</time></trkpt>
<trkpt lat="43.862767" lon="5.426733"><ele></ele><time>2014-4-5T17:13:17Z</time></trkpt>
<trkpt lat="43.862522" lon="5.426355"><ele></ele><time>2014-4-5T17:13:20Z</time></trkpt>
<trkpt lat="43.862178" lon="5.426010"><ele></ele><time>2014-4-5T17:13:23Z</time></trkpt>
<trkpt lat="43.861840" lon="5.425660"><ele></ele><time>2014-4-5T17:13:26Z</time></trkpt>
<trkpt lat="43.861488" lon="5.425293"><ele></ele><time>2014-4-5T17:13:29Z</time></trkpt>
<trkpt lat="43.861233" lon="5.424817"><ele></ele><time>2014-4-5T17:13:32Z</time></trkpt>
<trkpt lat="43.861137" lon="5.424193"><ele></ele><time>2014-4-5T17:13:35Z</time></trkpt>
<trkpt lat="43.861062" lon="5.423557"><ele></ele><time>2014-4-5T17:13:38Z</time></trkpt>
<trkpt lat="43.860977" lon="5.423052"><ele></ele><time>2014-4-5T17:13:41Z</time></trkpt>
<trkpt lat="43.860985" lon="5.422800"><ele></ele><time>2014-4-5T17:13:44Z</time></trkpt>
<trkpt lat="43.861282" lon="5.422935"><ele></ele><time>2014-4-5T17:13:47Z</time></trkpt>
<trkpt lat="43.861637" lon="5.423168"><ele></ele><time>2014-4-5T17:13:50Z</time></trkpt>
<trkpt lat="43.861953" lon="5.423200"><ele></ele><time>2014-4-5T17:13:53Z</time></trkpt>
<trkpt lat="43.862247" lon="5.423485"><ele></ele><time>2014-4-5T17:13:56Z</time></trkpt>
<trkpt lat="43.862533" lon="5.423823"><ele></ele><time>2014-4-5T17:13:59Z</time></trkpt>
<trkpt lat="43.862832" lon="5.423703"><ele></ele><time>2014-4-5T17:14:2Z</time></trkpt>
<trkpt lat="43.863083" lon="5.423467"><ele></ele><time>2014-4-5T17:14:5Z</time></trkpt>
<trkpt lat="43.863385" lon="5.423333"><ele></ele><time>2014-4-5T17:14:8Z</time></trkpt>
<trkpt lat="43.863738" lon="5.423237"><ele></ele><time>2014-4-5T17:14:11Z</time></trkpt>
<trkpt lat="43.864078" lon="5.423107"><ele></ele><time>2014-4-5T17:14:14Z</time></trkpt>
<trkpt lat="43.864418" lon="5.423178"><ele></ele><time>2014-4-5T17:14:17Z</time></trkpt>
<trkpt lat="43.864758" lon="5.423280"><ele></ele><time>2014-4-5T17:14:20Z</time></trkpt>
<trkpt lat="43.865090" lon="5.423302"><ele></ele><time>2014-4-5T17:14:23Z</time></trkpt>
<trkpt lat="43.865407" lon="5.423325"><ele></ele><time>2014-4-5T17:14:26Z</time></trkpt>
<trkpt lat="43.865685" lon="5.423333"><ele></ele><time>2014-4-5T17:14:29Z</time></trkpt>
<trkpt lat="43.865987" lon="5.423370"><ele></ele><time>2014-4-5T17:14:32Z</time></trkpt>
<trkpt lat="43.866272" lon="5.423260"><ele></ele><time>2014-4-5T17:14:35Z</time></trkpt>
<trkpt lat="43.866340" lon="5.422745"><ele></ele><time>2014-4-5T17:14:38Z</time></trkpt>
<trkpt lat="43.866502" lon="5.422342"><ele></ele><time>2014-4-5T17:14:41Z</time></trkpt>
<trkpt lat="43.866833" lon="5.422102"><ele></ele><time>2014-4-5T17:14:44Z</time></trkpt>
<trkpt lat="43.867023" lon="5.421927"><ele></ele><time>2014-4-5T17:14:47Z</time></trkpt>
<trkpt lat="43.866863" lon="5.421657"><ele></ele><time>2014-4-5T17:14:50Z</time></trkpt>
<trkpt lat="43.867097" lon="5.421603"><ele></ele><time>2014-4-5T17:14:53Z</time></trkpt>
<trkpt lat="43.867413" lon="5.421712"><ele></ele><time>2014-4-5T17:14:56Z</time></trkpt>
<trkpt lat="43.867725" lon="5.421850"><ele></ele><time>2014-4-5T17:14:59Z</time></trkpt>
<trkpt lat="43.868018" lon="5.421723"><ele></ele><time>2014-4-5T17:15:2Z</time></trkpt>
<trkpt lat="43.868308" lon="5.421685"><ele></ele><time>2014-4-5T17:15:5Z</time></trkpt>
<trkpt lat="43.868622" lon="5.421893"><ele></ele><time>2014-4-5T17:15:8Z</time></trkpt>
<trkpt lat="43.868897" lon="5.422060"><ele></ele><time>2014-4-5T17:15:11Z</time></trkpt>
<trkpt lat="43.869113" lon="5.422173"><ele></ele><time>2014-4-5T17:15:14Z</time></trkpt>
<trkpt lat="43.869293" lon="5.422418"><ele></ele><time>2014-4-5T17:15:17Z</time></trkpt>
<trkpt lat="43.869518" lon="5.422698"><ele></ele><time>2014-4-5T17:15:20Z</time></trkpt>
<trkpt lat="43.869823" lon="5.422540"><ele></ele><time>2014-4-5T17:15:23Z</time></trkpt>
<trkpt lat="43.870075" lon="5.422117"><ele></ele><time>2014-4-5T17:15:26Z</time></trkpt>
<trkpt lat="43.870167" lon="5.422185"><ele></ele><time>2014-4-5T17:15:29Z</time></trkpt>
<trkpt lat="43.870105" lon="5.422560"><ele></ele><time>2014-4-5T17:15:32Z</time></trkpt>
<trkpt lat="43.870137" lon="5.423012"><ele></ele><time>2014-4-5T17:15:35Z</time></trkpt>
<trkpt lat="43.870152" lon="5.423495"><ele></ele><time>2014-4-5T17:15:38Z</time></trkpt>
<trkpt lat="43.870353" lon="5.423917"><ele></ele><time>2014-4-5T17:15:41Z</time></trkpt>
<trkpt lat="43.870593" lon="5.424258"><ele></ele><time>2014-4-5T17:15:44Z</time></trkpt>
<trkpt lat="43.870803" lon="5.424520"><ele></ele><time>2014-4-5T17:15:47Z</time></trkpt>
<trkpt lat="43.870998" lon="5.424755"><ele></ele><time>2014-4-5T17:15:50Z</time></trkpt>
<trkpt lat="43.871235" lon="5.424867"><ele></ele><time>2014-4-5T17:15:53Z</time></trkpt>
<trkpt lat="43.871377" lon="5.424947"><ele></ele><time>2014-4-5T17:15:56Z</time></trkpt>
<trkpt lat="43.871372" lon="5.424947"><ele></ele><time>2014-4-5T17:15:59Z</time></trkpt>
<trkpt lat="43.871372" lon="5.424950"><ele></ele><time>2014-4-5T17:16:2Z</time></trkpt>
<trkpt lat="43.871448" lon="5.424965"><ele></ele><time>2014-4-5T17:16:5Z</time></trkpt>
<trkpt lat="43.871667" lon="5.425097"><ele></ele><time>2014-4-5T17:16:8Z</time></trkpt>
<trkpt lat="43.871987" lon="5.425383"><ele></ele><time>2014-4-5T17:16:11Z</time></trkpt>
<trkpt lat="43.872197" lon="5.425935"><ele></ele><time>2014-4-5T17:16:14Z</time></trkpt>
<trkpt lat="43.872395" lon="5.426432"><ele></ele><time>2014-4-5T17:16:17Z</time></trkpt>
<trkpt lat="43.872745" lon="5.426780"><ele></ele><time>2014-4-5T17:16:20Z</time></trkpt>
<trkpt lat="43.873082" lon="5.426988"><ele></ele><time>2014-4-5T17:16:23Z</time></trkpt>
<trkpt lat="43.873180" lon="5.426630"><ele></ele><time>2014-4-5T17:16:26Z</time></trkpt>
<trkpt lat="43.873188" lon="5.426137"><ele></ele><time>2014-4-5T17:16:29Z</time></trkpt>
<trkpt lat="43.873275" lon="5.425760"><ele></ele><time>2014-4-5T17:16:32Z</time></trkpt>
<trkpt lat="43.873645" lon="5.425845"><ele></ele><time>2014-4-5T17:16:35Z</time></trkpt>
<trkpt lat="43.874085" lon="5.425712"><ele></ele><time>2014-4-5T17:16:38Z</time></trkpt>
<trkpt lat="43.874500" lon="5.425447"><ele></ele><time>2014-4-5T17:16:41Z</time></trkpt>
<trkpt lat="43.874813" lon="5.425243"><ele></ele><time>2014-4-5T17:16:44Z</time></trkpt>
<trkpt lat="43.874938" lon="5.425130"><ele></ele><time>2014-4-5T17:16:47Z</time></trkpt>
<trkpt lat="43.874962" lon="5.424888"><ele></ele><time>2014-4-5T17:16:50Z</time></trkpt>
<trkpt lat="43.874997" lon="5.424565"><ele></ele><time>2014-4-5T17:16:53Z</time></trkpt>
<trkpt lat="43.875045" lon="5.424245"><ele></ele><time>2014-4-5T17:16:56Z</time></trkpt>
<trkpt lat="43.875092" lon="5.423925"><ele></ele><time>2014-4-5T17:16:59Z</time></trkpt>
<trkpt lat="43.875103" lon="5.423648"><ele></ele><time>2014-4-5T17:17:2Z</time></trkpt>
<trkpt lat="43.875127" lon="5.423397"><ele></ele><time>2014-4-5T17:17:5Z</time></trkpt>
<trkpt lat="43.875195" lon="5.423132"><ele></ele><time>2014-4-5T17:17:8Z</time></trkpt>
<trkpt lat="43.875282" lon="5.422872"><ele></ele><time>2014-4-5T17:17:11Z</time></trkpt>
<trkpt lat="43.875320" lon="5.422593"><ele></ele><time>2014-4-5T17:17:14Z</time></trkpt>
<trkpt lat="43.875355" lon="5.422322"><ele></ele><time>2014-4-5T17:17:17Z</time></trkpt>
<trkpt lat="43.875325" lon="5.422052"><ele></ele><time>2014-4-5T17:17:20Z</time></trkpt>
<trkpt lat="43.875255" lon="5.421760"><ele></ele><time>2014-4-5T17:17:23Z</time></trkpt>
<trkpt lat="43.875305" lon="5.421512"><ele></ele><time>2014-4-5T17:17:26Z</time></trkpt>
<trkpt lat="43.875335" lon="5.421220"><ele></ele><time>2014-4-5T17:17:29Z</time></trkpt>
<trkpt lat="43.875358" lon="5.420968"><ele></ele><time>2014-4-5T17:17:32Z</time></trkpt>
<trkpt lat="43.875465" lon="5.420752"><ele></ele><time>2014-4-5T17:17:35Z</time></trkpt>
<trkpt lat="43.875550" lon="5.420500"><ele></ele><time>2014-4-5T17:17:38Z</time></trkpt>
<trkpt lat="43.875613" lon="5.420205"><ele></ele><time>2014-4-5T17:17:41Z</time></trkpt>
<trkpt lat="43.875705" lon="5.419957"><ele></ele><time>2014-4-5T17:17:44Z</time></trkpt>
<trkpt lat="43.875758" lon="5.419705"><ele></ele><time>2014-4-5T17:17:47Z</time></trkpt>
<trkpt lat="43.875817" lon="5.419508"><ele></ele><time>2014-4-5T17:17:50Z</time></trkpt>
<trkpt lat="43.875870" lon="5.419248"><ele></ele><time>2014-4-5T17:17:53Z</time></trkpt>
<trkpt lat="43.875877" lon="5.418953"><ele></ele><time>2014-4-5T17:17:56Z</time></trkpt>
<trkpt lat="43.875870" lon="5.418648"><ele></ele><time>2014-4-5T17:17:59Z</time></trkpt>
<trkpt lat="43.875855" lon="5.418347"><ele></ele><time>2014-4-5T17:18:2Z</time></trkpt>
<trkpt lat="43.875808" lon="5.418042"><ele></ele><time>2014-4-5T17:18:5Z</time></trkpt>
<trkpt lat="43.875828" lon="5.417720"><ele></ele><time>2014-4-5T17:18:8Z</time></trkpt>
<trkpt lat="43.875897" lon="5.417427"><ele></ele><time>2014-4-5T17:18:11Z</time></trkpt>
<trkpt lat="43.875973" lon="5.417152"><ele></ele><time>2014-4-5T17:18:14Z</time></trkpt>
<trkpt lat="43.875995" lon="5.416848"><ele></ele><time>2014-4-5T17:18:17Z</time></trkpt>
<trkpt lat="43.875903" lon="5.416580"><ele></ele><time>2014-4-5T17:18:20Z</time></trkpt>
<trkpt lat="43.875802" lon="5.416295"><ele></ele><time>2014-4-5T17:18:23Z</time></trkpt>
<trkpt lat="43.875725" lon="5.415992"><ele></ele><time>2014-4-5T17:18:26Z</time></trkpt>
<trkpt lat="43.875763" lon="5.415727"><ele></ele><time>2014-4-5T17:18:29Z</time></trkpt>
<trkpt lat="43.875858" lon="5.415345"><ele></ele><time>2014-4-5T17:18:32Z</time></trkpt>
<trkpt lat="43.876027" lon="5.414955"><ele></ele><time>2014-4-5T17:18:35Z</time></trkpt>
<trkpt lat="43.876220" lon="5.414583"><ele></ele><time>2014-4-5T17:18:38Z</time></trkpt>
<trkpt lat="43.876362" lon="5.414208"><ele></ele><time>2014-4-5T17:18:41Z</time></trkpt>
<trkpt lat="43.876430" lon="5.413812"><ele></ele><time>2014-4-5T17:18:44Z</time></trkpt>
<trkpt lat="43.876415" lon="5.413405"><ele></ele><time>2014-4-5T17:18:47Z</time></trkpt>
<trkpt lat="43.876362" lon="5.412958"><ele></ele><time>2014-4-5T17:18:50Z</time></trkpt>
<trkpt lat="43.876507" lon="5.412497"><ele></ele><time>2014-4-5T17:18:53Z</time></trkpt>
<trkpt lat="43.876660" lon="5.412025"><ele></ele><time>2014-4-5T17:18:56Z</time></trkpt>
<trkpt lat="43.876785" lon="5.411565"><ele></ele><time>2014-4-5T17:18:59Z</time></trkpt>
<trkpt lat="43.876842" lon="5.411102"><ele></ele><time>2014-4-5T17:19:2Z</time></trkpt>
<trkpt lat="43.876880" lon="5.410613"><ele></ele><time>2014-4-5T17:19:5Z</time></trkpt>
<trkpt lat="43.876927" lon="5.410102"><ele></ele><time>2014-4-5T17:19:8Z</time></trkpt>
<trkpt lat="43.876980" lon="5.409763"><ele></ele><time>2014-4-5T17:19:11Z</time></trkpt>
<trkpt lat="43.877178" lon="5.409620"><ele></ele><time>2014-4-5T17:19:14Z</time></trkpt>
<trkpt lat="43.877293" lon="5.409623"><ele></ele><time>2014-4-5T17:19:17Z</time></trkpt>
<trkpt lat="43.877297" lon="5.409628"><ele></ele><time>2014-4-5T17:19:20Z</time></trkpt>
<trkpt lat="43.877297" lon="5.409632"><ele></ele><time>2014-4-5T17:19:23Z</time></trkpt>
<trkpt lat="43.877293" lon="5.409635"><ele></ele><time>2014-4-5T17:19:26Z</time></trkpt>
<trkpt lat="43.877327" lon="5.409613"><ele></ele><time>2014-4-5T17:19:29Z</time></trkpt>
<trkpt lat="43.877338" lon="5.409400"><ele></ele><time>2014-4-5T17:19:32Z</time></trkpt>
<trkpt lat="43.877288" lon="5.409108"><ele></ele><time>2014-4-5T17:19:35Z</time></trkpt>
<trkpt lat="43.877247" lon="5.408790"><ele></ele><time>2014-4-5T17:19:38Z</time></trkpt>
<trkpt lat="43.877202" lon="5.408460"><ele></ele><time>2014-4-5T17:19:41Z</time></trkpt>
<trkpt lat="43.877152" lon="5.408118"><ele></ele><time>2014-4-5T17:19:44Z</time></trkpt>
<trkpt lat="43.877102" lon="5.407767"><ele></ele><time>2014-4-5T17:19:47Z</time></trkpt>
<trkpt lat="43.877045" lon="5.407403"><ele></ele><time>2014-4-5T17:19:50Z</time></trkpt>
<trkpt lat="43.876983" lon="5.407020"><ele></ele><time>2014-4-5T17:19:53Z</time></trkpt>
<trkpt lat="43.876938" lon="5.406618"><ele></ele><time>2014-4-5T17:19:56Z</time></trkpt>
<trkpt lat="43.876865" lon="5.406215"><ele></ele><time>2014-4-5T17:19:59Z</time></trkpt>
<trkpt lat="43.876702" lon="5.405828"><ele></ele><time>2014-4-5T17:20:2Z</time></trkpt>
<trkpt lat="43.876495" lon="5.405447"><ele></ele><time>2014-4-5T17:20:5Z</time></trkpt>
<trkpt lat="43.876358" lon="5.405108"><ele></ele><time>2014-4-5T17:20:8Z</time></trkpt>
<trkpt lat="43.876175" lon="5.404762"><ele></ele><time>2014-4-5T17:20:11Z</time></trkpt>
<trkpt lat="43.876003" lon="5.404403"><ele></ele><time>2014-4-5T17:20:14Z</time></trkpt>
<trkpt lat="43.875820" lon="5.404047"><ele></ele><time>2014-4-5T17:20:17Z</time></trkpt>
<trkpt lat="43.875645" lon="5.403692"><ele></ele><time>2014-4-5T17:20:20Z</time></trkpt>
<trkpt lat="43.875465" lon="5.403342"><ele></ele><time>2014-4-5T17:20:23Z</time></trkpt>
<trkpt lat="43.875302" lon="5.403020"><ele></ele><time>2014-4-5T17:20:26Z</time></trkpt>
<trkpt lat="43.875210" lon="5.402828"><ele></ele><time>2014-4-5T17:20:29Z</time></trkpt>
<trkpt lat="43.875127" lon="5.402668"><ele></ele><time>2014-4-5T17:20:32Z</time></trkpt>
<trkpt lat="43.875003" lon="5.402445"><ele></ele><time>2014-4-5T17:20:35Z</time></trkpt>
<trkpt lat="43.874905" lon="5.402183"><ele></ele><time>2014-4-5T17:20:38Z</time></trkpt>
<trkpt lat="43.874825" lon="5.401888"><ele></ele><time>2014-4-5T17:20:41Z</time></trkpt>
<trkpt lat="43.874767" lon="5.401572"><ele></ele><time>2014-4-5T17:20:44Z</time></trkpt>
<trkpt lat="43.874802" lon="5.401260"><ele></ele><time>2014-4-5T17:20:47Z</time></trkpt>
<trkpt lat="43.874908" lon="5.401033"><ele></ele><time>2014-4-5T17:20:50Z</time></trkpt>
<trkpt lat="43.875062" lon="5.400902"><ele></ele><time>2014-4-5T17:20:53Z</time></trkpt>
<trkpt lat="43.875207" lon="5.400770"><ele></ele><time>2014-4-5T17:20:56Z</time></trkpt>
<trkpt lat="43.875222" lon="5.400530"><ele></ele><time>2014-4-5T17:20:59Z</time></trkpt>
<trkpt lat="43.875088" lon="5.400395"><ele></ele><time>2014-4-5T17:21:2Z</time></trkpt>
<trkpt lat="43.875053" lon="5.400385"><ele></ele><time>2014-4-5T17:21:5Z</time></trkpt>
<trkpt lat="43.875045" lon="5.400370"><ele></ele><time>2014-4-5T17:21:8Z</time></trkpt>
<trkpt lat="43.875062" lon="5.400325"><ele></ele><time>2014-4-5T17:21:11Z</time></trkpt>
<trkpt lat="43.875127" lon="5.400292"><ele></ele><time>2014-4-5T17:21:14Z</time></trkpt>
<trkpt lat="43.875207" lon="5.400205"><ele></ele><time>2014-4-5T17:21:17Z</time></trkpt>
<trkpt lat="43.875278" lon="5.400135"><ele></ele><time>2014-4-5T17:21:20Z</time></trkpt>
<trkpt lat="43.875290" lon="5.400133"><ele></ele><time>2014-4-5T17:21:23Z</time></trkpt>
<trkpt lat="43.875290" lon="5.400135"><ele></ele><time>2014-4-5T17:21:26Z</time></trkpt>
<trkpt lat="43.875287" lon="5.400153"><ele></ele><time>2014-4-5T17:21:29Z</time></trkpt>
<trkpt lat="43.875352" lon="5.400117"><ele></ele><time>2014-4-5T17:21:32Z</time></trkpt>
<trkpt lat="43.875450" lon="5.400058"><ele></ele><time>2014-4-5T17:21:35Z</time></trkpt>
<trkpt lat="43.875450" lon="5.400067"><ele></ele><time>2014-4-5T17:21:38Z</time></trkpt>
<trkpt lat="43.875447" lon="5.400070"><ele></ele><time>2014-4-5T17:21:41Z</time></trkpt>
<trkpt lat="43.875447" lon="5.400072"><ele></ele><time>2014-4-5T17:21:44Z</time></trkpt>
<trkpt lat="43.875447" lon="5.400072"><ele></ele><time>2014-4-5T17:21:47Z</time></trkpt>
<trkpt lat="43.875447" lon="5.400073"><ele></ele><time>2014-4-5T17:21:50Z</time></trkpt>
<trkpt lat="43.875485" lon="5.400050"><ele></ele><time>2014-4-5T17:21:53Z</time></trkpt>
<trkpt lat="43.875572" lon="5.399925"><ele></ele><time>2014-4-5T17:21:56Z</time></trkpt>
<trkpt lat="43.875613" lon="5.399732"><ele></ele><time>2014-4-5T17:21:59Z</time></trkpt>
<trkpt lat="43.875698" lon="5.399542"><ele></ele><time>2014-4-5T17:22:2Z</time></trkpt>
<trkpt lat="43.875713" lon="5.399473"><ele></ele><time>2014-4-5T17:22:5Z</time></trkpt>
<trkpt lat="43.875713" lon="5.399457"><ele></ele><time>2014-4-5T17:22:8Z</time></trkpt>
<trkpt lat="43.875698" lon="5.399468"><ele></ele><time>2014-4-5T17:22:11Z</time></trkpt>
<trkpt lat="43.875678" lon="5.399480"><ele></ele><time>2014-4-5T17:22:14Z</time></trkpt>
<trkpt lat="43.875663" lon="5.399410"><ele></ele><time>2014-4-5T17:22:17Z</time></trkpt>
<trkpt lat="43.875668" lon="5.399333"><ele></ele><time>2014-4-5T17:22:20Z</time></trkpt>
<trkpt lat="43.875698" lon="5.399268"><ele></ele><time>2014-4-5T17:22:23Z</time></trkpt>
<trkpt lat="43.875717" lon="5.399205"><ele></ele><time>2014-4-5T17:22:26Z</time></trkpt>
<trkpt lat="43.875740" lon="5.399178"><ele></ele><time>2014-4-5T17:22:29Z</time></trkpt>
<trkpt lat="43.875770" lon="5.399275"><ele></ele><time>2014-4-5T17:22:32Z</time></trkpt>
<trkpt lat="43.875817" lon="5.399388"><ele></ele><time>2014-4-5T17:22:35Z</time></trkpt>
<trkpt lat="43.875885" lon="5.399502"><ele></ele><time>2014-4-5T17:22:38Z</time></trkpt>
<trkpt lat="43.875950" lon="5.399560"><ele></ele><time>2014-4-5T17:22:41Z</time></trkpt>
<trkpt lat="43.876000" lon="5.399252"><ele></ele><time>2014-4-5T17:22:44Z</time></trkpt>
<trkpt lat="43.875973" lon="5.399118"><ele></ele><time>2014-4-5T17:22:47Z</time></trkpt>
<trkpt lat="43.875920" lon="5.399062"><ele></ele><time>2014-4-5T17:22:50Z</time></trkpt>
<trkpt lat="43.875942" lon="5.399160"><ele></ele><time>2014-4-5T17:22:53Z</time></trkpt>
<trkpt lat="43.875995" lon="5.399212"><ele></ele><time>2014-4-5T17:22:56Z</time></trkpt>
<trkpt lat="43.875973" lon="5.399248"><ele></ele><time>2014-4-5T17:22:59Z</time></trkpt>
<trkpt lat="43.875977" lon="5.399217"><ele></ele><time>2014-4-5T17:23:2Z</time></trkpt>
<trkpt lat="43.875973" lon="5.399187"><ele></ele><time>2014-4-5T17:23:5Z</time></trkpt>
<trkpt lat="43.875973" lon="5.399195"><ele></ele><time>2014-4-5T17:23:8Z</time></trkpt>
<trkpt lat="43.875973" lon="5.399213"><ele></ele><time>2014-4-5T17:23:11Z</time></trkpt>
<trkpt lat="43.875965" lon="5.399232"><ele></ele><time>2014-4-5T17:23:14Z</time></trkpt>
<trkpt lat="43.875977" lon="5.399212"><ele></ele><time>2014-4-5T17:23:17Z</time></trkpt>
<trkpt lat="43.875980" lon="5.399208"><ele></ele><time>2014-4-5T17:23:20Z</time></trkpt>
<trkpt lat="43.875992" lon="5.399203"><ele></ele><time>2014-4-5T17:23:23Z</time></trkpt>
<trkpt lat="43.875977" lon="5.399232"><ele></ele><time>2014-4-5T17:23:26Z</time></trkpt>
<trkpt lat="43.875988" lon="5.399233"><ele></ele><time>2014-4-5T17:23:29Z</time></trkpt>
<trkpt lat="43.875992" lon="5.399252"><ele></ele><time>2014-4-5T17:23:32Z</time></trkpt>
<trkpt lat="43.875992" lon="5.399268"><ele></ele><time>2014-4-5T17:23:35Z</time></trkpt>
<trkpt lat="43.876007" lon="5.399282"><ele></ele><time>2014-4-5T17:23:38Z</time></trkpt>
<trkpt lat="43.876003" lon="5.399273"><ele></ele><time>2014-4-5T17:23:41Z</time></trkpt>
<trkpt lat="43.875988" lon="5.399270"><ele></ele><time>2014-4-5T17:23:44Z</time></trkpt>
<trkpt lat="43.876003" lon="5.399273"><ele></ele><time>2014-4-5T17:23:47Z</time></trkpt>
<trkpt lat="43.875995" lon="5.399260"><ele></ele><time>2014-4-5T17:23:50Z</time></trkpt>
<trkpt lat="43.876007" lon="5.399253"><ele></ele><time>2014-4-5T17:23:53Z</time></trkpt>
<trkpt lat="43.876018" lon="5.399270"><ele></ele><time>2014-4-5T17:23:56Z</time></trkpt>
<trkpt lat="43.875988" lon="5.399273"><ele></ele><time>2014-4-5T17:23:59Z</time></trkpt>
<trkpt lat="43.875973" lon="5.399338"><ele></ele><time>2014-4-5T17:24:2Z</time></trkpt>
<trkpt lat="43.875927" lon="5.399463"><ele></ele><time>2014-4-5T17:24:5Z</time></trkpt>
<trkpt lat="43.875855" lon="5.399550"><ele></ele><time>2014-4-5T17:24:8Z</time></trkpt>
<trkpt lat="43.875840" lon="5.399202"><ele></ele><time>2014-4-5T17:24:11Z</time></trkpt>
<trkpt lat="43.875840" lon="5.399165"><ele></ele><time>2014-4-5T17:24:14Z</time></trkpt>
<trkpt lat="43.875820" lon="5.399292"><ele></ele><time>2014-4-5T17:24:17Z</time></trkpt>
<trkpt lat="43.875743" lon="5.399370"><ele></ele><time>2014-4-5T17:24:20Z</time></trkpt>
<trkpt lat="43.875690" lon="5.399337"><ele></ele><time>2014-4-5T17:24:23Z</time></trkpt>
<trkpt lat="43.876942" lon="5.398247"><ele></ele><time>2014-4-5T17:24:26Z</time></trkpt>
<trkpt lat="43.877182" lon="5.398010"><ele></ele><time>2014-4-5T17:24:29Z</time></trkpt>
<trkpt lat="43.875927" lon="5.399082"><ele></ele><time>2014-4-5T17:24:32Z</time></trkpt>
<trkpt lat="43.875485" lon="5.399248"><ele></ele><time>2014-4-5T17:24:35Z</time></trkpt>
<trkpt lat="43.875797" lon="5.399175"><ele></ele><time>2014-4-5T17:24:38Z</time></trkpt>
</trkseg></trk></gpx>